[[{"header":{"parameterUnit":"m.s-1","parameterCategory":1,"la1":31.0,"la2":29.5877,"lo1":-88.7671,"lo2":-86.6584,"dx":0.0162,"dy":0.0185,"nx":115,"ny":88,"refTime":"2023-02-07T06:00:00:Z","depth":0,"parameterNumber":2,"parameterNumberName":"U-component_of_WINDS"},"data":[0.0,0.0,0.0,0.0,0.0,0.0,0.0,0.0,0.0,0.0,0.0,0.0,0.0,0.0,0.0,0.0,0.0,0.0,0.0,0.0,0.0,0.0,0.0,0.0,0.0,0.0,0.0,0.0,0.0,0.0,0.0,0.0,0.0,0.0,0.0,0.0,0.0,0.0,0.0,0.0,0.0,0.0,0.0,0.0,0.0,0.0,0.0,0.0,0.0,0.0,0.0,0.0,0.0,0.0,0.0,0.0,0.0,0.0,0.0,0.0,0.0,0.0,0.0,0.0,0.0,0.0,0.0,0.0,0.0,0.0,0.0,0.0,0.0,0.0,0.0,0.0,0.0,0.0,0.0,0.0,0.0,0.0,0.0,0.0,0.0,0.0,0.0,0.0,0.0,0.0,0.0,0.0,0.0,0.0,0.0,0.0,0.0,0.0,0.0,0.0,0.0,0.0,0.0,0.0,0.0,0.0,0.0,0.0,0.0,0.0,0.0,0.0,0.0,0.0,0.0,0.0,0.0,0.0,0.0,0.0,0.0,0.0,0.0,0.0,0.0,0.0,0.0,0.0,0.0,0.0,0.0,0.0,0.0,0.0,0.0,0.0,0.0,0.0,0.0,0.0,0.0,0.0,0.0,0.0,0.0,0.0,0.0,0.0,0.0,0.0,0.0,0.0,0.0,0.0,0.0,0.0,0.0,0.0,0.0,0.0,0.0,0.0,0.0,0.0,0.0,0.0,0.0,0.0,0.0,0.0,0.0,0.0,0.0,0.0,0.0,0.0,0.0,0.0,0.0,0.0,0.0,0.0,0.0,0.0,0.0,0.0,0.0,0.0,0.0,0.0,0.0,0.0,0.0,0.0,0.0,0.0,0.0,0.0,0.0,0.0,0.0,0.0,0.0,0.0,0.0,0.0,0.0,0.0,0.0,0.0,0.0,0.0,0.0,0.0,0.0,0.0,0.0,0.0,0.0,0.0,0.0,0.0,0.0,0.0,0.0,0.0,0.0,0.0,0.0,0.0,0.0,0.0,0.0,0.0,0.0,0.0,0.0,0.0,0.0,0.0,0.0,0.0,0.0,0.0,0.0,0.0,0.0,0.0,0.0,0.0,0.0,0.0,0.0,0.0,0.0,0.0,0.0,0.0,0.0,0.0,0.0,0.0,0.0,0.0,0.0,0.0,0.0,0.0,0.0,0.0,0.0,0.0,0.0,0.0,0.0,0.0,0.0,0.0,0.0,0.0,0.0,0.0,0.0,0.0,0.0,0.0,0.0,0.0,0.0,0.0,0.0,0.0,0.0,0.0,0.0,0.0,0.0,0.0,0.0,0.0,0.0,0.0,0.0,0.0,0.0,0.0,0.0,0.0,0.0,0.0,0.0,0.0,0.0,0.0,0.0,0.0,0.0,0.0,0.0,0.0,0.0,0.0,0.0,0.0,0.0,0.0,0.0,0.0,0.0,0.0,0.0,0.0,0.0,0.0,0.0,0.0,0.0,0.0,0.0,0.0,0.0,0.0,0.0,0.0,0.0,0.0,0.0,0.0,0.0,0.0,0.0,0.0,0.0,0.0,0.0,0.0,0.0,0.0,0.0,0.0,0.0,0.0,0.0,0.0,0.0,0.0,0.0,0.0,0.0,0.0,0.0,0.0,0.0,0.0,0.0,0.0,0.0,0.0,0.0,0.0,0.0,0.0,0.0,0.0,0.0,0.0,0.0,0.0,0.0,0.0,0.0,0.0,0.0,0.0,0.0,0.0,0.0,0.0,0.0,0.0,0.0,0.0,0.0,0.0,0.0,0.0,0.0,0.0,0.0,0.0,0.0,0.0,0.0,0.0,0.0,0.0,0.0,0.0,0.0,0.0,0.0,0.0,0.0,0.0,0.0,0.0,0.0,0.0,0.0,0.0,0.0,0.0,0.0,0.0,0.0,0.0,0.0,0.0,0.0,0.0,0.0,0.0,0.0,0.0,0.0,0.0,0.0,0.0,0.0,0.0,0.0,0.0,0.0,0.0,0.0,0.0,0.0,0.0,0.0,0.0,0.0,0.0,0.0,0.0,0.0,0.0,0.0,0.0,0.0,0.0,0.0,0.0,0.0,0.0,0.0,0.0,0.0,0.0,0.0,0.0,0.0,0.0,0.0,0.0,0.0,0.0,0.0,0.0,0.0,0.0,0.0,0.0,0.0,0.0,0.0,0.0,0.0,0.0,0.0,0.0,0.0,0.0,0.0,0.0,0.0,0.0,0.0,0.0,0.0,0.0,0.0,0.0,0.0,0.0,0.0,0.0,0.0,0.0,0.0,0.0,0.0,0.0,0.0,0.0,0.0,0.0,0.0,0.0,0.0,0.0,0.0,0.0,0.0,0.0,0.0,0.0,0.0,0.0,0.0,0.0,0.0,0.0,0.0,0.0,0.0,0.0,0.0,0.0,0.0,0.0,0.0,0.0,0.0,0.0,0.0,0.0,0.0,0.0,0.0,0.0,0.0,0.0,0.0,0.0,0.0,0.0,0.0,0.0,0.0,0.0,0.0,0.0,0.0,0.0,0.0,0.0,0.0,0.0,0.0,0.0,0.0,0.0,0.0,0.0,0.0,0.0,0.0,0.0,0.0,0.0,0.0,0.0,0.0,0.0,0.0,0.0,0.0,0.0,0.0,0.0,0.0,0.0,0.0,0.0,0.0,0.0,0.0,0.0,0.0,0.0,0.0,0.0,0.0,0.0,0.0,0.0,0.0,0.0,0.0,0.0,0.0,0.0,0.0,0.0,0.0,0.0,0.0,0.0,0.0,0.0,0.0,0.0,0.0,0.0,0.0,0.0,0.0,0.0,0.0,0.0,0.0,0.0,0.0,0.0,0.0,0.0,0.0,0.0,0.0,0.0,0.0,0.0,0.0,0.0,0.0,0.0,0.0,0.0,0.0,0.0,0.0,0.0,0.0,0.0,0.0,0.0,0.0,0.0,0.0,0.0,0.0,0.0,0.0,0.0,0.0,0.0,0.0,0.0,0.0,0.0,0.0,0.0,0.0,0.0,0.0,0.0,0.0,0.0,0.0,0.0,0.0,0.0,0.0,0.0,0.0,0.0,0.0,0.0,0.0,0.0,0.0,0.0,0.0,0.0,0.0,0.0,0.0,0.0,0.0,0.0,0.0,0.0,0.0,0.0,0.0,0.0,0.0,0.0,0.0,0.0,0.0,0.0,0.0,0.0,0.0,0.0,0.0,0.0,0.0,0.0,0.0,0.0,0.0,0.0,0.0,0.0,0.0,0.0,0.0,0.0,0.0,0.0,0.0,0.0,0.0,0.0,0.0,0.0,0.0,0.0,0.0,0.0,0.0,0.0,0.0,0.0,0.0,0.0,0.0,0.0,0.0,0.0,0.0,0.0,0.0,0.0,0.0,0.0,0.0,0.0,0.0,0.0,0.0,0.0,0.0,0.0,0.0,0.0,0.0,0.0,0.0,0.0,0.0,0.0,0.0,0.0,0.0,0.0,0.0,0.0,0.0,0.0,0.0,0.0,0.0,0.0,0.0,0.0,0.0,0.0,0.0,0.0,0.0,0.0,0.0,0.0,0.0,0.0,0.0,0.0,0.0,0.0,0.0,0.0,0.0,0.0,0.0,0.0,0.0,0.0,0.0,0.0,0.0,0.0,0.0,0.0,0.0,0.0,0.0,0.0,0.0,0.0,0.0,0.0,0.0,0.0,0.0,0.0,0.0,0.0,0.0,0.0,0.0,0.0,0.0,0.0,0.0,0.0,0.0,0.0,0.0,0.0,0.0,0.0,0.0,0.0,0.0,0.0,0.0,0.0,0.0,0.0,0.0,0.0,0.0,0.0,0.0,0.0,0.0,0.0,0.0,0.0,0.0,0.0,0.0,0.0,0.0,0.0,0.0,0.0,0.0,0.0,0.0,0.0,0.0,0.0,0.0,0.0,0.0,0.0,0.0,0.0,0.0,0.0,0.0,0.0,0.0,0.0,0.0,0.0,0.0,0.0,0.0,0.0,0.0,0.0,0.0,0.0,0.0,0.0,0.0,0.0,0.0,0.0,0.0,0.0,0.0,0.0,0.0,0.0,0.0,0.0,0.0,0.0,0.0,0.0,0.0,0.0,0.0,0.0,0.0,0.0,0.0,0.0,0.0,0.0,0.0,0.0,0.0,0.0,0.0,0.0,0.0,0.0,0.0,0.0,0.0,0.0,0.0,0.0,0.0,0.0,0.0,0.0,0.0,0.0,0.0,0.0,0.0,0.0,0.0,0.0,0.0,0.0,0.0,0.0,5.7997,0.0,0.0,0.0,0.0,0.0,0.0,0.0,0.0,0.0,0.0,0.0,0.0,0.0,0.0,0.0,0.0,0.0,0.0,0.0,0.0,0.0,0.0,0.0,0.0,0.0,0.0,0.0,0.0,0.0,0.0,0.0,0.0,0.0,0.0,0.0,0.0,0.0,0.0,0.0,0.0,0.0,0.0,0.0,0.0,0.0,0.0,0.0,0.0,0.0,0.0,0.0,0.0,0.0,0.0,0.0,0.0,0.0,0.0,0.0,0.0,0.0,0.0,0.0,0.0,0.0,0.0,0.0,0.0,0.0,0.0,0.0,0.0,0.0,0.0,0.0,0.0,0.0,0.0,0.0,0.0,0.0,0.0,0.0,0.0,0.0,0.0,0.0,0.0,0.0,0.0,0.0,0.0,0.0,0.0,0.0,0.0,0.0,0.0,0.0,0.0,0.0,0.0,0.0,0.0,0.0,0.0,0.0,0.0,0.0,0.0,5.7997,5.7997,5.7997,5.7997,5.7997,0.0,0.0,0.0,0.0,0.0,0.0,0.0,0.0,0.0,0.0,0.0,0.0,0.0,0.0,0.0,0.0,0.0,0.0,0.0,0.0,0.0,0.0,0.0,0.0,0.0,0.0,0.0,0.0,0.0,0.0,0.0,0.0,0.0,0.0,0.0,0.0,0.0,0.0,0.0,0.0,0.0,0.0,0.0,0.0,0.0,0.0,0.0,0.0,0.0,0.0,0.0,0.0,0.0,0.0,0.0,0.0,0.0,0.0,0.0,0.0,0.0,0.0,0.0,0.0,0.0,0.0,0.0,0.0,0.0,0.0,0.0,0.0,0.0,0.0,0.0,0.0,0.0,0.0,0.0,0.0,0.0,0.0,0.0,0.0,0.0,0.0,0.0,0.0,0.0,0.0,0.0,0.0,0.0,0.0,0.0,0.0,0.0,0.0,0.0,0.0,0.0,0.0,0.0,0.0,0.0,0.0,0.0,0.0,0.0,0.0,0.0,0.0,5.7997,5.7997,5.7997,0.0,0.0,0.0,0.0,0.0,0.0,0.0,0.0,0.0,0.0,0.0,0.0,0.0,0.0,0.0,0.0,0.0,0.0,0.0,0.0,0.0,0.0,0.0,0.0,0.0,0.0,0.0,0.0,0.0,0.0,0.0,0.0,0.0,0.0,0.0,0.0,0.0,0.0,0.0,0.0,0.0,0.0,0.0,0.0,0.0,0.0,0.0,0.0,0.0,0.0,0.0,0.0,0.0,0.0,0.0,0.0,0.0,0.0,0.0,0.0,0.0,0.0,0.0,0.0,0.0,0.0,0.0,0.0,0.0,0.0,0.0,0.0,0.0,0.0,0.0,0.0,0.0,0.0,0.0,0.0,0.0,0.0,0.0,0.0,0.0,0.0,0.0,0.0,0.0,0.0,0.0,0.0,0.0,0.0,0.0,0.0,0.0,0.0,0.0,0.0,0.0,0.0,0.0,0.0,0.0,0.0,0.0,0.0,0.0,0.0,5.7997,5.7997,5.7997,0.0,5.7997,0.0,0.0,0.0,0.0,0.0,0.0,0.0,0.0,0.0,0.0,0.0,0.0,0.0,0.0,0.0,0.0,0.0,0.0,0.0,0.0,0.0,0.0,0.0,0.0,0.0,0.0,0.0,0.0,0.0,0.0,0.0,0.0,0.0,0.0,0.0,0.0,0.0,0.0,0.0,0.0,0.0,0.0,0.0,0.0,0.0,0.0,0.0,0.0,0.0,0.0,0.0,0.0,0.0,0.0,0.0,0.0,0.0,0.0,0.0,0.0,0.0,0.0,0.0,0.0,0.0,0.0,0.0,0.0,0.0,0.0,0.0,0.0,0.0,0.0,0.0,0.0,0.0,0.0,0.0,0.0,0.0,0.0,0.0,0.0,0.0,0.0,0.0,0.0,0.0,0.0,0.0,0.0,0.0,0.0,0.0,0.0,0.0,0.0,0.0,0.0,0.0,0.0,0.0,0.0,0.0,0.0,0.0,0.0,0.0,0.0,5.7997,5.7997,5.7997,5.7997,0.0,0.0,0.0,0.0,0.0,0.0,0.0,0.0,0.0,0.0,0.0,0.0,0.0,0.0,0.0,0.0,0.0,0.0,0.0,0.0,0.0,0.0,0.0,0.0,0.0,0.0,0.0,0.0,0.0,0.0,0.0,0.0,0.0,0.0,0.0,0.0,0.0,0.0,0.0,0.0,0.0,0.0,0.0,0.0,0.0,0.0,0.0,0.0,0.0,0.0,0.0,0.0,0.0,0.0,0.0,0.0,0.0,0.0,0.0,0.0,0.0,0.0,0.0,0.0,0.0,0.0,0.0,0.0,0.0,0.0,0.0,0.0,0.0,0.0,0.0,0.0,0.0,0.0,0.0,0.0,0.0,0.0,0.0,0.0,0.0,0.0,0.0,0.0,0.0,0.0,0.0,0.0,0.0,0.0,0.0,0.0,0.0,0.0,0.0,0.0,0.0,0.0,0.0,0.0,0.0,0.0,0.0,0.0,0.0,0.0,5.7997,5.7997,5.7997,5.7997,5.7997,5.7997,0.0,0.0,0.0,0.0,0.0,0.0,0.0,0.0,0.0,0.0,0.0,0.0,0.0,0.0,0.0,0.0,0.0,0.0,0.0,0.0,0.0,0.0,0.0,0.0,0.0,0.0,0.0,0.0,0.0,0.0,0.0,0.0,0.0,0.0,0.0,0.0,0.0,0.0,0.0,0.0,0.0,0.0,0.0,0.0,0.0,0.0,0.0,0.0,0.0,0.0,0.0,0.0,0.0,0.0,0.0,0.0,0.0,0.0,0.0,0.0,0.0,0.0,0.0,0.0,0.0,0.0,0.0,0.0,0.0,0.0,0.0,0.0,0.0,0.0,0.0,0.0,0.0,0.0,0.0,0.0,0.0,0.0,0.0,0.0,0.0,0.0,0.0,0.0,0.0,0.0,0.0,0.0,0.0,0.0,0.0,0.0,0.0,0.0,0.0,0.0,0.0,0.0,0.0,0.0,0.0,0.0,0.0,0.0,5.7997,5.7997,5.7997,5.7997,5.7997,5.7997,0.0,0.0,0.0,0.0,0.0,0.0,0.0,0.0,0.0,0.0,0.0,0.0,0.0,0.0,0.0,0.0,0.0,0.0,0.0,0.0,0.0,0.0,0.0,0.0,0.0,0.0,0.0,0.0,0.0,0.0,0.0,0.0,0.0,0.0,0.0,0.0,0.0,0.0,0.0,0.0,0.0,0.0,0.0,0.0,0.0,0.0,0.0,0.0,0.0,0.0,0.0,0.0,0.0,0.0,0.0,0.0,0.0,0.0,0.0,0.0,0.0,0.0,0.0,0.0,0.0,0.0,0.0,0.0,0.0,0.0,0.0,0.0,0.0,0.0,0.0,0.0,0.0,0.0,0.0,0.0,0.0,0.0,0.0,0.0,0.0,0.0,0.0,0.0,0.0,0.0,0.0,0.0,0.0,0.0,0.0,0.0,0.0,0.0,0.0,0.0,0.0,0.0,0.0,0.0,0.0,0.0,0.0,0.0,0.0,5.7997,5.7997,5.7997,5.7997,5.7997,5.7997,0.0,0.0,0.0,0.0,0.0,0.0,0.0,0.0,0.0,0.0,0.0,0.0,0.0,0.0,0.0,0.0,0.0,0.0,0.0,0.0,0.0,0.0,0.0,0.0,0.0,0.0,0.0,0.0,0.0,0.0,0.0,0.0,0.0,0.0,0.0,0.0,0.0,0.0,0.0,0.0,0.0,0.0,0.0,0.0,0.0,0.0,0.0,0.0,0.0,0.0,0.0,0.0,0.0,0.0,0.0,0.0,0.0,0.0,0.0,0.0,0.0,0.0,0.0,0.0,0.0,0.0,0.0,0.0,0.0,0.0,0.0,0.0,0.0,0.0,0.0,0.0,0.0,0.0,0.0,0.0,0.0,0.0,0.0,0.0,0.0,0.0,0.0,0.0,0.0,0.0,0.0,0.0,0.0,0.0,0.0,0.0,0.0,0.0,0.0,0.0,0.0,0.0,0.0,0.0,0.0,0.0,0.0,0.0,0.0,5.7997,0.0,5.7997,5.7997,5.7997,5.7997,0.0,0.0,0.0,0.0,0.0,0.0,0.0,0.0,0.0,0.0,0.0,0.0,0.0,0.0,0.0,0.0,0.0,0.0,0.0,0.0,0.0,0.0,0.0,0.0,0.0,0.0,0.0,0.0,0.0,0.0,0.0,0.0,0.0,0.0,0.0,0.0,0.0,0.0,0.0,0.0,0.0,0.0,0.0,0.0,0.0,0.0,0.0,0.0,0.0,0.0,0.0,0.0,0.0,0.0,0.0,0.0,0.0,0.0,0.0,0.0,0.0,0.0,0.0,0.0,0.0,0.0,0.0,0.0,0.0,0.0,0.0,0.0,0.0,0.0,0.0,0.0,0.0,0.0,0.0,0.0,0.0,0.0,0.0,0.0,0.0,0.0,0.0,0.0,0.0,0.0,0.0,0.0,0.0,0.0,0.0,0.0,0.0,0.0,0.0,0.0,0.0,0.0,0.0,0.0,0.0,0.0,0.0,0.0,5.7997,5.7997,5.7997,5.7997,5.7997,5.7997,5.7997,0.0,0.0,0.0,0.0,0.0,0.0,0.0,0.0,0.0,0.0,0.0,0.0,0.0,0.0,0.0,0.0,0.0,0.0,0.0,0.0,0.0,0.0,0.0,0.0,0.0,0.0,0.0,0.0,0.0,0.0,0.0,0.0,0.0,0.0,0.0,0.0,0.0,0.0,0.0,0.0,0.0,0.0,0.0,0.0,0.0,0.0,0.0,0.0,0.0,0.0,0.0,0.0,0.0,0.0,0.0,0.0,0.0,0.0,0.0,0.0,0.0,0.0,0.0,0.0,0.0,0.0,0.0,0.0,0.0,0.0,0.0,0.0,0.0,0.0,0.0,0.0,0.0,0.0,0.0,0.0,0.0,0.0,0.0,0.0,0.0,0.0,0.0,0.0,0.0,0.0,0.0,0.0,0.0,0.0,0.0,0.0,0.0,0.0,0.0,0.0,0.0,0.0,0.0,0.0,0.0,0.0,0.0,0.0,0.0,5.7997,5.7997,5.7997,5.7997,5.7997,5.7997,0.0,0.0,0.0,0.0,0.0,0.0,0.0,0.0,0.0,0.0,0.0,0.0,0.0,0.0,0.0,0.0,0.0,0.0,0.0,0.0,0.0,0.0,0.0,0.0,0.0,0.0,0.0,0.0,0.0,0.0,0.0,0.0,0.0,0.0,0.0,0.0,0.0,0.0,0.0,0.0,0.0,0.0,0.0,0.0,0.0,0.0,0.0,0.0,0.0,0.0,0.0,0.0,0.0,0.0,0.0,0.0,0.0,0.0,0.0,0.0,0.0,0.0,0.0,0.0,0.0,0.0,0.0,0.0,0.0,0.0,0.0,0.0,0.0,0.0,0.0,0.0,0.0,0.0,0.0,0.0,0.0,0.0,0.0,0.0,0.0,0.0,0.0,0.0,0.0,0.0,0.0,0.0,0.0,0.0,0.0,0.0,0.0,0.0,0.0,0.0,0.0,0.0,0.0,0.0,0.0,0.0,0.0,0.0,0.0,5.8437,5.8143,5.7997,5.7997,5.7997,5.7997,5.7997,0.0,0.0,0.0,0.0,0.0,0.0,0.0,0.0,0.0,0.0,0.0,0.0,0.0,0.0,0.0,0.0,0.0,0.0,0.0,0.0,0.0,0.0,0.0,0.0,0.0,0.0,0.0,0.0,0.0,0.0,0.0,0.0,0.0,0.0,0.0,0.0,0.0,0.0,0.0,0.0,0.0,0.0,0.0,0.0,0.0,0.0,0.0,0.0,0.0,0.0,0.0,0.0,0.0,0.0,0.0,0.0,0.0,0.0,0.0,0.0,0.0,0.0,0.0,0.0,0.0,0.0,0.0,0.0,0.0,0.0,0.0,0.0,0.0,0.0,0.0,0.0,0.0,0.0,0.0,0.0,0.0,0.0,0.0,0.0,0.0,0.0,0.0,0.0,0.0,0.0,0.0,0.0,0.0,0.0,0.0,0.0,0.0,0.0,0.0,0.0,0.0,0.0,0.0,0.0,0.0,0.0,0.0,0.0,5.9281,5.851,5.8107,5.807,5.807,5.8033,0.0,0.0,0.0,0.0,0.0,0.0,0.0,0.0,0.0,0.0,0.0,0.0,0.0,0.0,0.0,0.0,0.0,0.0,0.0,0.0,0.0,0.0,0.0,0.0,0.0,0.0,0.0,0.0,0.0,0.0,0.0,0.0,0.0,0.0,0.0,0.0,0.0,0.0,0.0,0.0,0.0,0.0,0.0,0.0,0.0,0.0,0.0,0.0,0.0,0.0,0.0,0.0,0.0,0.0,0.0,0.0,0.0,0.0,0.0,0.0,0.0,0.0,0.0,0.0,0.0,0.0,0.0,0.0,0.0,0.0,0.0,0.0,0.0,0.0,0.0,0.0,0.0,0.0,0.0,0.0,0.0,0.0,0.0,0.0,0.0,0.0,0.0,0.0,0.0,0.0,0.0,0.0,0.0,0.0,0.0,0.0,0.0,0.0,0.0,0.0,0.0,0.0,0.0,0.0,0.0,0.0,0.0,0.0,0.0,6.0052,5.9869,5.9501,5.8914,5.8914,5.8621,0.0,0.0,0.0,0.0,0.0,0.0,0.0,0.0,0.0,0.0,0.0,0.0,0.0,0.0,0.0,0.0,0.0,0.0,0.0,0.0,0.0,0.0,0.0,0.0,0.0,0.0,0.0,0.0,0.0,0.0,0.0,0.0,0.0,0.0,0.0,0.0,0.0,0.0,0.0,0.0,0.0,0.0,0.0,0.0,0.0,0.0,0.0,0.0,0.0,0.0,0.0,0.0,0.0,0.0,0.0,0.0,0.0,0.0,0.0,0.0,0.0,0.0,0.0,0.0,0.0,0.0,0.0,0.0,0.0,0.0,0.0,0.0,0.0,0.0,0.0,0.0,0.0,0.0,0.0,0.0,0.0,0.0,0.0,0.0,0.0,0.0,0.0,0.0,0.0,0.0,0.0,0.0,0.0,0.0,0.0,0.0,0.0,0.0,0.0,0.0,0.0,0.0,0.0,0.0,0.0,0.0,0.0,0.0,6.0089,6.0896,6.1227,6.1043,6.0236,5.9575,5.8988,0.0,0.0,0.0,0.0,0.0,0.0,0.0,0.0,0.0,0.0,0.0,0.0,0.0,0.0,0.0,0.0,0.0,0.0,0.0,0.0,0.0,0.0,0.0,0.0,0.0,0.0,0.0,0.0,0.0,0.0,0.0,0.0,0.0,0.0,0.0,0.0,0.0,0.0,0.0,0.0,0.0,0.0,0.0,0.0,0.0,0.0,0.0,0.0,0.0,0.0,0.0,0.0,0.0,0.0,0.0,0.0,0.0,0.0,0.0,0.0,0.0,0.0,0.0,0.0,0.0,0.0,0.0,0.0,0.0,0.0,0.0,0.0,0.0,0.0,0.0,0.0,0.0,0.0,0.0,0.0,0.0,0.0,0.0,0.0,0.0,0.0,0.0,0.0,0.0,0.0,0.0,0.0,0.0,0.0,0.0,0.0,0.0,0.0,0.0,0.0,0.0,0.0,0.0,0.0,0.0,0.0,0.0,0.0,6.0933,6.1704,6.2438,6.2475,6.1704,6.0272,5.9428,0.0,0.0,0.0,0.0,0.0,0.0,0.0,0.0,0.0,0.0,0.0,0.0,0.0,0.0,0.0,0.0,0.0,0.0,0.0,0.0,0.0,0.0,0.0,0.0,0.0,0.0,0.0,0.0,0.0,0.0,0.0,0.0,0.0,0.0,0.0,0.0,0.0,0.0,0.0,0.0,0.0,0.0,0.0,0.0,0.0,0.0,0.0,0.0,0.0,0.0,0.0,0.0,0.0,0.0,0.0,0.0,0.0,0.0,0.0,0.0,0.0,0.0,0.0,0.0,0.0,0.0,0.0,0.0,0.0,0.0,0.0,0.0,0.0,0.0,0.0,0.0,0.0,0.0,0.0,0.0,0.0,0.0,0.0,0.0,0.0,0.0,0.0,0.0,0.0,0.0,0.0,0.0,0.0,0.0,0.0,0.0,0.0,0.0,0.0,0.0,0.0,0.0,0.0,0.0,0.0,0.0,0.0,0.0,6.1741,6.2511,6.2732,6.2732,6.2548,6.1594,6.0786,0.0,0.0,0.0,0.0,0.0,0.0,0.0,0.0,0.0,0.0,0.0,0.0,0.0,0.0,0.0,0.0,0.0,0.0,0.0,0.0,0.0,0.0,0.0,0.0,0.0,0.0,0.0,0.0,0.0,0.0,0.0,0.0,0.0,0.0,0.0,0.0,0.0,0.0,0.0,0.0,0.0,0.0,0.0,0.0,0.0,0.0,0.0,0.0,6.2805,0.0,0.0,0.0,0.0,0.0,0.0,0.0,0.0,0.0,0.0,0.0,0.0,0.0,0.0,0.0,0.0,0.0,0.0,0.0,0.0,0.0,0.0,0.0,0.0,0.0,0.0,0.0,0.0,0.0,0.0,0.0,0.0,0.0,0.0,0.0,0.0,0.0,0.0,0.0,0.0,0.0,0.0,0.0,0.0,0.0,0.0,0.0,0.0,0.0,0.0,0.0,0.0,0.0,0.0,0.0,0.0,0.0,0.0,0.0,6.2181,6.3356,6.3429,6.3392,6.3392,6.2989,6.2218,0.0,0.0,0.0,0.0,0.0,0.0,0.0,0.0,0.0,0.0,0.0,0.0,0.0,0.0,0.0,0.0,0.0,0.0,0.0,0.0,0.0,0.0,0.0,0.0,0.0,0.0,0.0,0.0,0.0,0.0,0.0,0.0,0.0,0.0,0.0,0.0,0.0,0.0,0.0,0.0,0.0,0.0,0.0,0.0,0.0,0.0,0.0,0.0,0.0,0.0,0.0,0.0,0.0,0.0,0.0,0.0,0.0,0.0,0.0,0.0,0.0,0.0,0.0,0.0,0.0,0.0,0.0,0.0,0.0,0.0,0.0,0.0,0.0,0.0,0.0,0.0,0.0,0.0,0.0,0.0,0.0,0.0,0.0,0.0,0.0,0.0,0.0,0.0,0.0,0.0,0.0,0.0,0.0,0.0,0.0,0.0,0.0,0.0,0.0,0.0,0.0,0.0,0.0,0.0,0.0,0.0,0.0,6.1532,6.2658,6.4016,6.4237,6.4273,6.4273,6.4163,6.3429,6.2034,0.0,0.0,0.0,0.0,0.0,0.0,0.0,0.0,0.0,0.0,0.0,0.0,0.0,0.0,0.0,0.0,0.0,0.0,0.0,0.0,0.0,0.0,0.0,0.0,0.0,0.0,0.0,0.0,0.0,0.0,0.0,0.0,0.0,0.0,0.0,0.0,0.0,0.0,6.2805,6.2805,0.0,0.0,0.0,0.0,0.0,0.0,0.0,0.0,6.2805,0.0,0.0,0.0,0.0,0.0,0.0,0.0,0.0,0.0,0.0,0.0,0.0,0.0,0.0,0.0,0.0,0.0,0.0,0.0,0.0,0.0,0.0,0.0,0.0,0.0,0.0,0.0,0.0,0.0,0.0,0.0,0.0,0.0,0.0,0.0,0.0,0.0,0.0,0.0,0.0,0.0,0.0,0.0,0.0,0.0,0.0,0.0,0.0,0.0,0.0,0.0,0.0,0.0,0.0,0.0,0.0,6.1555,6.299,6.3897,6.409,6.4751,6.5118,6.5081,6.4457,6.398,6.3649,0.0,0.0,0.0,0.0,0.0,0.0,0.0,0.0,0.0,0.0,0.0,0.0,0.0,0.0,0.0,0.0,0.0,0.0,0.0,0.0,0.0,0.0,0.0,0.0,0.0,0.0,0.0,0.0,0.0,0.0,0.0,0.0,0.0,0.0,0.0,0.0,0.0,0.0,0.0,6.2805,6.2805,0.0,0.0,0.0,0.0,0.0,0.0,0.0,0.0,6.2805,0.0,0.0,0.0,0.0,0.0,0.0,0.0,0.0,0.0,0.0,0.0,0.0,0.0,0.0,0.0,0.0,0.0,0.0,0.0,0.0,0.0,0.0,0.0,0.0,0.0,0.0,0.0,0.0,0.0,0.0,0.0,0.0,0.0,0.0,0.0,0.0,0.0,0.0,0.0,0.0,0.0,0.0,0.0,0.0,0.0,0.0,0.0,0.0,0.0,0.0,0.0,0.0,0.0,0.0,0.0,6.245,6.3628,6.4559,6.5301,6.5742,6.5925,6.5925,6.5154,6.453,0.0,0.0,0.0,0.0,0.0,0.0,0.0,0.0,0.0,0.0,0.0,0.0,0.0,0.0,0.0,0.0,0.0,0.0,0.0,0.0,0.0,0.0,0.0,0.0,0.0,0.0,0.0,0.0,0.0,0.0,0.0,0.0,0.0,0.0,0.0,0.0,0.0,0.0,0.0,0.0,6.2805,6.2805,6.2805,0.0,0.0,0.0,0.0,0.0,0.0,6.2805,6.2805,0.0,0.0,0.0,0.0,0.0,0.0,0.0,0.0,0.0,0.0,0.0,0.0,0.0,0.0,0.0,0.0,0.0,0.0,0.0,0.0,0.0,0.0,0.0,0.0,0.0,0.0,0.0,0.0,0.0,0.0,0.0,0.0,0.0,0.0,0.0,0.0,0.0,0.0,0.0,0.0,0.0,0.0,0.0,0.0,0.0,0.0,0.0,0.0,0.0,0.0,0.0,0.0,0.0,0.0,0.0,6.3309,6.4267,6.5308,6.6439,6.6659,6.6733,6.6733,6.5815,6.5007,0.0,0.0,0.0,0.0,0.0,0.0,0.0,0.0,0.0,0.0,0.0,0.0,0.0,0.0,0.0,0.0,0.0,0.0,0.0,0.0,0.0,0.0,0.0,0.0,0.0,0.0,0.0,0.0,0.0,0.0,0.0,0.0,0.0,0.0,0.0,0.0,0.0,0.0,0.0,0.0,0.0,6.2805,6.2805,6.2952,0.0,0.0,0.0,0.0,6.3062,6.2915,0.0,0.0,0.0,0.0,0.0,0.0,0.0,0.0,0.0,0.0,0.0,0.0,0.0,0.0,0.0,0.0,0.0,0.0,0.0,0.0,0.0,0.0,0.0,0.0,0.0,0.0,0.0,0.0,0.0,0.0,0.0,0.0,0.0,0.0,0.0,0.0,0.0,0.0,0.0,0.0,0.0,0.0,0.0,0.0,0.0,0.0,0.0,0.0,0.0,0.0,0.0,0.0,0.0,0.0,0.0,0.0,6.4302,6.5817,6.6551,6.6512,6.7173,6.754,6.754,6.6109,6.5264,0.0,0.0,0.0,0.0,0.0,0.0,0.0,0.0,0.0,0.0,0.0,0.0,0.0,0.0,0.0,0.0,0.0,0.0,0.0,0.0,0.0,0.0,0.0,0.0,0.0,0.0,0.0,0.0,0.0,0.0,0.0,0.0,0.0,0.0,0.0,0.0,0.0,0.0,0.0,0.0,0.0,6.2805,6.2805,6.3466,6.3943,0.0,0.0,6.3943,6.3943,6.3319,0.0,0.0,0.0,0.0,0.0,0.0,0.0,0.0,0.0,0.0,0.0,0.0,0.0,0.0,0.0,0.0,0.0,0.0,0.0,0.0,0.0,0.0,0.0,0.0,0.0,0.0,0.0,0.0,0.0,0.0,0.0,0.0,0.0,0.0,0.0,0.0,0.0,0.0,0.0,0.0,0.0,0.0,0.0,0.0,0.0,0.0,0.0,0.0,0.0,0.0,0.0,0.0,0.0,0.0,0.0,6.4633,6.5078,6.6297,6.7008,6.7173,6.7504,6.7687,6.7687,6.6586,6.5778,0.0,0.0,0.0,0.0,0.0,0.0,0.0,0.0,0.0,0.0,0.0,0.0,0.0,0.0,0.0,0.0,0.0,0.0,0.0,0.0,0.0,0.0,0.0,0.0,0.0,0.0,0.0,0.0,0.0,0.0,0.0,0.0,0.0,0.0,0.0,0.0,0.0,0.0,0.0,0.0,0.0,0.0,6.3466,6.387,0.0,0.0,0.0,6.464,6.4163,0.0,0.0,0.0,0.0,0.0,0.0,0.0,0.0,0.0,0.0,0.0,0.0,0.0,0.0,0.0,0.0,0.0,0.0,0.0,0.0,0.0,0.0,0.0,0.0,0.0,0.0,0.0,0.0,0.0,0.0,0.0,0.0,0.0,0.0,0.0,0.0,0.0,0.0,0.0,0.0,0.0,0.0,0.0,0.0,0.0,0.0,0.0,0.0,0.0,0.0,0.0,0.0,0.0,0.0,0.0,0.0,0.0,6.5595,6.6629,6.7377,6.7704,6.7687,6.7687,6.765,6.6916,0.0,0.0,0.0,0.0,0.0,0.0,0.0,0.0,0.0,0.0,0.0,0.0,0.0,0.0,0.0,0.0,0.0,0.0,0.0,0.0,0.0,0.0,0.0,0.0,0.0,0.0,0.0,6.2805,0.0,0.0,0.0,0.0,0.0,0.0,0.0,0.0,0.0,0.0,0.0,0.0,0.0,0.0,6.3135,6.398,6.4273,6.4677,0.0,0.0,6.5411,6.4787,6.453,6.4163,0.0,0.0,0.0,0.0,0.0,0.0,0.0,0.0,0.0,0.0,0.0,0.0,0.0,0.0,0.0,0.0,0.0,0.0,0.0,0.0,0.0,0.0,0.0,0.0,0.0,0.0,0.0,0.0,0.0,0.0,0.0,0.0,0.0,0.0,0.0,0.0,0.0,0.0,0.0,0.0,0.0,0.0,0.0,0.0,0.0,0.0,0.0,0.0,0.0,0.0,0.0,0.0,0.0,0.0,0.0,6.5669,6.7183,6.793,6.7687,6.7687,6.7687,6.7687,6.6916,6.6476,0.0,0.0,0.0,0.0,0.0,0.0,0.0,0.0,0.0,0.0,0.0,0.0,0.0,0.0,0.0,0.0,0.0,0.0,0.0,0.0,0.0,0.0,0.0,0.0,0.0,0.0,0.0,0.0,0.0,0.0,0.0,0.0,0.0,0.0,0.0,0.0,0.0,0.0,0.0,0.0,0.0,6.3099,6.398,6.4751,6.5521,0.0,0.0,6.6402,6.6329,6.5705,6.5228,6.5154,0.0,0.0,0.0,0.0,0.0,0.0,0.0,0.0,0.0,0.0,0.0,0.0,0.0,0.0,0.0,0.0,0.0,0.0,0.0,0.0,0.0,0.0,0.0,0.0,0.0,0.0,0.0,0.0,0.0,0.0,0.0,0.0,0.0,0.0,0.0,0.0,0.0,0.0,0.0,0.0,0.0,0.0,0.0,0.0,0.0,0.0,0.0,0.0,0.0,0.0,0.0,0.0,0.0,6.637,6.6408,6.7516,6.8004,6.7741,6.7687,6.7687,6.7687,6.7393,6.699,0.0,0.0,0.0,0.0,0.0,0.0,0.0,0.0,0.0,0.0,0.0,0.0,0.0,0.0,0.0,0.0,0.0,0.0,0.0,0.0,0.0,0.0,0.0,0.0,0.0,0.0,0.0,0.0,6.2805,6.2805,6.2805,0.0,0.0,0.0,0.0,0.0,0.0,0.0,0.0,0.0,0.0,6.3135,6.398,6.4787,0.0,0.0,6.6916,6.7063,6.6586,6.6219,6.5888,6.5375,6.5338,0.0,0.0,0.0,0.0,0.0,0.0,0.0,0.0,0.0,0.0,0.0,0.0,0.0,0.0,0.0,0.0,0.0,0.0,0.0,0.0,0.0,0.0,0.0,0.0,0.0,0.0,0.0,0.0,0.0,0.0,0.0,0.0,0.0,0.0,0.0,0.0,0.0,0.0,0.0,0.0,0.0,0.0,0.0,0.0,0.0,0.0,0.0,0.0,0.0,0.0,0.0,0.0,6.6556,6.6888,6.7613,6.7952,6.7687,6.7687,6.7687,6.7687,6.7687,6.743,0.0,0.0,0.0,0.0,0.0,0.0,0.0,0.0,0.0,0.0,0.0,0.0,0.0,0.0,0.0,0.0,0.0,0.0,0.0,0.0,0.0,0.0,0.0,0.0,0.0,0.0,0.0,0.0,6.2805,6.2805,6.2805,0.0,0.0,0.0,0.0,0.0,0.0,0.0,0.0,0.0,0.0,6.3209,6.431,6.4934,6.5668,6.6696,6.732,6.7504,6.6953,6.6843,6.6659,6.6109,0.0,0.0,0.0,0.0,0.0,0.0,0.0,0.0,0.0,0.0,0.0,0.0,0.0,0.0,0.0,0.0,0.0,0.0,0.0,0.0,0.0,0.0,0.0,0.0,0.0,0.0,0.0,0.0,0.0,0.0,6.2127,0.0,0.0,0.0,0.0,0.0,0.0,0.0,0.0,0.0,0.0,0.0,0.0,0.0,0.0,0.0,0.0,0.0,0.0,0.0,0.0,0.0,0.0,6.6425,6.6888,6.7598,6.7847,6.7687,6.7687,6.7687,6.7687,6.7687,6.765,6.7614,0.0,0.0,0.0,0.0,0.0,0.0,0.0,0.0,0.0,0.0,0.0,0.0,0.0,0.0,0.0,0.0,0.0,0.0,0.0,0.0,0.0,0.0,0.0,0.0,0.0,0.0,6.2805,6.2805,6.2805,0.0,0.0,0.0,0.0,0.0,0.0,0.0,0.0,0.0,0.0,6.2842,6.3429,6.5044,6.5301,6.5888,6.7393,6.765,6.7687,6.765,6.765,6.765,0.0,0.0,0.0,0.0,0.0,0.0,0.0,0.0,0.0,0.0,0.0,0.0,0.0,0.0,0.0,0.0,0.0,0.0,0.0,0.0,0.0,0.0,0.0,0.0,0.0,0.0,0.0,6.2324,6.2388,0.0,0.0,0.0,0.0,0.0,0.0,0.0,0.0,0.0,0.0,0.0,6.6836,6.6663,0.0,0.0,0.0,0.0,0.0,0.0,0.0,0.0,0.0,0.0,0.0,0.0,6.6685,6.7627,6.7856,6.7847,6.7687,6.7687,6.7687,6.7687,6.7687,6.7687,6.7687,0.0,0.0,0.0,0.0,0.0,0.0,0.0,0.0,0.0,0.0,0.0,0.0,0.0,0.0,0.0,0.0,0.0,0.0,0.0,0.0,0.0,0.0,0.0,0.0,0.0,6.2805,0.0,0.0,0.0,0.0,0.0,0.0,0.0,0.0,0.0,0.0,0.0,6.3649,6.3649,6.4127,6.4677,6.5228,6.5742,6.6292,0.0,0.0,0.0,0.0,0.0,0.0,0.0,0.0,0.0,0.0,0.0,0.0,0.0,0.0,6.8311,6.7797,6.7687,6.7944,6.8752,0.0,0.0,0.0,0.0,0.0,0.0,0.0,0.0,0.0,0.0,0.0,0.0,0.0,0.0,6.3115,0.0,6.3475,0.0,0.0,0.0,0.0,0.0,0.0,0.0,0.0,6.7126,6.7337,6.7707,6.7569,6.7426,0.0,6.7203,6.656,0.0,0.0,0.0,0.0,0.0,0.0,0.0,0.0,6.7046,6.8033,6.7952,6.7794,6.7687,6.7687,6.7687,6.7687,6.7687,6.7687,6.7687,6.721,6.6806,0.0,0.0,0.0,0.0,0.0,0.0,0.0,0.0,0.0,0.0,0.0,0.0,0.0,0.0,0.0,0.0,0.0,0.0,0.0,0.0,0.0,0.0,0.0,6.2805,0.0,0.0,0.0,0.0,0.0,0.0,0.0,0.0,0.0,6.3246,6.3759,6.42,6.4494,6.4971,6.5411,6.5705,0.0,0.0,0.0,0.0,0.0,0.0,0.0,6.8091,6.8091,6.8788,6.9302,6.9339,6.9743,7.011,7.011,0.0,0.0,6.9412,6.9339,6.9486,7.0,7.011,7.011,7.011,7.011,7.011,0.0,0.0,0.0,0.0,0.0,0.0,0.0,0.0,6.3176,6.3242,0.0,6.4151,0.0,0.0,0.0,0.0,0.0,6.6795,0.0,0.0,6.7935,6.7942,6.7883,6.7821,6.7683,6.7466,6.7392,6.7354,6.7241,6.6484,0.0,0.0,0.0,0.0,0.0,0.0,6.7506,6.807,6.7847,6.7687,6.7687,6.7687,6.7687,6.7687,6.7687,6.7687,6.7687,6.765,6.732,6.6586,6.6512,0.0,0.0,0.0,0.0,0.0,0.0,0.0,0.0,0.0,0.0,0.0,0.0,0.0,0.0,0.0,0.0,0.0,0.0,0.0,0.0,6.2879,0.0,0.0,0.0,0.0,0.0,0.0,0.0,0.0,0.0,0.0,6.42,6.42,6.4457,6.5264,0.0,0.0,0.0,0.0,6.6806,6.7614,6.7724,6.776,6.7797,6.8421,6.8935,6.8898,0.0,0.0,7.0183,7.0183,7.022,7.0183,7.0257,7.0183,7.022,7.0183,7.0183,7.022,7.0293,7.0183,7.0183,7.033,7.0293,6.3125,0.0,0.0,0.0,0.0,6.4139,6.4502,6.4627,6.4657,6.5031,6.5665,6.5992,0.0,0.0,0.0,0.0,0.0,0.0,6.8043,6.8814,6.8814,6.9126,6.9599,6.9565,6.9497,6.9391,6.9355,6.9319,6.917,6.8411,6.7543,6.6747,0.0,0.0,0.0,0.0,6.7603,6.8033,6.7915,6.7794,6.7687,6.7687,6.7687,6.7687,6.7687,6.7687,6.7687,6.7687,6.7577,6.7357,6.6806,0.0,0.0,0.0,0.0,0.0,0.0,0.0,0.0,0.0,0.0,0.0,0.0,0.0,0.0,0.0,0.0,0.0,0.0,0.0,6.3686,6.4237,6.4347,0.0,0.0,0.0,0.0,0.0,0.0,0.0,0.0,0.0,6.5742,6.5815,6.5888,0.0,0.0,6.71,6.732,6.732,6.7614,6.8421,6.8568,0.0,6.9339,6.9596,6.9559,6.9009,6.9559,7.0477,7.1615,7.1798,7.1798,7.1798,7.1798,7.1798,7.1762,7.1321,7.1211,7.1651,7.1798,7.1798,7.1835,7.1835,7.1835,6.4533,6.3955,6.4293,6.4668,6.5042,6.5682,6.6049,6.6216,6.6249,6.6618,6.7171,6.7233,6.75,6.7897,6.7959,0.0,0.0,0.0,6.8852,6.9655,6.9725,6.9993,7.0386,7.0419,7.0386,7.0289,7.0289,7.022,7.0076,6.9545,6.8905,6.8223,0.0,0.0,6.7614,6.7812,6.7996,6.8171,6.8004,6.7994,6.8272,6.8549,6.8495,6.8164,6.8164,6.8017,6.7687,6.7687,6.7687,6.7687,6.7247,6.6806,0.0,0.0,0.0,0.0,0.0,0.0,0.0,0.0,0.0,0.0,0.0,6.2805,0.0,0.0,0.0,0.0,6.3613,6.4016,6.453,6.5007,0.0,0.0,0.0,0.0,0.0,0.0,0.0,6.5742,6.5778,6.6072,6.688,6.7247,6.732,6.7026,6.765,6.8164,6.8164,0.0,6.8715,6.8898,6.9192,6.9449,6.9596,7.0146,7.0513,7.0367,7.0734,7.1321,7.2275,7.2753,7.2973,7.301,7.323,7.345,7.345,7.3046,7.2753,7.2936,7.323,7.345,7.345,7.345,7.345,6.6304,6.6456,6.6049,6.6249,6.7011,6.7241,6.7463,6.7601,6.7707,6.7839,6.7973,6.8012,6.8012,6.8088,6.8088,0.0,6.9311,6.9311,6.9693,7.0451,7.0554,7.0623,7.0623,7.0678,7.0578,7.0419,7.0419,7.0319,7.0185,7.0076,6.9966,6.9854,6.8903,6.8165,6.7808,6.8381,6.8565,6.8309,6.8055,6.8268,6.9024,6.9688,6.9669,6.8935,6.8862,6.8458,6.7724,6.7687,6.7687,6.7687,6.7687,6.7357,6.6623,0.0,0.0,0.0,0.0,0.0,0.0,0.0,0.0,0.0,0.0,0.0,0.0,0.0,0.0,0.0,6.4934,0.0,6.5411,6.5485,0.0,0.0,0.0,6.5485,6.5411,6.5521,6.5888,6.6586,0.0,0.0,6.776,6.8531,6.8715,6.7981,6.8531,6.8972,6.8935,6.9559,6.9816,6.9155,6.9706,6.9963,6.9633,7.055,7.1615,7.2165,7.2569,7.2569,7.2679,7.3266,7.3744,7.3817,7.4404,7.4882,7.4882,7.4808,7.4771,7.4037,7.4404,7.4882,7.4808,7.4771,7.4771,6.65,6.7077,6.7075,6.6961,6.6808,6.6849,6.7088,6.7463,6.7498,6.7946,6.8655,6.8655,6.9032,6.9747,6.9747,6.9928,7.0286,7.0286,7.0394,7.0609,7.0678,7.0678,7.0678,7.0669,7.0647,7.0554,7.0554,7.0457,7.0289,7.0217,7.0111,6.9891,6.9664,6.9277,6.886,6.8915,6.88,6.8457,6.8171,6.832,6.8916,6.9082,6.9119,6.8898,6.8311,6.7871,6.7687,6.7687,6.7687,6.7687,6.7687,6.7577,6.7393,6.6659,0.0,0.0,0.0,0.0,0.0,0.0,0.0,0.0,0.0,6.3796,6.3796,0.0,6.5007,0.0,6.5742,6.6219,6.6219,6.6769,0.0,0.0,6.6769,6.688,6.6292,6.732,6.8128,6.8311,6.8862,6.9302,6.9486,6.9706,6.9743,6.9559,6.9669,6.9596,6.9045,6.9596,7.0036,6.9926,7.0513,7.1174,7.1505,7.1945,7.2275,7.2459,7.301,7.3413,7.3413,7.4074,7.4625,7.4625,7.4771,7.4918,7.4918,7.5395,7.5726,7.5542,7.5212,7.4918,7.4918,7.4918,7.4918,6.756,6.798,6.8111,6.8002,6.7814,6.7856,6.8063,6.8414,6.8526,6.8901,6.95,6.9497,6.9832,7.0353,7.0353,7.0457,7.0585,7.0585,7.0616,7.0708,7.0767,7.0729,7.0729,7.0758,7.0729,7.0647,7.0647,7.0554,7.0391,7.0705,7.0826,7.0647,7.0611,7.0612,7.0595,6.9584,6.9087,6.9123,6.948,6.9811,7.0073,7.0386,7.033,6.9963,6.9559,6.8972,6.8238,6.8238,6.8091,6.7687,6.7687,6.7687,6.765,6.6916,6.6512,0.0,0.0,0.0,0.0,0.0,0.0,0.0,0.0,0.0,0.0,0.0,6.5962,6.6329,6.6769,6.7026,6.7026,6.776,6.8054,6.7614,6.8274,6.8568,6.8128,6.8898,6.9412,6.9449,6.9816,7.011,7.011,7.0403,7.0624,7.0624,7.0954,7.0881,7.022,7.066,7.1064,7.0734,7.1321,7.1982,7.2459,7.2532,7.2532,7.2532,7.2863,7.3156,7.3193,7.3817,7.4368,7.4404,7.4955,7.5469,7.5469,7.6093,7.6644,7.657,7.6313,7.6019,7.5983,7.5983,7.5983,6.88,6.8884,6.8884,6.9027,6.9246,6.9374,6.9539,6.9738,6.9929,7.0076,7.0185,7.0289,7.0319,7.0386,7.0386,7.049,7.0585,7.0585,7.0647,7.0737,7.0796,7.0787,7.0787,7.0843,7.0787,7.0708,7.0784,7.0731,7.061,7.1384,7.1773,7.1773,7.1665,7.1863,7.2318,7.0516,6.9709,7.0027,7.1124,7.1672,7.1508,7.2039,7.2018,7.1358,7.1211,7.0513,6.9119,6.9045,6.8752,6.8054,6.7981,6.8017,6.7981,6.7357,6.6953,0.0,6.6219,0.0,0.0,0.0,0.0,0.0,0.0,0.0,0.0,6.6292,6.71,6.7797,6.7944,6.7981,6.7981,6.8641,6.9045,6.9082,6.9669,7.011,7.0073,7.0183,7.0257,7.0257,7.033,7.0403,7.0477,7.1027,7.1468,7.1651,7.2055,7.2165,7.1798,7.2055,7.2092,7.1431,7.1982,7.2459,7.2532,7.2606,7.2679,7.2569,7.2973,7.2899,7.2973,7.3707,7.4258,7.4404,7.5542,7.6423,7.6423,7.7121,7.7635,7.7708,7.7671,7.7598,7.7451,7.7414,7.7524,6.8929,6.8945,6.8945,6.9166,6.946,6.9582,6.9699,6.9891,6.9966,7.0076,7.0185,7.022,7.0255,7.0319,7.0319,7.0424,7.0585,7.0585,7.0678,7.0758,7.0767,7.0729,7.0787,7.0729,7.0708,7.0654,7.1267,7.1548,7.145,7.2329,7.2681,7.2574,7.2536,7.2505,7.2472,0.0,0.0,0.0,7.1472,7.1743,7.1508,7.1488,7.1468,7.1284,7.066,0.0,6.9889,6.9853,6.9816,6.9633,6.9633,0.0,0.0,0.0,0.0,0.0,0.0,0.0,0.0,0.0,0.0,0.0,6.9192,6.8385,6.6512,6.7614,6.8531,6.8678,6.9265,6.9633,6.9633,6.9779,6.9853,6.9889,7.0,7.011,7.011,7.0697,7.1064,7.1101,7.1651,7.2055,7.2055,7.2202,7.2532,7.3046,7.2826,7.2753,7.312,7.2753,7.2202,7.1541,7.2018,7.2496,7.2532,7.3046,7.3193,7.2899,7.4258,7.4992,7.4661,7.5616,7.657,7.657,7.7451,7.8075,7.8075,7.8772,7.9213,7.9286,7.9286,7.914,7.8479,7.8369,7.8516,6.9116,0.0,6.9289,6.9416,0.0,6.9738,6.9891,7.0041,7.0077,7.0149,7.0255,7.0255,7.0289,7.0353,7.0353,7.0457,7.0585,7.0585,7.0647,7.0729,7.0699,7.0699,7.0729,7.0699,7.0907,7.1298,7.172,7.1842,7.1886,7.269,7.2849,7.2357,7.2324,7.2452,7.2655,7.2472,7.1949,7.1179,7.1751,7.1664,7.1028,7.0864,7.0753,7.0697,0.0,0.0,0.0,0.0,0.0,0.0,0.0,0.0,0.0,0.0,0.0,7.0073,6.9706,6.9669,7.0036,6.9743,6.9669,7.0073,7.011,6.9596,6.8348,6.9045,6.9486,6.9522,6.9853,7.011,7.011,7.0477,7.0697,7.0697,7.1064,7.1284,7.1321,7.1651,7.2055,7.2422,7.2826,7.323,7.3634,7.367,7.3634,7.367,7.3377,7.3083,7.3046,7.2753,7.2312,7.1945,7.2202,7.2642,7.3046,7.3377,7.3964,7.4294,7.5285,7.6019,7.613,7.679,7.7341,7.7378,7.8038,7.8589,7.8662,7.925,7.98,7.98,7.98,7.9837,7.9727,7.947,7.9286,6.9332,6.9416,6.9577,6.9697,6.9777,6.9929,7.0077,7.022,0.0,0.0,0.0,7.0324,7.0319,7.0386,7.0419,7.0451,7.0554,7.0554,7.0616,7.0678,7.0678,7.0716,7.0869,7.0869,7.1252,7.1942,7.2134,7.2096,7.205,7.2778,7.2855,7.2203,7.2218,7.2696,7.3514,7.3345,7.2872,7.2124,7.2261,7.1947,7.1041,7.1102,7.1048,7.0826,7.1394,7.1358,7.0587,7.1027,7.0991,7.0367,7.0183,7.022,7.0513,7.0513,7.066,7.0917,7.0807,7.077,7.0917,7.0807,7.0734,7.0734,7.0734,7.055,7.0146,7.022,7.033,7.033,7.044,7.0587,7.0734,7.1321,7.1798,7.1945,7.2532,7.2936,7.2936,7.2936,7.323,7.378,7.3744,7.3927,7.4478,7.4441,7.4331,7.3817,7.3634,7.367,7.3193,7.301,7.2789,7.2753,7.312,7.3487,7.3964,7.4404,7.4845,7.5983,7.6387,7.679,7.7341,7.7671,7.7745,7.7892,7.8442,7.8919,7.8919,7.9507,7.991,7.98,7.98,7.9984,8.0534,8.0277,7.991,6.9453,6.9577,6.9776,6.9967,7.0149,7.0182,7.0286,7.0353,7.0286,7.0286,7.0324,7.0324,7.0324,7.0319,7.0386,7.0419,7.0419,7.0419,7.0483,7.0585,7.0483,7.0866,7.1619,7.1593,7.1663,7.1848,7.2576,7.2601,7.2088,7.2778,7.3123,7.3123,7.3744,7.4752,7.6112,7.6579,7.5959,7.4304,7.3719,7.3317,7.306,7.4016,7.4159,7.3476,7.3324,7.2973,7.2202,7.1615,7.1248,7.1138,7.0477,7.0697,7.2055,7.2165,7.2789,7.4037,7.356,7.3487,7.4147,7.3597,7.3193,7.3193,7.3193,7.2312,7.033,7.0734,7.1174,7.1174,7.1798,7.2459,7.3083,7.323,7.356,7.4221,7.4478,7.4588,7.4441,7.4441,7.4441,7.4588,7.4111,7.3707,7.3927,7.345,7.3413,7.3634,7.4037,7.4184,7.4992,7.4404,7.3634,7.3707,7.4735,7.5542,7.5799,7.6387,7.6827,7.7084,7.7818,7.8295,7.8479,7.8993,7.9286,7.9396,7.9874,8.0167,7.9727,8.0277,8.0351,7.9947,7.98,7.9874,8.0057,7.9874,8.0167,6.9577,6.9659,6.9854,7.0077,7.0185,7.0289,7.0319,7.0319,7.0319,7.0319,7.0353,7.0353,7.0353,7.0353,7.0348,7.0419,7.0419,7.0419,7.0419,7.0528,7.0877,7.1101,7.1095,7.1516,7.181,7.1911,7.2356,7.2417,7.2169,7.2937,7.336,7.3398,7.4113,7.4561,7.4698,7.4864,7.4448,7.3528,7.3808,7.3378,7.2174,7.2569,7.2521,7.2024,7.2222,7.2239,7.1872,7.1908,7.1945,7.1945,7.2018,7.2386,7.312,7.356,7.4147,7.4845,7.4588,7.4515,7.4882,7.4551,7.4368,7.4368,7.4331,7.3927,7.2826,7.3046,7.3266,7.3266,7.3634,7.3964,7.4331,7.4331,7.4515,7.4882,7.4918,7.4735,7.4331,7.4258,7.4258,7.4221,7.3927,7.3854,7.4294,7.4404,7.4551,7.4992,7.5322,7.5983,7.668,7.657,7.6166,7.5836,7.6313,7.69,7.7341,7.7708,7.8332,7.914,7.9617,7.9874,7.991,8.0241,8.0204,7.9874,8.0131,8.0167,7.98,8.0057,8.0094,7.9984,7.98,7.98,7.98,7.98,8.0057,6.9657,6.9738,6.9929,7.0114,7.0185,7.0289,7.0324,7.0324,7.0548,7.0658,7.0686,7.0462,7.0386,7.0386,7.061,7.0686,7.0686,7.0686,7.0686,7.0763,7.1183,7.1145,7.0834,7.1472,7.1873,7.2042,7.2255,7.2342,7.2322,7.3091,7.3591,7.3832,7.4482,7.451,7.3921,7.3972,7.3796,7.3459,7.419,7.3672,7.1861,7.1826,7.1664,7.1286,7.1654,7.1762,7.1615,7.2018,7.2239,7.2239,7.2642,7.3046,7.3413,7.4001,7.4515,7.4845,7.4918,7.4918,7.4882,7.4735,7.4625,7.4625,7.4625,7.4625,7.4661,7.4808,7.4918,7.4918,7.4845,7.4955,7.5102,7.4992,7.4992,7.5139,7.4992,7.4698,7.4111,7.3964,7.4037,7.4184,7.4258,7.4588,7.5322,7.5983,7.6387,7.668,7.7231,7.7635,7.7892,7.8479,7.8516,7.8148,7.7892,7.8112,7.8772,7.8846,7.936,8.0608,8.0645,8.0498,8.0534,8.0645,8.0534,7.991,7.98,7.9727,7.958,7.9507,7.9396,7.9176,7.9213,7.9507,7.9764,7.98,7.98,6.9657,6.9738,6.9929,7.0114,7.0185,7.0289,7.0324,7.04,7.1188,7.1603,7.1412,7.0696,7.0324,7.0434,7.115,7.1489,7.1489,7.1565,7.1527,7.1412,7.0839,7.091,7.158,7.1772,7.1904,7.2178,7.2822,7.2842,7.2322,7.3168,7.3899,7.4601,7.5387,7.6056,7.66,7.7165,7.7064,7.6344,7.6083,7.5296,7.4001,7.4922,7.506,7.4033,7.3757,7.3235,7.2422,7.1762,7.1431,7.1358,7.0881,7.1174,7.2459,7.2716,7.3413,7.4771,7.4918,7.4918,7.4882,7.4221,7.3891,7.3817,7.3927,7.3927,7.3964,7.4588,7.4918,7.5028,7.4992,7.5175,7.5836,7.5322,7.5212,7.5873,7.5432,7.4882,7.4955,7.4808,7.5065,7.5799,7.5799,7.6166,7.6754,7.7084,7.7488,7.8038,7.8295,7.8662,7.9176,7.9396,7.9543,7.947,7.9507,7.9433,7.958,7.9653,7.9727,7.9947,7.9947,7.9947,7.9947,7.991,7.98,7.9653,7.969,7.947,7.9103,7.8699,7.8552,7.8516,7.8662,7.8993,7.958,7.98,7.98,6.9539,6.9699,6.9854,7.0039,7.0255,7.0286,7.0319,7.0391,7.073,7.0916,7.0877,7.0501,7.062,7.1112,7.103,7.0916,7.0916,7.0916,7.0986,7.1057,7.1134,7.1236,7.1222,7.2241,7.2494,7.2208,7.2996,7.3255,7.3245,7.4322,7.5168,7.5515,7.6233,7.6548,7.6433,7.6574,7.6671,7.6685,7.6577,7.631,7.6041,7.5727,7.5417,7.5176,7.4478,7.3885,7.3403,7.2516,7.2018,7.2018,7.2129,7.2532,7.3156,7.367,7.4221,7.4845,7.4918,7.4918,7.4918,7.4588,7.4404,7.4404,7.4845,7.5102,7.5175,7.6313,7.7084,7.6937,7.5763,7.5065,7.5359,7.5102,7.5432,7.6497,7.6533,7.6497,7.7047,7.7047,7.7084,7.69,7.6827,7.69,7.7304,7.7781,7.8185,7.8626,7.8919,7.9433,7.9727,7.98,7.98,7.9727,7.9396,7.9323,7.9617,7.98,7.9764,7.9764,7.98,7.9727,7.9213,7.9103,7.9066,7.9103,7.9176,7.9323,7.9396,7.9286,7.914,7.8846,7.8883,7.9433,7.9727,7.98,7.98,6.9539,6.9738,6.9853,7.0041,7.0217,7.0251,7.0286,7.0424,7.0648,7.0763,7.0795,7.0795,7.1101,7.1593,7.1063,7.0795,7.0795,7.0828,7.086,7.1037,7.1574,7.1597,7.1275,7.2562,7.3014,7.2698,7.3409,7.3976,7.4284,7.5322,7.5976,7.6092,7.6532,7.6617,7.631,7.6171,7.6459,7.7096,7.7138,7.7303,7.7514,7.6655,7.6031,7.5872,7.5014,7.4533,7.4306,7.3545,7.3156,7.3193,7.3927,7.4368,7.4404,7.5139,7.5579,7.5579,7.5579,7.5579,7.5579,7.5579,7.5579,7.5616,7.613,7.6423,7.6644,7.7561,7.8185,7.8038,7.6423,7.5432,7.6203,7.6056,7.646,7.7524,7.7488,7.7598,7.8075,7.8112,7.7635,7.7378,7.7231,7.7561,7.7965,7.8552,7.8956,7.9029,7.9433,7.9653,7.9507,7.9433,7.936,7.914,7.8552,7.8626,7.925,7.9103,7.9176,7.9176,7.914,7.9213,7.8736,7.8736,7.8956,7.936,7.9029,7.9029,7.947,7.969,7.9984,8.0094,8.0131,8.0241,8.0608,8.0498,8.0498,6.9697,6.9891,6.9891,6.9967,7.0039,7.0185,7.0255,7.0396,7.1188,7.1631,7.1619,7.1657,7.1765,7.1827,7.1688,7.1695,7.1695,7.172,7.1751,7.182,7.1973,7.2003,7.2092,7.2899,7.3351,7.3486,7.4284,7.5014,7.5745,7.5938,7.5976,7.6015,7.613,7.6515,7.7053,7.7177,7.7578,7.8108,7.8122,7.8253,7.859,7.8371,7.7589,7.6443,7.5787,7.5458,7.5174,7.4867,7.4771,7.4771,7.5432,7.5873,7.5983,7.6644,7.7011,7.7047,7.7084,7.7084,7.7011,7.6937,7.6974,7.7047,7.6974,7.7194,7.7047,7.7414,7.7598,7.7414,7.6827,7.7084,7.8736,7.8038,7.7928,7.8222,7.7745,7.7414,7.7488,7.7231,7.6717,7.7268,7.7561,7.8002,7.936,7.969,7.9507,7.947,7.9653,7.947,7.8919,7.8699,7.8442,7.8038,7.7781,7.7745,7.8442,7.8479,7.7928,7.8185,7.8919,7.8809,7.8956,7.9103,7.947,7.9727,7.9727,7.9764,7.98,8.0021,8.0388,8.0645,8.0901,8.1122,8.1415,8.1893,8.1819,6.9777,6.9966,7.0041,7.0149,7.0182,7.0286,7.0391,7.0528,7.0891,7.1068,7.1099,7.1099,7.1099,7.1168,7.1735,7.1666,7.1176,7.1705,7.2003,7.2101,7.2601,7.2899,7.3073,7.3832,7.4216,7.4399,7.513,7.5668,7.5938,7.5976,7.5976,7.613,7.6592,7.7015,7.7323,7.7823,7.8384,7.899,7.9033,7.9205,7.9584,7.9495,7.904,7.8177,7.7185,7.6495,7.6101,7.5448,7.5037,7.4918,7.5175,7.5322,7.5359,7.5616,7.5799,7.5799,7.5763,7.5763,7.5763,7.5799,7.5763,7.5836,7.6276,7.6644,7.6754,7.7488,7.8148,7.8148,7.8405,7.8993,7.8993,7.7708,7.668,7.7524,7.7561,7.7781,7.8589,7.8626,7.8589,7.8809,7.8883,7.9029,7.8993,7.9029,7.8809,7.8332,7.8222,7.8442,7.8626,7.8589,7.8662,7.8883,7.8883,7.8993,7.925,7.8699,7.8295,7.8809,7.9286,7.9396,7.9543,7.9653,7.9947,8.0498,8.0571,8.0718,8.0828,8.1048,8.1305,8.1415,8.1636,8.1672,8.2113,8.2186,8.2186,6.9966,7.0111,7.022,7.0324,7.0386,7.0419,7.0515,7.0616,7.0678,7.0853,7.1083,7.1151,7.1304,7.1641,7.2275,7.2237,7.1679,7.2255,7.2515,7.2621,7.3389,7.3803,7.4014,7.4745,7.5091,7.5207,7.5707,7.5976,7.6053,7.6284,7.6399,7.6476,7.7284,7.7861,7.8169,7.8669,7.9261,7.9862,8.0179,8.0425,8.0658,8.076,8.0618,8.0132,7.9191,7.8197,7.7217,7.6396,7.5963,7.5845,7.6006,7.6263,7.646,7.6497,7.6497,7.6497,7.6533,7.646,7.6497,7.646,7.6533,7.6533,7.6974,7.7268,7.7378,7.8332,7.8883,7.9103,7.914,7.9396,7.8956,7.7157,7.6387,7.7745,7.8112,7.8552,7.958,7.9507,7.9323,7.925,7.9213,7.925,7.9396,7.9396,7.936,7.8883,7.8883,7.9176,7.9617,7.9543,7.9507,8.0021,7.9837,7.9874,8.0057,7.9764,7.9176,7.9543,8.0057,8.0131,8.0241,8.0314,8.0571,8.1122,8.1489,8.1709,8.1929,8.2113,8.2186,8.2186,8.2076,8.2003,8.2186,8.2186,8.2186,7.0286,7.0319,7.0386,7.0451,7.0515,7.0623,7.0647,7.0784,7.0853,7.1419,7.2054,7.2092,7.2506,7.3217,7.337,7.3447,7.3409,7.3524,7.3563,7.3563,7.4361,7.4707,7.4784,7.5476,7.5861,7.5899,7.6015,7.6053,7.6169,7.6899,7.7284,7.7438,7.8092,7.8861,7.9708,7.9746,8.0177,8.0849,8.1479,8.176,8.1805,8.2139,8.2147,8.1914,8.1543,8.0413,7.848,7.7957,7.7614,7.751,7.8136,7.8995,7.9129,7.914,7.947,7.914,7.9433,7.9543,7.9433,7.9213,7.8956,7.8956,7.9433,7.9103,7.8993,7.925,7.9433,7.9396,7.9029,7.8699,7.8662,7.7928,7.7818,7.936,7.925,7.9433,7.958,7.9176,7.8699,7.8956,7.914,7.9433,8.0498,8.0865,8.0938,8.1415,8.1599,8.1636,8.1709,8.1342,8.1085,8.1048,8.0938,8.0901,8.0975,8.0938,8.0461,8.0241,8.0718,8.1012,8.1122,8.1232,8.1415,8.1819,8.1819,8.2039,8.2003,8.2186,8.2186,8.2186,8.2186,8.2186,8.2186,8.2186,8.2186,7.0585,7.0616,7.0578,7.0609,7.0754,7.1313,7.165,7.1756,7.2313,7.2803,7.3063,7.3063,7.3217,7.3591,7.4053,7.4322,7.4399,7.4899,7.4899,7.4553,7.5168,7.5592,7.563,7.5861,7.5976,7.6092,7.663,7.6899,7.7053,7.7707,7.813,7.8284,7.8977,7.9515,7.9862,8.04,8.1061,8.1733,8.2007,8.2253,8.2569,8.2797,8.271,8.2374,8.2103,8.1506,8.0704,7.9613,7.8607,7.7836,7.7901,7.8039,7.8075,7.8075,7.8112,7.8075,7.8075,7.8075,7.8112,7.8148,7.8222,7.8148,7.8148,7.8075,7.8075,7.8185,7.8442,7.8883,7.8736,7.8772,7.9213,7.9213,7.8846,7.8185,7.8626,7.9323,7.9947,8.0534,8.1012,8.1085,8.1085,8.1342,8.1672,8.1856,8.2076,8.237,8.2406,8.2517,8.2884,8.2884,8.2957,8.3251,8.2737,8.1929,8.1893,8.1746,8.1342,8.1048,8.1342,8.1562,8.1746,8.1856,8.2076,8.2186,8.2186,8.2186,8.2186,8.2186,8.2186,8.2186,8.2186,8.2186,8.2186,8.2186,8.2186,7.0767,7.0767,7.1103,7.1257,7.1334,7.2237,7.2611,7.2688,7.3217,7.3668,7.3899,7.3937,7.4168,7.4476,7.4976,7.5168,7.5245,7.5784,7.5707,7.5284,7.5707,7.5976,7.6053,7.6361,7.6476,7.663,7.7323,7.7746,7.7784,7.8554,7.8977,7.9131,7.9862,8.0285,8.0362,8.1093,8.1792,8.2259,8.2842,8.3316,8.3675,8.4175,8.4326,8.4123,8.3829,8.3453,8.2954,8.1581,8.0264,7.9014,7.8389,7.8002,7.7781,7.7561,7.7341,7.7378,7.7635,7.7818,7.7818,7.8222,7.8222,7.8222,7.8222,7.8259,7.8259,7.8222,7.8516,7.8919,7.9066,7.925,7.969,7.9764,7.9396,7.8846,7.9286,7.9837,8.0645,8.1562,8.226,8.2406,8.259,8.292,8.3361,8.3544,8.3691,8.3875,8.3985,8.4058,8.4462,8.4205,8.4352,8.4132,8.3177,8.27,8.2737,8.2517,8.2186,8.2039,8.2003,8.2003,8.2039,8.2039,8.2186,8.2186,8.2186,8.2186,8.2186,8.2186,8.2186,8.2186,8.2186,8.2186,8.2186,8.2186,8.226,7.0863,7.1007,7.1871,7.2283,7.2399,7.3206,7.3524,7.3591,7.3745,7.4207,7.4668,7.4784,7.5168,7.5822,7.5822,7.5861,7.5976,7.5938,7.5976,7.5938,7.6092,7.6207,7.6322,7.6976,7.7361,7.7476,7.8284,7.8631,7.8631,7.9438,7.99,7.9977,8.0592,8.1131,8.1246,8.1939,8.2324,8.283,8.4028,8.4729,8.4925,8.6162,8.6853,8.6738,8.6341,8.5747,8.493,8.3682,8.2256,8.0767,7.9468,7.8872,7.8578,7.7892,7.7696,7.7708,7.8259,7.8552,7.8809,7.914,7.9543,7.9507,7.9507,7.98,7.9543,7.947,7.958,7.98,7.9837,7.991,8.0021,8.0131,8.0388,8.1085,8.1305,8.1672,8.2296,8.2627,8.3251,8.3654,8.3728,8.4132,8.5453,8.5637,8.593,8.6187,8.6297,8.6187,8.5857,8.5049,8.4682,8.4095,8.3434,8.3104,8.2994,8.2517,8.2223,8.2186,8.2186,8.2186,8.2186,8.2186,8.2186,8.2186,8.2186,8.2186,8.2186,8.2186,8.2186,8.2186,8.2186,8.2223,8.237,8.2553,8.2847,7.1832,7.1909,7.2783,7.3168,7.3283,7.4053,7.4399,7.4476,7.5053,7.5361,7.563,7.5668,7.5745,7.5976,7.5976,7.5976,7.6053,7.6015,7.5976,7.6092,7.6707,7.6938,7.713,7.7784,7.8207,7.84,7.9631,8.0054,7.9554,8.0285,8.0708,8.0746,8.0939,8.14,8.1939,8.2208,8.3016,8.417,8.5137,8.5988,8.6534,8.742,8.8038,8.7925,8.7118,8.6535,8.6062,8.476,8.2946,8.0991,8.039,7.9986,7.9805,7.9547,7.9302,7.9277,7.9437,7.9559,7.957,7.9727,7.9837,7.98,7.9947,7.98,7.98,7.98,8.0094,8.0461,8.0681,8.0901,8.1379,8.1525,8.215,8.3361,8.3398,8.3765,8.4609,8.538,8.5857,8.6004,8.5967,8.6151,8.6334,8.6518,8.6407,8.6187,8.6077,8.5967,8.5527,8.5086,8.4389,8.4315,8.3838,8.3434,8.303,8.2517,8.2223,8.2186,8.2186,8.2186,8.2186,8.2186,8.2186,8.2186,8.2186,8.2186,8.2186,8.2223,8.2186,8.237,8.2737,8.3067,8.3287,8.3508,8.3875,7.2399,7.2822,7.3668,7.4014,7.413,7.4899,7.5245,7.5322,7.5745,7.5976,7.5976,7.5976,7.5976,7.5976,7.5976,7.6207,7.6515,7.6515,7.6976,7.7784,7.8554,7.8707,7.8746,7.9438,7.9939,7.9708,8.0939,8.1016,8.0554,8.0862,8.1054,8.1054,8.1093,8.1516,8.2247,8.2747,8.3478,8.4786,8.567,8.6329,8.6795,8.7602,8.7952,8.7881,8.7235,8.6776,8.6036,8.5014,8.3678,8.2366,8.1605,8.1095,8.0941,8.0563,8.0355,8.0258,8.0493,8.0591,8.0478,8.0662,8.0855,8.0828,8.0791,8.0791,8.0828,8.0791,8.1085,8.1415,8.1525,8.1746,8.2113,8.248,8.3141,8.3801,8.4389,8.5049,8.6151,8.6628,8.6958,8.7031,8.6995,8.6811,8.6591,8.6481,8.6077,8.5563,8.5306,8.5086,8.4792,8.4389,8.4058,8.3875,8.3581,8.2994,8.2774,8.237,8.2223,8.2186,8.2186,8.2186,8.2186,8.2186,8.2186,8.2186,8.2186,8.2223,8.2296,8.248,8.2774,8.3067,8.3544,8.3875,8.4095,8.4389,8.4792,7.2937,7.3707,7.4476,7.4822,7.4938,7.5668,7.5899,7.5976,7.5976,7.5976,7.5976,7.5976,7.6092,7.613,7.6322,7.6669,7.7592,7.7669,7.8669,7.9785,8.0746,8.0977,8.0785,8.1593,8.1708,8.1323,8.2016,8.1785,8.1208,8.1054,8.1093,8.117,8.1208,8.1708,8.2593,8.3324,8.417,8.5093,8.5978,8.6401,8.6675,8.7363,8.7791,8.7791,8.7343,8.6547,8.5658,8.4968,8.4438,8.3907,8.2947,8.2352,8.2012,8.1265,8.0925,8.1037,8.1437,8.1588,8.1476,8.1892,8.2233,8.2031,8.2003,8.2186,8.2003,8.1893,8.1966,8.2039,8.2186,8.215,8.226,8.2884,8.3324,8.3654,8.4168,8.527,8.6334,8.6775,8.6811,8.6848,8.6811,8.6371,8.5967,8.56,8.538,8.4646,8.4425,8.4205,8.3911,8.3508,8.3324,8.3214,8.281,8.2333,8.226,8.2223,8.2186,8.2186,8.2186,8.2186,8.2186,8.2186,8.2186,8.2223,8.2443,8.2553,8.259,8.2847,8.3361,8.3765,8.4242,8.4535,8.4792,8.5196,8.5563,7.4284,7.4514,7.5361,7.5707,7.5745,7.5938,7.5976,7.5976,7.5976,7.6015,7.6015,7.6015,7.6399,7.7015,7.713,7.7823,7.9131,7.94,8.0169,8.1708,8.267,8.3401,8.3439,8.3555,8.2824,8.2439,8.2901,8.2477,8.1439,8.1093,8.1093,8.1131,8.1708,8.2477,8.3285,8.4055,8.5016,8.5824,8.6632,8.6978,8.7094,8.7709,8.8171,8.8171,8.7494,8.6585,8.5662,8.5138,8.4833,8.4514,8.3965,8.341,8.3191,8.293,8.2705,8.259,8.2623,8.2608,8.2437,8.236,8.2343,8.2251,8.2186,8.2186,8.2186,8.2186,8.2186,8.2186,8.2186,8.2186,8.226,8.292,8.3251,8.3471,8.3985,8.4646,8.5049,8.5196,8.549,8.5783,8.5563,8.5049,8.4903,8.4866,8.4499,8.3838,8.3544,8.3361,8.3067,8.2737,8.27,8.27,8.2517,8.2186,8.2186,8.2186,8.2186,8.2186,8.2186,8.2406,8.2406,8.237,8.248,8.2627,8.2847,8.292,8.3067,8.3728,8.4352,8.4646,8.4939,8.5306,8.5637,8.6004,8.6187,7.4938,7.5361,7.5822,7.5976,7.5976,7.5976,7.5976,7.5976,7.5976,7.6245,7.6553,7.6592,7.7053,7.7861,7.8323,7.9208,8.0516,8.1747,8.2631,8.3593,8.4362,8.4786,8.4747,8.4439,8.3747,8.3016,8.2862,8.2208,8.14,8.1093,8.1093,8.117,8.1939,8.267,8.3593,8.4478,8.5247,8.594,8.6517,8.6786,8.6901,8.7209,8.7748,8.7791,8.7113,8.6278,8.6163,8.554,8.5132,8.4871,8.4599,8.4306,8.4035,8.3876,8.3767,8.3657,8.3489,8.3165,8.2964,8.2721,8.2534,8.2316,8.2251,8.2186,8.2186,8.2186,8.2186,8.2186,8.2186,8.2186,8.2223,8.248,8.281,8.2884,8.3214,8.3618,8.3985,8.4352,8.4719,8.5086,8.4903,8.4462,8.4242,8.4095,8.3691,8.3067,8.2884,8.27,8.2663,8.2406,8.237,8.2333,8.2296,8.2186,8.2186,8.2186,8.2186,8.2186,8.2186,8.2553,8.2847,8.2847,8.2847,8.3067,8.3361,8.3618,8.3838,8.4572,8.5159,8.538,8.5673,8.6114,8.6407,8.6518,8.6628,7.5322,7.5976,7.5976,7.5976,7.5976,7.5976,7.6092,7.6245,7.6207,7.6746,7.7361,7.7476,7.8015,7.8938,7.9631,8.0554,8.2093,8.3708,8.4824,8.5016,8.5247,8.5247,8.4901,8.4362,8.3824,8.3324,8.2747,8.19,8.1323,8.1208,8.1439,8.1516,8.2362,8.3247,8.3939,8.467,8.5478,8.6055,8.617,8.6401,8.6478,8.6594,8.7017,8.7483,8.6844,8.6469,8.6509,8.5968,8.5304,8.5094,8.5051,8.4871,8.4589,8.4293,8.405,8.405,8.3784,8.3489,8.3165,8.2987,8.2782,8.2471,8.2316,8.2251,8.2186,8.2186,8.2186,8.2186,8.2186,8.2186,8.2186,8.2296,8.226,8.226,8.2223,8.2517,8.3141,8.3838,8.4095,8.4352,8.4022,8.3581,8.3361,8.3214,8.2774,8.2406,8.2296,8.2223,8.2223,8.2223,8.226,8.2406,8.248,8.2994,8.3067,8.3067,8.2957,8.281,8.27,8.303,8.3471,8.3544,8.3618,8.3691,8.3911,8.4242,8.4756,8.5453,8.5894,8.604,8.6261,8.6591,8.6811,8.6995,8.7031,7.5861,7.5976,7.5976,7.5976,7.6015,7.6015,7.6438,7.7015,7.7092,7.7553,7.8246,7.8323,7.9246,8.04,8.0785,8.2131,8.4016,8.5286,8.5747,8.5593,8.544,8.4978,8.4478,8.3555,8.2862,8.2554,8.2324,8.19,8.1516,8.1708,8.1977,8.2401,8.3555,8.4478,8.4709,8.544,8.5863,8.6094,8.6209,8.6517,8.6901,8.7171,8.7517,8.8171,8.7267,8.6927,8.6738,8.6008,8.5388,8.5346,8.5224,8.5176,8.5006,8.4694,8.4503,8.4306,8.4102,8.3784,8.3433,8.3165,8.2867,8.2534,8.2343,8.2316,8.2251,8.2186,8.2186,8.2186,8.2186,8.2186,8.2186,8.2186,8.2186,8.2186,8.2186,8.226,8.248,8.27,8.3067,8.3471,8.3067,8.2737,8.27,8.2663,8.248,8.2406,8.248,8.2443,8.2443,8.248,8.248,8.2663,8.2847,8.3544,8.4168,8.4168,8.4095,8.3985,8.3875,8.3985,8.4278,8.4352,8.4425,8.4682,8.4903,8.5233,8.5783,8.6297,8.6481,8.6591,8.6811,8.7031,8.7031,8.7031,8.7031,7.5976,7.5976,7.5976,7.6284,7.663,7.6669,7.713,7.7823,7.7938,7.8669,7.9554,7.99,8.0785,8.217,8.2939,8.4055,8.5247,8.5863,8.5863,8.5478,8.5093,8.4286,8.3747,8.2631,8.2401,8.2324,8.2285,8.217,8.1785,8.2093,8.2593,8.317,8.4324,8.4901,8.5093,8.567,8.6055,8.617,8.6517,8.6978,8.7478,8.7786,8.8363,8.8291,8.7727,8.7158,8.689,8.6049,8.5469,8.5431,8.5391,8.5349,8.5266,8.5138,8.4916,8.4599,8.4356,8.405,8.3712,8.3452,8.3143,8.2806,8.2597,8.2407,8.2316,8.2251,8.2186,8.2186,8.2186,8.2186,8.2186,8.2186,8.2186,8.2186,8.2186,8.2186,8.2186,8.2186,8.248,8.281,8.2663,8.248,8.2333,8.2296,8.2223,8.2333,8.259,8.2737,8.281,8.2957,8.3104,8.3471,8.3765,8.4132,8.4792,8.4939,8.5013,8.4939,8.4939,8.5013,8.5123,8.5196,8.5563,8.593,8.6151,8.604,8.6371,8.6738,8.6921,8.7031,8.7031,8.7031,8.7031,8.7031,8.7031,7.6092,7.6245,7.6245,7.6746,7.7438,7.7553,7.813,7.89,7.9054,8.0015,8.1477,8.167,8.2401,8.3747,8.467,8.5478,8.6094,8.5978,8.5478,8.4978,8.4362,8.3478,8.2708,8.2324,8.2324,8.2324,8.2631,8.2554,8.2631,8.2901,8.3285,8.3901,8.4709,8.5132,8.5363,8.5824,8.6055,8.6363,8.694,8.744,8.8017,8.8556,8.894,8.8786,8.7766,8.7081,8.7004,8.6088,8.5588,8.5511,8.5511,8.5511,8.5471,8.5431,8.5266,8.4961,8.4647,8.4356,8.3998,8.3767,8.3433,8.3047,8.2782,8.2597,8.2343,8.2316,8.2186,8.2186,8.2186,8.2186,8.2186,8.2186,8.2186,8.2186,8.2186,8.2186,8.2186,8.2186,8.2186,8.2333,8.2296,8.2517,8.2663,8.27,8.281,8.3251,8.3508,8.3544,8.3691,8.3948,8.4168,8.4572,8.4829,8.4976,8.5306,8.5527,8.5637,8.571,8.571,8.5783,8.593,8.604,8.6407,8.6591,8.6481,8.6444,8.6811,8.7031,8.7031,8.7031,8.7031,8.7031,8.7031,8.7031,8.7031,7.6438,7.713,7.713,7.7592,7.8323,7.84,7.9323,8.0708,8.0785,8.1747,8.3208,8.3285,8.3785,8.4747,8.5517,8.5978,8.5901,8.544,8.5016,8.4593,8.3593,8.2824,8.2324,8.2324,8.2554,8.2708,8.3208,8.3401,8.3632,8.417,8.4555,8.4863,8.5401,8.5901,8.5824,8.5978,8.6094,8.6247,8.6978,8.8055,8.9171,8.9517,8.9556,8.9098,8.8073,8.7043,8.6889,8.6011,8.5511,8.5511,8.5511,8.5511,8.5511,8.5511,8.5431,8.5224,8.4961,8.4589,8.4153,8.3892,8.3675,8.3338,8.3047,8.2806,8.2534,8.238,8.2251,8.2186,8.2186,8.2251,8.2251,8.2186,8.2186,8.2186,8.2186,8.2186,8.2186,8.2186,8.2186,8.2553,8.2737,8.3141,8.3434,8.3434,8.3508,8.4022,8.4389,8.4425,8.4572,8.4903,8.5159,8.5527,8.5673,8.5783,8.5894,8.6114,8.6187,8.6334,8.6371,8.6444,8.6481,8.6554,8.6738,8.6848,8.6738,8.6701,8.6921,8.7031,8.7031,8.7031,8.7031,8.7031,8.7031,8.7031,8.7031,7.6938,7.7323,7.7784,7.8746,7.99,7.9977,8.0939,8.2247,8.2516,8.3208,8.417,8.4324,8.4786,8.5517,8.6017,8.6094,8.594,8.5286,8.4593,8.4247,8.3362,8.2785,8.2516,8.2824,8.317,8.3708,8.417,8.467,8.4863,8.4901,8.5055,8.5593,8.5863,8.6055,8.6094,8.6094,8.6094,8.6324,8.6978,8.7979,8.8902,8.9171,8.8979,8.8517,8.7571,8.6962,8.6391,8.6011,8.5551,8.5551,8.5511,8.5511,8.5511,8.5511,8.5471,8.5388,8.5262,8.4961,8.4503,8.4205,8.3892,8.362,8.3395,8.3084,8.2782,8.2534,8.2508,8.2508,8.2444,8.2444,8.2444,8.238,8.2316,8.2316,8.2251,8.2186,8.2186,8.2223,8.2333,8.2737,8.3251,8.3728,8.4168,8.4352,8.4389,8.4609,8.5049,8.527,8.5527,8.593,8.6151,8.6407,8.6518,8.6554,8.6628,8.6738,8.6628,8.6738,8.6738,8.6775,8.6885,8.6995,8.7031,8.7031,8.6921,8.6921,8.7031,8.7031,8.7031,8.7031,8.7031,8.7031,8.7031,8.7031,8.7031,7.8054,7.8323,7.89,8.0015,8.14,8.1631,8.2516,8.3824,8.3901,8.4401,8.5016,8.5209,8.5555,8.5978,8.6055,8.5978,8.5709,8.517,8.4401,8.3862,8.3516,8.3208,8.3131,8.3516,8.4247,8.4939,8.5055,8.544,8.5632,8.5632,8.5593,8.6094,8.6055,8.6094,8.6094,8.6132,8.6209,8.6594,8.7094,8.7863,8.8556,8.8479,8.8055,8.756,8.703,8.6576,8.5967,8.5742,8.5667,8.5628,8.559,8.559,8.559,8.5551,8.5511,8.5469,8.5388,8.5224,8.4916,8.4551,8.4205,8.3892,8.3657,8.326,8.3084,8.2904,8.2782,8.2782,8.2819,8.2819,8.2758,8.2597,8.2534,8.2471,8.2343,8.2316,8.2251,8.2288,8.2517,8.3067,8.3691,8.4462,8.4903,8.5233,8.5343,8.5343,8.5637,8.6004,8.6297,8.6628,8.6701,8.6811,8.6848,8.6848,8.6921,8.7031,8.7031,8.7031,8.7031,8.7031,8.7031,8.7031,8.7031,8.7031,8.7031,8.7031,8.7031,8.7031,8.7031,8.7031,8.7031,8.7031,8.7031,8.7031,8.7031,8.0131,8.0862,8.09,8.1439,8.2324,8.3093,8.3939,8.4786,8.4824,8.5247,8.5824,8.5978,8.594,8.6094,8.6055,8.5747,8.5093,8.4939,8.4439,8.3901,8.3593,8.3632,8.3785,8.4286,8.4901,8.5093,8.5517,8.5901,8.6055,8.5978,8.5978,8.6094,8.6094,8.6094,8.6094,8.6132,8.6401,8.6786,8.7171,8.7594,8.7979,8.7902,8.7401,8.7209,8.6603,8.6035,8.5996,8.5852,8.5779,8.5742,8.5742,8.5704,8.5667,8.5705,8.559,8.5511,8.5431,8.5388,8.5181,8.4833,8.4503,8.405,8.3712,8.3433,8.3376,8.3165,8.3106,8.3047,8.3084,8.3024,8.2964,8.2843,8.2843,8.2721,8.2534,8.2407,8.238,8.2251,8.2619,8.3324,8.4058,8.4829,8.5637,8.5967,8.6114,8.6151,8.6187,8.6554,8.6628,8.6885,8.6921,8.6958,8.6958,8.6995,8.6995,8.7031,8.7031,8.7031,8.7031,8.7031,8.7031,8.7031,8.7031,8.7031,8.7031,8.7031,8.7031,8.7031,8.7031,8.7031,8.7031,8.7031,8.7031,8.7031,8.7031,8.1093,8.1939,8.2978,8.3632,8.3939,8.4247,8.4863,8.5555,8.5632,8.5786,8.6094,8.6094,8.6094,8.6094,8.6094,8.5978,8.5593,8.5093,8.4709,8.4516,8.4401,8.4401,8.467,8.5093,8.567,8.567,8.5978,8.6094,8.6094,8.6094,8.6094,8.6094,8.6094,8.6094,8.6094,8.6094,8.6324,8.6478,8.6632,8.6863,8.6863,8.6863,8.6594,8.6517,8.6368,8.6065,8.5996,8.5923,8.5887,8.5852,8.5777,8.5779,8.5779,8.5779,8.5704,8.5628,8.5589,8.551,8.5346,8.5051,8.4637,8.4343,8.3982,8.373,8.3767,8.3602,8.3433,8.3433,8.3433,8.3433,8.3376,8.326,8.3143,8.2964,8.2843,8.2659,8.2534,8.2407,8.2831,8.3574,8.4315,8.5086,8.593,8.6738,8.6848,8.6921,8.6995,8.7031,8.7031,8.7031,8.7031,8.7031,8.7031,8.7031,8.7031,8.7031,8.7031,8.7031,8.7031,8.7031,8.7031,8.7031,8.7031,8.7031,8.7031,8.7031,8.7031,8.7031,8.7031,8.7031,8.7031,8.7031,8.7031,8.7031,8.7031,8.2093,8.317,8.4401,8.4901,8.4939,8.517,8.5555,8.6017,8.6055,8.6094,8.6094,8.6094,8.6094,8.6094,8.6094,8.5863,8.567,8.5363,8.5132,8.5055,8.5093,8.5209,8.5478,8.5709,8.5978,8.6094,8.6094,8.6094,8.6094,8.6094,8.6094,8.6094,8.6094,8.6094,8.6094,8.6094,8.6094,8.6094,8.6094,8.6094,8.6132,8.6132,8.6132,8.617,8.6132,8.6099,8.6065,8.6031,8.5992,8.5923,8.5923,8.5887,8.5887,8.5852,8.5779,8.5704,8.5705,8.5628,8.5391,8.5094,8.4779,8.4541,8.4356,8.4205,8.4139,8.3982,8.3929,8.3876,8.3876,8.3822,8.3767,8.3657,8.3489,8.3281,8.3143,8.2964,8.2782,8.2696,8.3281,8.386,8.4559,8.5117,8.593,8.6701,8.7031,8.7068,8.7031,8.7031,8.7031,8.7031,8.7031,8.7031,8.7031,8.7031,8.7031,8.7031,8.7031,8.7031,8.7031,8.7031,8.7031,8.7031,8.7031,8.7031,8.7031,8.7031,8.7031,8.7031,8.7031,8.7031,8.7031,8.7031,8.7031,8.7031,8.7031,8.3285,8.4786,8.4901,8.4939,8.5093,8.5747,8.6055,8.6094,8.6094,8.6094,8.6094,8.6094,8.6094,8.6094,8.6094,8.5824,8.5517,8.5747,8.567,8.5324,8.5632,8.594,8.5978,8.6055,8.6094,8.6094,8.6094,8.6094,8.6094,8.6094,8.6094,8.6094,8.6094,8.6094,8.6094,8.6094,8.6094,8.6094,8.6094,8.6094,8.6094,8.6094,8.6094,8.6094,8.6094,8.6094,8.606,8.606,8.606,8.6026,8.6026,8.6026,8.5958,8.5996,8.5926,8.578,8.5743,8.5667,8.5471,8.5181,8.5006,8.4825,8.4599,8.4551,8.4492,8.4431,8.4431,8.4343,8.4393,8.4242,8.4139,8.3945,8.3838,8.362,8.3489,8.3318,8.3047,8.2904,8.3423,8.3834,8.4432,8.5066,8.5815,8.6481,8.6958,8.7105,8.7031,8.7031,8.7031,8.7031,8.7031,8.7031,8.7031,8.7031,8.7031,8.7031,8.7031,8.7031,8.7031,8.7031,8.7031,8.7031,8.7031,8.7031,8.7031,8.7031,8.7031,8.7031,8.7031,8.7031,8.7031,8.7031,8.7031,8.7031,8.7031,8.4362,8.4939,8.5478,8.5709,8.5747,8.5978,8.6094,8.6094,8.6094,8.6094,8.6094,8.6094,8.6094,8.6094,8.6094,8.594,8.5824,8.5824,8.5786,8.5786,8.6017,8.6055,8.6094,8.6094,8.6094,8.6094,8.6094,8.6094,8.6094,8.6094,8.6094,8.6094,8.6094,8.6094,8.6094,8.6094,8.6094,8.6094,8.6094,8.6094,8.6094,8.6094,8.6094,8.6094,8.6094,8.6094,8.6094,8.6094,8.6094,8.6094,8.6094,8.606,8.606,8.6065,8.6031,8.589,8.5854,8.5667,8.5551,8.5349,8.5266,8.5094,8.4961,8.4871,8.4825,8.4732,8.4694,8.4685,8.4732,8.4589,8.4454,8.4405,8.4255,8.3945,8.373,8.3602,8.3338,8.3143,8.3298,8.3682,8.422,8.5464,8.6397,8.7022,8.75,8.7321,8.7247,8.7031,8.7031,8.7031,8.7031,8.7031,8.7031,8.7031,8.7031,8.7031,8.7031,8.7031,8.7031,8.7031,8.7031,8.7031,8.7031,8.7031,8.7031,8.7031,8.7031,8.7031,8.7031,8.7031,8.7031,8.7031,8.7031,8.7031,8.7031,8.5055,8.5401,8.5863,8.6094,8.6094,8.6094,8.6094,8.6094,8.6094,8.6094,8.6094,8.6094,8.6094,8.6094,8.6094,8.6094,8.6094,8.6094,8.6094,8.6094,8.6094,8.6094,8.6094,8.6094,8.6094,8.6094,8.6094,8.6094,8.6094,8.6094,8.6094,8.6094,8.6094,8.6094,8.6094,8.6094,8.6094,8.6094,8.6094,8.6094,8.6094,8.6094,8.6094,8.6094,8.6094,8.6094,8.6094,8.6094,8.6094,8.6094,8.6094,8.6094,8.6094,8.6094,8.606,8.5996,8.5854,8.5704,8.5551,8.5511,8.5391,8.5308,8.5181,8.5094,8.5094,8.5006,8.4961,8.4961,8.4961,8.4871,8.4741,8.4741,8.4675,8.4381,8.4341,8.4132,8.4029,8.3807,8.4025,8.4346,8.5175,8.625,8.6979,8.7599,8.8151,8.7789,8.7426,8.7247,8.7031,8.7031,8.7031,8.7031,8.7031,8.7031,8.7031,8.7031,8.7031,8.7031,8.7068,8.7142,8.7031,8.7031,8.7031,8.7031,8.7068,8.7068,8.7031,8.7031,8.7105,8.7105,8.7031,8.7031,8.7031,8.7031,8.7031,8.5401,8.6055,8.6094,8.6094,8.6094,8.6094,8.6094,8.6094,8.6094,8.6094,8.6094,8.6094,8.6094,8.6094,8.6094,8.6094,8.6094,8.6094,8.6094,8.6094,8.6094,8.6094,8.6094,8.6094,8.6094,8.6094,8.6094,8.6094,8.6094,8.6094,8.6094,8.6094,8.6094,8.6094,8.6094,8.6094,8.6094,8.6094,8.6094,8.6094,8.6094,8.6094,8.6094,8.6094,8.6094,8.6094,8.6094,8.6094,8.6094,8.6094,8.6094,8.6094,8.6094,8.6094,8.6026,8.5996,8.5817,8.5667,8.5551,8.5551,8.5511,8.5431,8.5429,8.5346,8.5262,8.5181,8.5181,8.5181,8.5181,8.5094,8.5051,8.5037,8.5106,8.5035,8.5129,8.4959,8.4816,8.4942,8.5302,8.5898,8.6869,8.7699,8.8035,8.8457,8.8605,8.828,8.7918,8.7526,8.7311,8.6995,8.6995,8.7031,8.7031,8.7031,8.7031,8.7068,8.7288,8.7362,8.7362,8.7362,8.7215,8.7362,8.7692,8.7729,8.7288,8.7178,8.7362,8.7362,8.7288,8.7288,8.7655,8.7215,8.7252,8.7068,8.7031,8.5901,8.6094,8.6094,8.6094,8.6094,8.6094,8.6094,8.6094,8.6094,8.6094,8.6094,8.6094,8.6094,8.6094,8.6094,8.6094,8.6094,8.6094,8.6094,8.6094,8.6094,8.6094,8.6094,8.6094,8.6094,8.6094,8.6094,8.6094,8.6094,8.6094,8.6094,8.6094,8.6094,8.6094,8.6094,8.6094,8.6094,8.6094,8.6094,8.6094,8.6094,8.6094,8.6094,8.6094,8.6094,8.6094,8.6094,8.6094,8.6094,8.6094,8.6094,8.6094,8.6094,8.6094,8.606,8.5996,8.5852,8.5742,8.5667,8.5551,8.555,8.5627,8.5548,8.5471,8.5431,8.5467,8.5467,8.5464,8.554,8.5575,8.5876,8.598,8.6045,8.6184,8.6464,8.6928,8.6833,8.6877,8.7244,8.7492,8.8436,8.8344,8.869,8.8923,8.8933,8.8655,8.8368,8.794,8.7519,8.7274,8.7064,8.71,8.7215,8.7288,8.7178,8.7178,8.7472,8.7692,8.7802,8.8023,8.8353,8.8536,8.8647,8.85,8.8096,8.7912,8.7876,8.7876,8.7949,8.85,8.8793,8.8059,8.7472,8.7435,8.7362,8.6094,8.6094,8.6094,8.6094,8.6094,8.6094,8.6094,8.6094,8.6094,8.6094,8.6094,8.6094,8.6094,8.6094,8.6094,8.6094,8.6094,8.6094,8.6094,8.6094,8.6094,8.6094,8.6094,8.6094,8.6094,8.6094,8.6094,8.6094,8.6094,8.6094,8.6094,8.6094,8.6094,8.6094,8.6094,8.6094,8.6094,8.6094,8.6094,8.6094,8.6094,8.6094,8.6094,8.6094,8.6094,8.6094,8.6094,8.6094,8.6094,8.6094,8.6094,8.6094,8.6094,8.6094,8.606,8.5996,8.5961,8.5815,8.5742,8.5667,8.582,8.6011,8.6126,8.6394,8.6202,8.6124,8.6046,8.5968,8.6044,8.6197,8.6653,8.7107,8.729,8.7465,8.8243,8.9061,8.9135,8.9112,8.9189,8.9292,8.929,8.9056,8.9099,8.9299,8.9237,8.8803,8.8455,8.8181,8.7776,8.7372,8.72,8.7169,8.7431,8.7619,8.7545,8.7655,8.8169,8.8536,8.8647,8.894,8.9381,8.9381,8.9197,8.9087,8.894,8.8793,8.8683,8.8683,8.883,8.9307,8.9381,8.8683,8.8206,8.8243,8.8169,8.6094,8.6094,8.6094,8.6094,8.6094,8.6094,8.6094,8.6094,8.6094,8.6094,8.6094,8.6094,8.6094,8.6094,8.6094,8.6094,8.6094,8.6094,8.6094,8.6094,8.6094,8.6094,8.6094,8.6094,8.6247,8.6209,8.6132,8.6094,8.6094,8.6094,8.6094,8.6094,8.6094,8.6094,8.6094,8.6094,8.6094,8.6094,8.6094,8.6094,8.6094,8.6094,8.6094,8.6094,8.6094,8.6094,8.6094,8.6094,8.6094,8.6094,8.6094,8.6094,8.6094,8.6094,8.6026,8.6146,8.615,8.6194,8.6235,8.6277,8.666,8.6929,8.7196,8.7427,8.7274,8.693,8.6815,8.6891,8.7006,8.712,8.75,8.811,8.8409,8.8782,8.9375,8.9969,9.0172,9.0196,9.0334,9.0298,9.0022,8.9761,8.929,8.9457,8.9286,8.8816,8.8585,8.8368,8.8344,8.7989,8.78,8.7703,8.8046,8.8349,8.839,8.861,8.9124,8.9417,8.9491,8.9784,9.0225,9.0005,8.9638,8.9638,8.9638,8.9601,8.9491,8.9381,8.9307,8.9601,8.9528,8.9087,8.8904,8.883,8.839,8.6094,8.6094,8.6094,8.6094,8.6094,8.6094,8.6094,8.6094,8.6094,8.6094,8.6094,8.6094,8.6094,8.6094,8.6094,8.6094,8.6094,8.6094,8.6094,8.6094,8.6094,8.6094,8.6132,8.6247,8.644,8.6671,8.6555,8.6094,8.6094,8.6094,8.6094,8.6094,8.6094,8.6094,8.6094,8.6094,8.6094,8.6094,8.6094,8.6094,8.6094,8.6094,8.6094,8.6094,8.6094,8.6094,8.6094,8.6094,8.6094,8.6094,8.6094,8.6094,8.6094,8.6132,8.6132,8.6176,8.6684,8.6841,8.6998,8.7269,8.7693,8.7923,8.8115,8.8193,8.8155,8.7849,8.7772,8.7926,8.8041,8.8155,8.8461,8.9072,8.9644,9.0058,9.0465,9.0797,9.1126,9.1159,9.1306,9.0966,9.066,9.0238,8.97,8.9458,8.9235,8.9104,8.8917,8.8953,8.9257,8.9138,8.8979,8.893,8.9067,8.9297,8.9338,8.9562,9.0076,9.0296,9.0407,9.0665,9.1033,9.0849,9.0592,9.0408,9.0335,9.0335,9.0115,8.9674,8.9674,8.9931,8.9638,8.9197,8.905,8.9014,8.8353,8.6094,8.6094,8.6094,8.6094,8.6094,8.6094,8.6094,8.6094,8.6094,8.6094,8.6094,8.6094,8.6094,8.6094,8.6094,8.6094,8.6094,8.6094,8.6094,8.6094,8.6094,8.6094,8.617,8.644,8.6478,8.6709,8.6401,8.6094,8.6094,8.6094,8.6094,8.6094,8.6094,8.6094,8.6094,8.6094,8.6094,8.6094,8.6094,8.6094,8.6094,8.6094,8.6094,8.6094,8.6094,8.6094,8.6094,8.6094,8.6094,8.6286,8.6478,8.6709,8.6863,8.7171,8.7286,8.744,8.7675,8.7872,8.799,8.8301,8.8764,8.8917,8.9069,8.9146,8.9799,8.9607,8.9151,8.9227,8.8922,8.896,8.9726,9.0454,9.0758,9.1135,9.1629,9.2002,9.1756,9.1415,9.1083,9.0483,9.0271,9.0146,8.9729,8.9678,8.9513,8.9559,8.9378,8.9628,8.9967,9.0542,9.0305,9.0249,9.0395,9.0384,9.0357,9.0655,9.1134,9.1247,9.1213,9.1325,9.1509,9.1583,9.1583,9.1216,9.1033,9.1143,9.0849,9.0225,9.0078,9.0335,8.9858,8.9271,8.916,8.8867,8.8206,8.6094,8.6094,8.6094,8.6094,8.6094,8.6094,8.6094,8.6094,8.6094,8.6094,8.6094,8.6094,8.6094,8.6094,8.6094,8.6094,8.6094,8.6094,8.6094,8.6094,8.6094,8.6286,8.6555,8.6786,8.6594,8.6478,8.6363,8.6209,8.6094,8.6094,8.6094,8.6094,8.6094,8.6094,8.6094,8.6094,8.6094,8.6094,8.6094,8.6094,8.6094,8.6094,8.6094,8.6094,8.6094,8.6094,8.6094,8.6247,8.6247,8.6632,8.7094,8.744,8.7671,8.8017,8.8248,8.8402,8.8632,8.8752,8.894,8.9098,8.956,8.9863,8.9979,9.0325,9.0941,9.0905,9.0449,9.0184,8.9917,9.0033,9.08,9.1184,9.1528,9.1717,9.2212,9.2512,9.1964,9.1483,9.0814,9.0105,9.0058,9.0058,8.9925,8.9839,8.9866,8.9919,9.0145,9.0389,9.0792,9.1583,9.1917,9.182,9.1907,9.1836,9.1475,9.1629,9.1966,9.1971,9.1901,9.1944,9.1948,9.202,9.202,9.1839,9.1729,9.1656,9.1216,9.0592,9.0629,9.0408,8.9271,8.8426,8.828,8.7986,8.7729,8.6094,8.6094,8.6094,8.6094,8.6094,8.6094,8.6094,8.6094,8.6094,8.6094,8.6094,8.6094,8.6094,8.6094,8.6094,8.6094,8.6094,8.6094,8.6094,8.6094,8.6286,8.6632,8.6863,8.6901,8.6363,8.6363,8.6594,8.6632,8.6209,8.6094,8.6094,8.6094,8.6094,8.6094,8.6094,8.6094,8.6094,8.6094,8.6094,8.6094,8.6132,8.6132,8.6094,8.6094,8.6094,8.6094,8.6247,8.6824,8.7055,8.7401,8.7902,8.8325,8.8594,8.8786,8.8979,8.921,8.944,8.9633,8.9787,9.0094,9.0517,9.0633,9.0748,9.0787,9.1171,9.1133,9.087,9.087,9.068,9.0605,9.1105,9.1067,9.126,9.1183,9.141,9.137,9.1097,9.0933,9.0656,9.0378,9.0333,9.025,9.0159,9.0113,9.0067,9.0286,9.0846,9.1143,9.1619,9.2496,9.3368,9.3313,9.3223,9.304,9.2653,9.2476,9.2633,9.261,9.2547,9.2373,9.2303,9.2303,9.2233,9.2162,9.2091,9.1946,9.147,9.0847,9.0115,8.9672,8.8243,8.7362,8.7325,8.7362,8.7288]},{"header":{"parameterUnit":"m.s-1","parameterCategory":1,"la1":31.0,"la2":29.5877,"lo1":-88.7671,"lo2":-86.6584,"dx":0.0162,"dy":0.0185,"nx":115,"ny":88,"refTime":"2023-02-07T06:00:00:Z","depth":0,"parameterNumber":3,"parameterNumberName":"V-component_of_WINDS"},"data":[0.0,0.0,0.0,0.0,0.0,0.0,0.0,0.0,0.0,0.0,0.0,0.0,0.0,0.0,0.0,0.0,0.0,0.0,0.0,0.0,0.0,0.0,0.0,0.0,0.0,0.0,0.0,0.0,0.0,0.0,0.0,0.0,0.0,0.0,0.0,0.0,0.0,0.0,0.0,0.0,0.0,0.0,0.0,0.0,0.0,0.0,0.0,0.0,0.0,0.0,0.0,0.0,0.0,0.0,0.0,0.0,0.0,0.0,0.0,0.0,0.0,0.0,0.0,0.0,0.0,0.0,0.0,0.0,0.0,0.0,0.0,0.0,0.0,0.0,0.0,0.0,0.0,0.0,0.0,0.0,0.0,0.0,0.0,0.0,0.0,0.0,0.0,0.0,0.0,0.0,0.0,0.0,0.0,0.0,0.0,0.0,0.0,0.0,0.0,0.0,0.0,0.0,0.0,0.0,0.0,0.0,0.0,0.0,0.0,0.0,0.0,0.0,0.0,0.0,0.0,0.0,0.0,0.0,0.0,0.0,0.0,0.0,0.0,0.0,0.0,0.0,0.0,0.0,0.0,0.0,0.0,0.0,0.0,0.0,0.0,0.0,0.0,0.0,0.0,0.0,0.0,0.0,0.0,0.0,0.0,0.0,0.0,0.0,0.0,0.0,0.0,0.0,0.0,0.0,0.0,0.0,0.0,0.0,0.0,0.0,0.0,0.0,0.0,0.0,0.0,0.0,0.0,0.0,0.0,0.0,0.0,0.0,0.0,0.0,0.0,0.0,0.0,0.0,0.0,0.0,0.0,0.0,0.0,0.0,0.0,0.0,0.0,0.0,0.0,0.0,0.0,0.0,0.0,0.0,0.0,0.0,0.0,0.0,0.0,0.0,0.0,0.0,0.0,0.0,0.0,0.0,0.0,0.0,0.0,0.0,0.0,0.0,0.0,0.0,0.0,0.0,0.0,0.0,0.0,0.0,0.0,0.0,0.0,0.0,0.0,0.0,0.0,0.0,0.0,0.0,0.0,0.0,0.0,0.0,0.0,0.0,0.0,0.0,0.0,0.0,0.0,0.0,0.0,0.0,0.0,0.0,0.0,0.0,0.0,0.0,0.0,0.0,0.0,0.0,0.0,0.0,0.0,0.0,0.0,0.0,0.0,0.0,0.0,0.0,0.0,0.0,0.0,0.0,0.0,0.0,0.0,0.0,0.0,0.0,0.0,0.0,0.0,0.0,0.0,0.0,0.0,0.0,0.0,0.0,0.0,0.0,0.0,0.0,0.0,0.0,0.0,0.0,0.0,0.0,0.0,0.0,0.0,0.0,0.0,0.0,0.0,0.0,0.0,0.0,0.0,0.0,0.0,0.0,0.0,0.0,0.0,0.0,0.0,0.0,0.0,0.0,0.0,0.0,0.0,0.0,0.0,0.0,0.0,0.0,0.0,0.0,0.0,0.0,0.0,0.0,0.0,0.0,0.0,0.0,0.0,0.0,0.0,0.0,0.0,0.0,0.0,0.0,0.0,0.0,0.0,0.0,0.0,0.0,0.0,0.0,0.0,0.0,0.0,0.0,0.0,0.0,0.0,0.0,0.0,0.0,0.0,0.0,0.0,0.0,0.0,0.0,0.0,0.0,0.0,0.0,0.0,0.0,0.0,0.0,0.0,0.0,0.0,0.0,0.0,0.0,0.0,0.0,0.0,0.0,0.0,0.0,0.0,0.0,0.0,0.0,0.0,0.0,0.0,0.0,0.0,0.0,0.0,0.0,0.0,0.0,0.0,0.0,0.0,0.0,0.0,0.0,0.0,0.0,0.0,0.0,0.0,0.0,0.0,0.0,0.0,0.0,0.0,0.0,0.0,0.0,0.0,0.0,0.0,0.0,0.0,0.0,0.0,0.0,0.0,0.0,0.0,0.0,0.0,0.0,0.0,0.0,0.0,0.0,0.0,0.0,0.0,0.0,0.0,0.0,0.0,0.0,0.0,0.0,0.0,0.0,0.0,0.0,0.0,0.0,0.0,0.0,0.0,0.0,0.0,0.0,0.0,0.0,0.0,0.0,0.0,0.0,0.0,0.0,0.0,0.0,0.0,0.0,0.0,0.0,0.0,0.0,0.0,0.0,0.0,0.0,0.0,0.0,0.0,0.0,0.0,0.0,0.0,0.0,0.0,0.0,0.0,0.0,0.0,0.0,0.0,0.0,0.0,0.0,0.0,0.0,0.0,0.0,0.0,0.0,0.0,0.0,0.0,0.0,0.0,0.0,0.0,0.0,0.0,0.0,0.0,0.0,0.0,0.0,0.0,0.0,0.0,0.0,0.0,0.0,0.0,0.0,0.0,0.0,0.0,0.0,0.0,0.0,0.0,0.0,0.0,0.0,0.0,0.0,0.0,0.0,0.0,0.0,0.0,0.0,0.0,0.0,0.0,0.0,0.0,0.0,0.0,0.0,0.0,0.0,0.0,0.0,0.0,0.0,0.0,0.0,0.0,0.0,0.0,0.0,0.0,0.0,0.0,0.0,0.0,0.0,0.0,0.0,0.0,0.0,0.0,0.0,0.0,0.0,0.0,0.0,0.0,0.0,0.0,0.0,0.0,0.0,0.0,0.0,0.0,0.0,0.0,0.0,0.0,0.0,0.0,0.0,0.0,0.0,0.0,0.0,0.0,0.0,0.0,0.0,0.0,0.0,0.0,0.0,0.0,0.0,0.0,0.0,0.0,0.0,0.0,0.0,0.0,0.0,0.0,0.0,0.0,0.0,0.0,0.0,0.0,0.0,0.0,0.0,0.0,0.0,0.0,0.0,0.0,0.0,0.0,0.0,0.0,0.0,0.0,0.0,0.0,0.0,0.0,0.0,0.0,0.0,0.0,0.0,0.0,0.0,0.0,0.0,0.0,0.0,0.0,0.0,0.0,0.0,0.0,0.0,0.0,0.0,0.0,0.0,0.0,0.0,0.0,0.0,0.0,0.0,0.0,0.0,0.0,0.0,0.0,0.0,0.0,0.0,0.0,0.0,0.0,0.0,0.0,0.0,0.0,0.0,0.0,0.0,0.0,0.0,0.0,0.0,0.0,0.0,0.0,0.0,0.0,0.0,0.0,0.0,0.0,0.0,0.0,0.0,0.0,0.0,0.0,0.0,0.0,0.0,0.0,0.0,0.0,0.0,0.0,0.0,0.0,0.0,0.0,0.0,0.0,0.0,0.0,0.0,0.0,0.0,0.0,0.0,0.0,0.0,0.0,0.0,0.0,0.0,0.0,0.0,0.0,0.0,0.0,0.0,0.0,0.0,0.0,0.0,0.0,0.0,0.0,0.0,0.0,0.0,0.0,0.0,0.0,0.0,0.0,0.0,0.0,0.0,0.0,0.0,0.0,0.0,0.0,0.0,0.0,0.0,0.0,0.0,0.0,0.0,0.0,0.0,0.0,0.0,0.0,0.0,0.0,0.0,0.0,0.0,0.0,0.0,0.0,0.0,0.0,0.0,0.0,0.0,0.0,0.0,0.0,0.0,0.0,0.0,0.0,0.0,0.0,0.0,0.0,0.0,0.0,0.0,0.0,0.0,0.0,0.0,0.0,0.0,0.0,0.0,0.0,0.0,0.0,0.0,0.0,0.0,0.0,0.0,0.0,0.0,0.0,0.0,0.0,0.0,0.0,0.0,0.0,0.0,0.0,0.0,0.0,0.0,0.0,0.0,0.0,0.0,0.0,0.0,0.0,0.0,0.0,0.0,0.0,0.0,0.0,0.0,0.0,0.0,0.0,0.0,0.0,0.0,0.0,0.0,0.0,0.0,0.0,0.0,0.0,0.0,0.0,0.0,0.0,0.0,0.0,0.0,0.0,0.0,0.0,0.0,0.0,0.0,0.0,0.0,0.0,0.0,0.0,0.0,0.0,0.0,0.0,0.0,0.0,0.0,0.0,0.0,0.0,0.0,0.0,0.0,0.0,0.0,0.0,0.0,0.0,0.0,0.0,0.0,0.0,0.0,0.0,0.0,0.0,0.0,0.0,0.0,0.0,0.0,0.0,0.0,0.0,0.0,0.0,0.0,0.0,0.0,0.0,0.0,0.0,0.0,0.0,0.0,0.0,0.0,0.0,0.0,0.0,0.0,0.0,0.0,0.0,0.0,0.0,0.0,0.0,0.0,0.0,0.0,0.0,0.0,0.0,0.0,0.0,0.0,0.0,0.0,0.0,0.0,0.0,0.0,0.0,0.0,0.0,0.0,0.0,0.0,0.0,0.0,0.0,0.0,0.0,0.0,0.0,0.0,0.0,0.0,-2.1109,0.0,0.0,0.0,0.0,0.0,0.0,0.0,0.0,0.0,0.0,0.0,0.0,0.0,0.0,0.0,0.0,0.0,0.0,0.0,0.0,0.0,0.0,0.0,0.0,0.0,0.0,0.0,0.0,0.0,0.0,0.0,0.0,0.0,0.0,0.0,0.0,0.0,0.0,0.0,0.0,0.0,0.0,0.0,0.0,0.0,0.0,0.0,0.0,0.0,0.0,0.0,0.0,0.0,0.0,0.0,0.0,0.0,0.0,0.0,0.0,0.0,0.0,0.0,0.0,0.0,0.0,0.0,0.0,0.0,0.0,0.0,0.0,0.0,0.0,0.0,0.0,0.0,0.0,0.0,0.0,0.0,0.0,0.0,0.0,0.0,0.0,0.0,0.0,0.0,0.0,0.0,0.0,0.0,0.0,0.0,0.0,0.0,0.0,0.0,0.0,0.0,0.0,0.0,0.0,0.0,0.0,0.0,0.0,0.0,0.0,-2.1109,-2.1109,-2.1109,-2.1109,-2.1109,0.0,0.0,0.0,0.0,0.0,0.0,0.0,0.0,0.0,0.0,0.0,0.0,0.0,0.0,0.0,0.0,0.0,0.0,0.0,0.0,0.0,0.0,0.0,0.0,0.0,0.0,0.0,0.0,0.0,0.0,0.0,0.0,0.0,0.0,0.0,0.0,0.0,0.0,0.0,0.0,0.0,0.0,0.0,0.0,0.0,0.0,0.0,0.0,0.0,0.0,0.0,0.0,0.0,0.0,0.0,0.0,0.0,0.0,0.0,0.0,0.0,0.0,0.0,0.0,0.0,0.0,0.0,0.0,0.0,0.0,0.0,0.0,0.0,0.0,0.0,0.0,0.0,0.0,0.0,0.0,0.0,0.0,0.0,0.0,0.0,0.0,0.0,0.0,0.0,0.0,0.0,0.0,0.0,0.0,0.0,0.0,0.0,0.0,0.0,0.0,0.0,0.0,0.0,0.0,0.0,0.0,0.0,0.0,0.0,0.0,0.0,0.0,-2.1109,-2.1109,-2.1109,0.0,0.0,0.0,0.0,0.0,0.0,0.0,0.0,0.0,0.0,0.0,0.0,0.0,0.0,0.0,0.0,0.0,0.0,0.0,0.0,0.0,0.0,0.0,0.0,0.0,0.0,0.0,0.0,0.0,0.0,0.0,0.0,0.0,0.0,0.0,0.0,0.0,0.0,0.0,0.0,0.0,0.0,0.0,0.0,0.0,0.0,0.0,0.0,0.0,0.0,0.0,0.0,0.0,0.0,0.0,0.0,0.0,0.0,0.0,0.0,0.0,0.0,0.0,0.0,0.0,0.0,0.0,0.0,0.0,0.0,0.0,0.0,0.0,0.0,0.0,0.0,0.0,0.0,0.0,0.0,0.0,0.0,0.0,0.0,0.0,0.0,0.0,0.0,0.0,0.0,0.0,0.0,0.0,0.0,0.0,0.0,0.0,0.0,0.0,0.0,0.0,0.0,0.0,0.0,0.0,0.0,0.0,0.0,0.0,0.0,-2.1109,-2.1109,-2.1109,0.0,-2.1109,0.0,0.0,0.0,0.0,0.0,0.0,0.0,0.0,0.0,0.0,0.0,0.0,0.0,0.0,0.0,0.0,0.0,0.0,0.0,0.0,0.0,0.0,0.0,0.0,0.0,0.0,0.0,0.0,0.0,0.0,0.0,0.0,0.0,0.0,0.0,0.0,0.0,0.0,0.0,0.0,0.0,0.0,0.0,0.0,0.0,0.0,0.0,0.0,0.0,0.0,0.0,0.0,0.0,0.0,0.0,0.0,0.0,0.0,0.0,0.0,0.0,0.0,0.0,0.0,0.0,0.0,0.0,0.0,0.0,0.0,0.0,0.0,0.0,0.0,0.0,0.0,0.0,0.0,0.0,0.0,0.0,0.0,0.0,0.0,0.0,0.0,0.0,0.0,0.0,0.0,0.0,0.0,0.0,0.0,0.0,0.0,0.0,0.0,0.0,0.0,0.0,0.0,0.0,0.0,0.0,0.0,0.0,0.0,0.0,0.0,-2.1109,-2.1109,-2.1109,-2.1109,0.0,0.0,0.0,0.0,0.0,0.0,0.0,0.0,0.0,0.0,0.0,0.0,0.0,0.0,0.0,0.0,0.0,0.0,0.0,0.0,0.0,0.0,0.0,0.0,0.0,0.0,0.0,0.0,0.0,0.0,0.0,0.0,0.0,0.0,0.0,0.0,0.0,0.0,0.0,0.0,0.0,0.0,0.0,0.0,0.0,0.0,0.0,0.0,0.0,0.0,0.0,0.0,0.0,0.0,0.0,0.0,0.0,0.0,0.0,0.0,0.0,0.0,0.0,0.0,0.0,0.0,0.0,0.0,0.0,0.0,0.0,0.0,0.0,0.0,0.0,0.0,0.0,0.0,0.0,0.0,0.0,0.0,0.0,0.0,0.0,0.0,0.0,0.0,0.0,0.0,0.0,0.0,0.0,0.0,0.0,0.0,0.0,0.0,0.0,0.0,0.0,0.0,0.0,0.0,0.0,0.0,0.0,0.0,0.0,0.0,-2.1109,-2.1109,-2.1109,-2.1109,-2.1109,-2.1109,0.0,0.0,0.0,0.0,0.0,0.0,0.0,0.0,0.0,0.0,0.0,0.0,0.0,0.0,0.0,0.0,0.0,0.0,0.0,0.0,0.0,0.0,0.0,0.0,0.0,0.0,0.0,0.0,0.0,0.0,0.0,0.0,0.0,0.0,0.0,0.0,0.0,0.0,0.0,0.0,0.0,0.0,0.0,0.0,0.0,0.0,0.0,0.0,0.0,0.0,0.0,0.0,0.0,0.0,0.0,0.0,0.0,0.0,0.0,0.0,0.0,0.0,0.0,0.0,0.0,0.0,0.0,0.0,0.0,0.0,0.0,0.0,0.0,0.0,0.0,0.0,0.0,0.0,0.0,0.0,0.0,0.0,0.0,0.0,0.0,0.0,0.0,0.0,0.0,0.0,0.0,0.0,0.0,0.0,0.0,0.0,0.0,0.0,0.0,0.0,0.0,0.0,0.0,0.0,0.0,0.0,0.0,0.0,-2.1109,-2.1109,-2.1109,-2.1109,-2.1109,-2.1109,0.0,0.0,0.0,0.0,0.0,0.0,0.0,0.0,0.0,0.0,0.0,0.0,0.0,0.0,0.0,0.0,0.0,0.0,0.0,0.0,0.0,0.0,0.0,0.0,0.0,0.0,0.0,0.0,0.0,0.0,0.0,0.0,0.0,0.0,0.0,0.0,0.0,0.0,0.0,0.0,0.0,0.0,0.0,0.0,0.0,0.0,0.0,0.0,0.0,0.0,0.0,0.0,0.0,0.0,0.0,0.0,0.0,0.0,0.0,0.0,0.0,0.0,0.0,0.0,0.0,0.0,0.0,0.0,0.0,0.0,0.0,0.0,0.0,0.0,0.0,0.0,0.0,0.0,0.0,0.0,0.0,0.0,0.0,0.0,0.0,0.0,0.0,0.0,0.0,0.0,0.0,0.0,0.0,0.0,0.0,0.0,0.0,0.0,0.0,0.0,0.0,0.0,0.0,0.0,0.0,0.0,0.0,0.0,0.0,-2.1109,-2.1109,-2.1109,-2.1109,-2.1109,-2.1109,0.0,0.0,0.0,0.0,0.0,0.0,0.0,0.0,0.0,0.0,0.0,0.0,0.0,0.0,0.0,0.0,0.0,0.0,0.0,0.0,0.0,0.0,0.0,0.0,0.0,0.0,0.0,0.0,0.0,0.0,0.0,0.0,0.0,0.0,0.0,0.0,0.0,0.0,0.0,0.0,0.0,0.0,0.0,0.0,0.0,0.0,0.0,0.0,0.0,0.0,0.0,0.0,0.0,0.0,0.0,0.0,0.0,0.0,0.0,0.0,0.0,0.0,0.0,0.0,0.0,0.0,0.0,0.0,0.0,0.0,0.0,0.0,0.0,0.0,0.0,0.0,0.0,0.0,0.0,0.0,0.0,0.0,0.0,0.0,0.0,0.0,0.0,0.0,0.0,0.0,0.0,0.0,0.0,0.0,0.0,0.0,0.0,0.0,0.0,0.0,0.0,0.0,0.0,0.0,0.0,0.0,0.0,0.0,0.0,-2.1109,0.0,-2.1109,-2.1109,-2.1109,-2.1109,0.0,0.0,0.0,0.0,0.0,0.0,0.0,0.0,0.0,0.0,0.0,0.0,0.0,0.0,0.0,0.0,0.0,0.0,0.0,0.0,0.0,0.0,0.0,0.0,0.0,0.0,0.0,0.0,0.0,0.0,0.0,0.0,0.0,0.0,0.0,0.0,0.0,0.0,0.0,0.0,0.0,0.0,0.0,0.0,0.0,0.0,0.0,0.0,0.0,0.0,0.0,0.0,0.0,0.0,0.0,0.0,0.0,0.0,0.0,0.0,0.0,0.0,0.0,0.0,0.0,0.0,0.0,0.0,0.0,0.0,0.0,0.0,0.0,0.0,0.0,0.0,0.0,0.0,0.0,0.0,0.0,0.0,0.0,0.0,0.0,0.0,0.0,0.0,0.0,0.0,0.0,0.0,0.0,0.0,0.0,0.0,0.0,0.0,0.0,0.0,0.0,0.0,0.0,0.0,0.0,0.0,0.0,0.0,-2.1109,-2.1109,-2.1109,-2.1109,-2.1109,-2.1109,-2.1109,0.0,0.0,0.0,0.0,0.0,0.0,0.0,0.0,0.0,0.0,0.0,0.0,0.0,0.0,0.0,0.0,0.0,0.0,0.0,0.0,0.0,0.0,0.0,0.0,0.0,0.0,0.0,0.0,0.0,0.0,0.0,0.0,0.0,0.0,0.0,0.0,0.0,0.0,0.0,0.0,0.0,0.0,0.0,0.0,0.0,0.0,0.0,0.0,0.0,0.0,0.0,0.0,0.0,0.0,0.0,0.0,0.0,0.0,0.0,0.0,0.0,0.0,0.0,0.0,0.0,0.0,0.0,0.0,0.0,0.0,0.0,0.0,0.0,0.0,0.0,0.0,0.0,0.0,0.0,0.0,0.0,0.0,0.0,0.0,0.0,0.0,0.0,0.0,0.0,0.0,0.0,0.0,0.0,0.0,0.0,0.0,0.0,0.0,0.0,0.0,0.0,0.0,0.0,0.0,0.0,0.0,0.0,0.0,0.0,-2.1109,-2.1109,-2.1109,-2.1109,-2.1109,-2.1109,0.0,0.0,0.0,0.0,0.0,0.0,0.0,0.0,0.0,0.0,0.0,0.0,0.0,0.0,0.0,0.0,0.0,0.0,0.0,0.0,0.0,0.0,0.0,0.0,0.0,0.0,0.0,0.0,0.0,0.0,0.0,0.0,0.0,0.0,0.0,0.0,0.0,0.0,0.0,0.0,0.0,0.0,0.0,0.0,0.0,0.0,0.0,0.0,0.0,0.0,0.0,0.0,0.0,0.0,0.0,0.0,0.0,0.0,0.0,0.0,0.0,0.0,0.0,0.0,0.0,0.0,0.0,0.0,0.0,0.0,0.0,0.0,0.0,0.0,0.0,0.0,0.0,0.0,0.0,0.0,0.0,0.0,0.0,0.0,0.0,0.0,0.0,0.0,0.0,0.0,0.0,0.0,0.0,0.0,0.0,0.0,0.0,0.0,0.0,0.0,0.0,0.0,0.0,0.0,0.0,0.0,0.0,0.0,0.0,-2.1269,-2.1162,-2.1109,-2.1109,-2.1109,-2.1109,-2.1109,0.0,0.0,0.0,0.0,0.0,0.0,0.0,0.0,0.0,0.0,0.0,0.0,0.0,0.0,0.0,0.0,0.0,0.0,0.0,0.0,0.0,0.0,0.0,0.0,0.0,0.0,0.0,0.0,0.0,0.0,0.0,0.0,0.0,0.0,0.0,0.0,0.0,0.0,0.0,0.0,0.0,0.0,0.0,0.0,0.0,0.0,0.0,0.0,0.0,0.0,0.0,0.0,0.0,0.0,0.0,0.0,0.0,0.0,0.0,0.0,0.0,0.0,0.0,0.0,0.0,0.0,0.0,0.0,0.0,0.0,0.0,0.0,0.0,0.0,0.0,0.0,0.0,0.0,0.0,0.0,0.0,0.0,0.0,0.0,0.0,0.0,0.0,0.0,0.0,0.0,0.0,0.0,0.0,0.0,0.0,0.0,0.0,0.0,0.0,0.0,0.0,0.0,0.0,0.0,0.0,0.0,0.0,0.0,-2.1577,-2.1296,-2.1149,-2.1136,-2.1136,-2.1122,0.0,0.0,0.0,0.0,0.0,0.0,0.0,0.0,0.0,0.0,0.0,0.0,0.0,0.0,0.0,0.0,0.0,0.0,0.0,0.0,0.0,0.0,0.0,0.0,0.0,0.0,0.0,0.0,0.0,0.0,0.0,0.0,0.0,0.0,0.0,0.0,0.0,0.0,0.0,0.0,0.0,0.0,0.0,0.0,0.0,0.0,0.0,0.0,0.0,0.0,0.0,0.0,0.0,0.0,0.0,0.0,0.0,0.0,0.0,0.0,0.0,0.0,0.0,0.0,0.0,0.0,0.0,0.0,0.0,0.0,0.0,0.0,0.0,0.0,0.0,0.0,0.0,0.0,0.0,0.0,0.0,0.0,0.0,0.0,0.0,0.0,0.0,0.0,0.0,0.0,0.0,0.0,0.0,0.0,0.0,0.0,0.0,0.0,0.0,0.0,0.0,0.0,0.0,0.0,0.0,0.0,0.0,0.0,0.0,-2.1857,-2.179,-2.1657,-2.1443,-2.1443,-2.1336,0.0,0.0,0.0,0.0,0.0,0.0,0.0,0.0,0.0,0.0,0.0,0.0,0.0,0.0,0.0,0.0,0.0,0.0,0.0,0.0,0.0,0.0,0.0,0.0,0.0,0.0,0.0,0.0,0.0,0.0,0.0,0.0,0.0,0.0,0.0,0.0,0.0,0.0,0.0,0.0,0.0,0.0,0.0,0.0,0.0,0.0,0.0,0.0,0.0,0.0,0.0,0.0,0.0,0.0,0.0,0.0,0.0,0.0,0.0,0.0,0.0,0.0,0.0,0.0,0.0,0.0,0.0,0.0,0.0,0.0,0.0,0.0,0.0,0.0,0.0,0.0,0.0,0.0,0.0,0.0,0.0,0.0,0.0,0.0,0.0,0.0,0.0,0.0,0.0,0.0,0.0,0.0,0.0,0.0,0.0,0.0,0.0,0.0,0.0,0.0,0.0,0.0,0.0,0.0,0.0,0.0,0.0,0.0,-2.1871,-2.2164,-2.2285,-2.2218,-2.1924,-2.1683,-2.147,0.0,0.0,0.0,0.0,0.0,0.0,0.0,0.0,0.0,0.0,0.0,0.0,0.0,0.0,0.0,0.0,0.0,0.0,0.0,0.0,0.0,0.0,0.0,0.0,0.0,0.0,0.0,0.0,0.0,0.0,0.0,0.0,0.0,0.0,0.0,0.0,0.0,0.0,0.0,0.0,0.0,0.0,0.0,0.0,0.0,0.0,0.0,0.0,0.0,0.0,0.0,0.0,0.0,0.0,0.0,0.0,0.0,0.0,0.0,0.0,0.0,0.0,0.0,0.0,0.0,0.0,0.0,0.0,0.0,0.0,0.0,0.0,0.0,0.0,0.0,0.0,0.0,0.0,0.0,0.0,0.0,0.0,0.0,0.0,0.0,0.0,0.0,0.0,0.0,0.0,0.0,0.0,0.0,0.0,0.0,0.0,0.0,0.0,0.0,0.0,0.0,0.0,0.0,0.0,0.0,0.0,0.0,0.0,-2.2178,-2.2458,-2.2726,-2.2739,-2.2458,-2.1937,-2.163,0.0,0.0,0.0,0.0,0.0,0.0,0.0,0.0,0.0,0.0,0.0,0.0,0.0,0.0,0.0,0.0,0.0,0.0,0.0,0.0,0.0,0.0,0.0,0.0,0.0,0.0,0.0,0.0,0.0,0.0,0.0,0.0,0.0,0.0,0.0,0.0,0.0,0.0,0.0,0.0,0.0,0.0,0.0,0.0,0.0,0.0,0.0,0.0,0.0,0.0,0.0,0.0,0.0,0.0,0.0,0.0,0.0,0.0,0.0,0.0,0.0,0.0,0.0,0.0,0.0,0.0,0.0,0.0,0.0,0.0,0.0,0.0,0.0,0.0,0.0,0.0,0.0,0.0,0.0,0.0,0.0,0.0,0.0,0.0,0.0,0.0,0.0,0.0,0.0,0.0,0.0,0.0,0.0,0.0,0.0,0.0,0.0,0.0,0.0,0.0,0.0,0.0,0.0,0.0,0.0,0.0,0.0,0.0,-2.2472,-2.2752,-2.2832,-2.2832,-2.2766,-2.2418,-2.2124,0.0,0.0,0.0,0.0,0.0,0.0,0.0,0.0,0.0,0.0,0.0,0.0,0.0,0.0,0.0,0.0,0.0,0.0,0.0,0.0,0.0,0.0,0.0,0.0,0.0,0.0,0.0,0.0,0.0,0.0,0.0,0.0,0.0,0.0,0.0,0.0,0.0,0.0,0.0,0.0,0.0,0.0,0.0,0.0,0.0,0.0,0.0,0.0,-2.2859,0.0,0.0,0.0,0.0,0.0,0.0,0.0,0.0,0.0,0.0,0.0,0.0,0.0,0.0,0.0,0.0,0.0,0.0,0.0,0.0,0.0,0.0,0.0,0.0,0.0,0.0,0.0,0.0,0.0,0.0,0.0,0.0,0.0,0.0,0.0,0.0,0.0,0.0,0.0,0.0,0.0,0.0,0.0,0.0,0.0,0.0,0.0,0.0,0.0,0.0,0.0,0.0,0.0,0.0,0.0,0.0,0.0,0.0,0.0,-2.2632,-2.306,-2.3086,-2.3073,-2.3073,-2.2926,-2.2645,0.0,0.0,0.0,0.0,0.0,0.0,0.0,0.0,0.0,0.0,0.0,0.0,0.0,0.0,0.0,0.0,0.0,0.0,0.0,0.0,0.0,0.0,0.0,0.0,0.0,0.0,0.0,0.0,0.0,0.0,0.0,0.0,0.0,0.0,0.0,0.0,0.0,0.0,0.0,0.0,0.0,0.0,0.0,0.0,0.0,0.0,0.0,0.0,0.0,0.0,0.0,0.0,0.0,0.0,0.0,0.0,0.0,0.0,0.0,0.0,0.0,0.0,0.0,0.0,0.0,0.0,0.0,0.0,0.0,0.0,0.0,0.0,0.0,0.0,0.0,0.0,0.0,0.0,0.0,0.0,0.0,0.0,0.0,0.0,0.0,0.0,0.0,0.0,0.0,0.0,0.0,0.0,0.0,0.0,0.0,0.0,0.0,0.0,0.0,0.0,0.0,0.0,0.0,0.0,0.0,0.0,0.0,-2.2244,-2.2806,-2.33,-2.338,-2.3394,-2.3394,-2.3354,-2.3086,-2.2579,0.0,0.0,0.0,0.0,0.0,0.0,0.0,0.0,0.0,0.0,0.0,0.0,0.0,0.0,0.0,0.0,0.0,0.0,0.0,0.0,0.0,0.0,0.0,0.0,0.0,0.0,0.0,0.0,0.0,0.0,0.0,0.0,0.0,0.0,0.0,0.0,0.0,0.0,-2.2859,-2.2859,0.0,0.0,0.0,0.0,0.0,0.0,0.0,0.0,-2.2859,0.0,0.0,0.0,0.0,0.0,0.0,0.0,0.0,0.0,0.0,0.0,0.0,0.0,0.0,0.0,0.0,0.0,0.0,0.0,0.0,0.0,0.0,0.0,0.0,0.0,0.0,0.0,0.0,0.0,0.0,0.0,0.0,0.0,0.0,0.0,0.0,0.0,0.0,0.0,0.0,0.0,0.0,0.0,0.0,0.0,0.0,0.0,0.0,0.0,0.0,0.0,0.0,0.0,0.0,0.0,0.0,-2.1949,-2.2461,-2.2941,-2.3327,-2.3567,-2.3701,-2.3688,-2.346,-2.3287,-2.3166,0.0,0.0,0.0,0.0,0.0,0.0,0.0,0.0,0.0,0.0,0.0,0.0,0.0,0.0,0.0,0.0,0.0,0.0,0.0,0.0,0.0,0.0,0.0,0.0,0.0,0.0,0.0,0.0,0.0,0.0,0.0,0.0,0.0,0.0,0.0,0.0,0.0,0.0,0.0,-2.2859,-2.2859,0.0,0.0,0.0,0.0,0.0,0.0,0.0,0.0,-2.2859,0.0,0.0,0.0,0.0,0.0,0.0,0.0,0.0,0.0,0.0,0.0,0.0,0.0,0.0,0.0,0.0,0.0,0.0,0.0,0.0,0.0,0.0,0.0,0.0,0.0,0.0,0.0,0.0,0.0,0.0,0.0,0.0,0.0,0.0,0.0,0.0,0.0,0.0,0.0,0.0,0.0,0.0,0.0,0.0,0.0,0.0,0.0,0.0,0.0,0.0,0.0,0.0,0.0,0.0,0.0,-2.2115,-2.2532,-2.3179,-2.3768,-2.3928,-2.3995,-2.3995,-2.3714,-2.3487,0.0,0.0,0.0,0.0,0.0,0.0,0.0,0.0,0.0,0.0,0.0,0.0,0.0,0.0,0.0,0.0,0.0,0.0,0.0,0.0,0.0,0.0,0.0,0.0,0.0,0.0,0.0,0.0,0.0,0.0,0.0,0.0,0.0,0.0,0.0,0.0,0.0,0.0,0.0,0.0,-2.2859,-2.2859,-2.2859,0.0,0.0,0.0,0.0,0.0,0.0,-2.2859,-2.2859,0.0,0.0,0.0,0.0,0.0,0.0,0.0,0.0,0.0,0.0,0.0,0.0,0.0,0.0,0.0,0.0,0.0,0.0,0.0,0.0,0.0,0.0,0.0,0.0,0.0,0.0,0.0,0.0,0.0,0.0,0.0,0.0,0.0,0.0,0.0,0.0,0.0,0.0,0.0,0.0,0.0,0.0,0.0,0.0,0.0,0.0,0.0,0.0,0.0,0.0,0.0,0.0,0.0,0.0,0.0,-2.2263,-2.26,-2.3287,-2.4182,-2.4262,-2.4289,-2.4289,-2.3955,-2.3661,0.0,0.0,0.0,0.0,0.0,0.0,0.0,0.0,0.0,0.0,0.0,0.0,0.0,0.0,0.0,0.0,0.0,0.0,0.0,0.0,0.0,0.0,0.0,0.0,0.0,0.0,0.0,0.0,0.0,0.0,0.0,0.0,0.0,0.0,0.0,0.0,0.0,0.0,0.0,0.0,0.0,-2.2859,-2.2859,-2.2913,0.0,0.0,0.0,0.0,-2.2953,-2.2899,0.0,0.0,0.0,0.0,0.0,0.0,0.0,0.0,0.0,0.0,0.0,0.0,0.0,0.0,0.0,0.0,0.0,0.0,0.0,0.0,0.0,0.0,0.0,0.0,0.0,0.0,0.0,0.0,0.0,0.0,0.0,0.0,0.0,0.0,0.0,0.0,0.0,0.0,0.0,0.0,0.0,0.0,0.0,0.0,0.0,0.0,0.0,0.0,0.0,0.0,0.0,0.0,0.0,0.0,0.0,0.0,-2.2141,-2.2663,-2.3404,-2.4209,-2.4449,-2.4583,-2.4583,-2.4062,-2.3754,0.0,0.0,0.0,0.0,0.0,0.0,0.0,0.0,0.0,0.0,0.0,0.0,0.0,0.0,0.0,0.0,0.0,0.0,0.0,0.0,0.0,0.0,0.0,0.0,0.0,0.0,0.0,0.0,0.0,0.0,0.0,0.0,0.0,0.0,0.0,0.0,0.0,0.0,0.0,0.0,0.0,-2.2859,-2.2859,-2.31,-2.3273,0.0,0.0,-2.3273,-2.3273,-2.3046,0.0,0.0,0.0,0.0,0.0,0.0,0.0,0.0,0.0,0.0,0.0,0.0,0.0,0.0,0.0,0.0,0.0,0.0,0.0,0.0,0.0,0.0,0.0,0.0,0.0,0.0,0.0,0.0,0.0,0.0,0.0,0.0,0.0,0.0,0.0,0.0,0.0,0.0,0.0,0.0,0.0,0.0,0.0,0.0,0.0,0.0,0.0,0.0,0.0,0.0,0.0,0.0,0.0,0.0,0.0,-2.1157,-2.2408,-2.2828,-2.34,-2.4449,-2.4569,-2.4636,-2.4636,-2.4235,-2.3941,0.0,0.0,0.0,0.0,0.0,0.0,0.0,0.0,0.0,0.0,0.0,0.0,0.0,0.0,0.0,0.0,0.0,0.0,0.0,0.0,0.0,0.0,0.0,0.0,0.0,0.0,0.0,0.0,0.0,0.0,0.0,0.0,0.0,0.0,0.0,0.0,0.0,0.0,0.0,0.0,0.0,0.0,-2.31,-2.3247,0.0,0.0,0.0,-2.3527,-2.3354,0.0,0.0,0.0,0.0,0.0,0.0,0.0,0.0,0.0,0.0,0.0,0.0,0.0,0.0,0.0,0.0,0.0,0.0,0.0,0.0,0.0,0.0,0.0,0.0,0.0,0.0,0.0,0.0,0.0,0.0,0.0,0.0,0.0,0.0,0.0,0.0,0.0,0.0,0.0,0.0,0.0,0.0,0.0,0.0,0.0,0.0,0.0,0.0,0.0,0.0,0.0,0.0,0.0,0.0,0.0,0.0,0.0,-2.2586,-2.2942,-2.3529,-2.4475,-2.4636,-2.4636,-2.4623,-2.4356,0.0,0.0,0.0,0.0,0.0,0.0,0.0,0.0,0.0,0.0,0.0,0.0,0.0,0.0,0.0,0.0,0.0,0.0,0.0,0.0,0.0,0.0,0.0,0.0,0.0,0.0,0.0,-2.2859,0.0,0.0,0.0,0.0,0.0,0.0,0.0,0.0,0.0,0.0,0.0,0.0,0.0,0.0,-2.2979,-2.3287,-2.3394,-2.3541,0.0,0.0,-2.3808,-2.3581,-2.3487,-2.3354,0.0,0.0,0.0,0.0,0.0,0.0,0.0,0.0,0.0,0.0,0.0,0.0,0.0,0.0,0.0,0.0,0.0,0.0,0.0,0.0,0.0,0.0,0.0,0.0,0.0,0.0,0.0,0.0,0.0,0.0,0.0,0.0,0.0,0.0,0.0,0.0,0.0,0.0,0.0,0.0,0.0,0.0,0.0,0.0,0.0,0.0,0.0,0.0,0.0,0.0,0.0,0.0,0.0,0.0,0.0,-2.2612,-2.3133,-2.3722,-2.4636,-2.4636,-2.4636,-2.4636,-2.4356,-2.4195,0.0,0.0,0.0,0.0,0.0,0.0,0.0,0.0,0.0,0.0,0.0,0.0,0.0,0.0,0.0,0.0,0.0,0.0,0.0,0.0,0.0,0.0,0.0,0.0,0.0,0.0,0.0,0.0,0.0,0.0,0.0,0.0,0.0,0.0,0.0,0.0,0.0,0.0,0.0,0.0,0.0,-2.2966,-2.3287,-2.3567,-2.3848,0.0,0.0,-2.4168,-2.4142,-2.3915,-2.3741,-2.3714,0.0,0.0,0.0,0.0,0.0,0.0,0.0,0.0,0.0,0.0,0.0,0.0,0.0,0.0,0.0,0.0,0.0,0.0,0.0,0.0,0.0,0.0,0.0,0.0,0.0,0.0,0.0,0.0,0.0,0.0,0.0,0.0,0.0,0.0,0.0,0.0,0.0,0.0,0.0,0.0,0.0,0.0,0.0,0.0,0.0,0.0,0.0,0.0,0.0,0.0,0.0,0.0,0.0,-2.1245,-2.2866,-2.3248,-2.3748,-2.4488,-2.4636,-2.4636,-2.4636,-2.4529,-2.4382,0.0,0.0,0.0,0.0,0.0,0.0,0.0,0.0,0.0,0.0,0.0,0.0,0.0,0.0,0.0,0.0,0.0,0.0,0.0,0.0,0.0,0.0,0.0,0.0,0.0,0.0,0.0,0.0,-2.2859,-2.2859,-2.2859,0.0,0.0,0.0,0.0,0.0,0.0,0.0,0.0,0.0,0.0,-2.2979,-2.3287,-2.3581,0.0,0.0,-2.4356,-2.4409,-2.4235,-2.4102,-2.3981,-2.3794,-2.3781,0.0,0.0,0.0,0.0,0.0,0.0,0.0,0.0,0.0,0.0,0.0,0.0,0.0,0.0,0.0,0.0,0.0,0.0,0.0,0.0,0.0,0.0,0.0,0.0,0.0,0.0,0.0,0.0,0.0,0.0,0.0,0.0,0.0,0.0,0.0,0.0,0.0,0.0,0.0,0.0,0.0,0.0,0.0,0.0,0.0,0.0,0.0,0.0,0.0,0.0,0.0,0.0,-2.1305,-2.3031,-2.3446,-2.3896,-2.4636,-2.4636,-2.4636,-2.4636,-2.4636,-2.4543,0.0,0.0,0.0,0.0,0.0,0.0,0.0,0.0,0.0,0.0,0.0,0.0,0.0,0.0,0.0,0.0,0.0,0.0,0.0,0.0,0.0,0.0,0.0,0.0,0.0,0.0,0.0,0.0,-2.2859,-2.2859,-2.2859,0.0,0.0,0.0,0.0,0.0,0.0,0.0,0.0,0.0,0.0,-2.3006,-2.3407,-2.3634,-2.3901,-2.4275,-2.4502,-2.4569,-2.4369,-2.4329,-2.4262,-2.4062,0.0,0.0,0.0,0.0,0.0,0.0,0.0,0.0,0.0,0.0,0.0,0.0,0.0,0.0,0.0,0.0,0.0,0.0,0.0,0.0,0.0,0.0,0.0,0.0,0.0,0.0,0.0,0.0,0.0,0.0,-1.0955,0.0,0.0,0.0,0.0,0.0,0.0,0.0,0.0,0.0,0.0,0.0,0.0,0.0,0.0,0.0,0.0,0.0,0.0,0.0,0.0,0.0,0.0,-2.1583,-2.3031,-2.3606,-2.4193,-2.4636,-2.4636,-2.4636,-2.4636,-2.4636,-2.4623,-2.4609,0.0,0.0,0.0,0.0,0.0,0.0,0.0,0.0,0.0,0.0,0.0,0.0,0.0,0.0,0.0,0.0,0.0,0.0,0.0,0.0,0.0,0.0,0.0,0.0,0.0,0.0,-2.2859,-2.2859,-2.2859,0.0,0.0,0.0,0.0,0.0,0.0,0.0,0.0,0.0,0.0,-2.2873,-2.3086,-2.3674,-2.3768,-2.3981,-2.4529,-2.4623,-2.4636,-2.4623,-2.4623,-2.4623,0.0,0.0,0.0,0.0,0.0,0.0,0.0,0.0,0.0,0.0,0.0,0.0,0.0,0.0,0.0,0.0,0.0,0.0,0.0,0.0,0.0,0.0,0.0,0.0,0.0,0.0,0.0,-1.1833,-1.1704,0.0,0.0,0.0,0.0,0.0,0.0,0.0,0.0,0.0,0.0,0.0,-1.543,-1.6158,0.0,0.0,0.0,0.0,0.0,0.0,0.0,0.0,0.0,0.0,0.0,0.0,-2.1667,-2.3286,-2.3696,-2.4193,-2.4636,-2.4636,-2.4636,-2.4636,-2.4636,-2.4636,-2.4636,0.0,0.0,0.0,0.0,0.0,0.0,0.0,0.0,0.0,0.0,0.0,0.0,0.0,0.0,0.0,0.0,0.0,0.0,0.0,0.0,0.0,0.0,0.0,0.0,0.0,-2.2859,0.0,0.0,0.0,0.0,0.0,0.0,0.0,0.0,0.0,0.0,0.0,-2.3166,-2.3166,-2.334,-2.3541,-2.3741,-2.3928,-2.4128,0.0,0.0,0.0,0.0,0.0,0.0,0.0,0.0,0.0,0.0,0.0,0.0,0.0,0.0,-2.4863,-2.4676,-2.4636,-2.473,-2.5024,0.0,0.0,0.0,0.0,0.0,0.0,0.0,0.0,0.0,0.0,0.0,0.0,0.0,0.0,-1.2268,0.0,-1.2051,0.0,0.0,0.0,0.0,0.0,0.0,0.0,0.0,-1.4115,-1.462,-1.5476,-1.6066,-1.6655,0.0,-1.7536,-1.7524,0.0,0.0,0.0,0.0,0.0,0.0,0.0,0.0,-2.1946,-2.3426,-2.3896,-2.4341,-2.4636,-2.4636,-2.4636,-2.4636,-2.4636,-2.4636,-2.4636,-2.4462,-2.4315,0.0,0.0,0.0,0.0,0.0,0.0,0.0,0.0,0.0,0.0,0.0,0.0,0.0,0.0,0.0,0.0,0.0,0.0,0.0,0.0,0.0,0.0,0.0,-2.2859,0.0,0.0,0.0,0.0,0.0,0.0,0.0,0.0,0.0,-2.302,-2.3207,-2.3367,-2.3474,-2.3647,-2.3808,-2.3915,0.0,0.0,0.0,0.0,0.0,0.0,0.0,-2.4783,-2.4783,-2.5037,-2.5224,-2.5237,-2.5384,-2.5518,-2.5518,0.0,0.0,-2.5264,-2.5237,-2.5291,-2.5478,-2.5518,-2.5518,-2.5518,-2.5518,-2.5518,0.0,0.0,0.0,0.0,0.0,0.0,0.0,0.0,-1.2567,-1.2436,0.0,-1.247,0.0,0.0,0.0,0.0,0.0,-1.359,0.0,0.0,-1.444,-1.4596,-1.5049,-1.5502,-1.6093,-1.6821,-1.7115,-1.7262,-1.739,-1.7194,0.0,0.0,0.0,0.0,0.0,0.0,-2.2423,-2.3438,-2.4193,-2.4636,-2.4636,-2.4636,-2.4636,-2.4636,-2.4636,-2.4636,-2.4636,-2.4623,-2.4502,-2.4235,-2.4209,0.0,0.0,0.0,0.0,0.0,0.0,0.0,0.0,0.0,0.0,0.0,0.0,0.0,0.0,0.0,0.0,0.0,0.0,0.0,0.0,-2.2886,0.0,0.0,0.0,0.0,0.0,0.0,0.0,0.0,0.0,0.0,-2.3367,-2.3367,-2.346,-2.3754,0.0,0.0,0.0,0.0,-2.4315,-2.4609,-2.4649,-2.4663,-2.4676,-2.4903,-2.509,-2.5077,0.0,0.0,-2.5545,-2.5545,-2.5558,-2.5545,-2.5571,-2.5545,-2.5558,-2.5545,-2.5545,-2.5558,-2.5585,-2.5545,-2.5545,-2.5598,-2.5585,-1.7062,0.0,0.0,0.0,0.0,-1.4955,-1.4595,-1.4032,-1.3891,-1.3823,-1.3658,-1.3426,0.0,0.0,0.0,0.0,0.0,0.0,-1.4308,-1.4627,-1.4627,-1.4851,-1.543,-1.5582,-1.5885,-1.6339,-1.6491,-1.6642,-1.6926,-1.674,-1.7154,-1.7885,0.0,0.0,0.0,0.0,-2.2129,-2.3426,-2.3883,-2.4341,-2.4636,-2.4636,-2.4636,-2.4636,-2.4636,-2.4636,-2.4636,-2.4636,-2.4596,-2.4516,-2.4315,0.0,0.0,0.0,0.0,0.0,0.0,0.0,0.0,0.0,0.0,0.0,0.0,0.0,0.0,0.0,0.0,0.0,0.0,0.0,-2.318,-2.338,-2.342,0.0,0.0,0.0,0.0,0.0,0.0,0.0,0.0,0.0,-2.3928,-2.3955,-2.3981,0.0,0.0,-2.4422,-2.4502,-2.4502,-2.4609,-2.4903,-2.4957,0.0,-2.5237,-2.5331,-2.5317,-2.5117,-2.5317,-2.5651,-2.6066,-2.6132,-2.6132,-2.6132,-2.6132,-2.6132,-2.6119,-2.5959,-2.5919,-2.6079,-2.6132,-2.6132,-2.6146,-2.6146,-2.6146,-1.9116,-1.7436,-1.6927,-1.6574,-1.6368,-1.6224,-1.5705,-1.4983,-1.4839,-1.4617,-1.4278,-1.3984,-1.404,-1.4432,-1.4136,0.0,0.0,0.0,-1.4635,-1.4806,-1.4662,-1.4718,-1.5122,-1.4968,-1.5122,-1.5744,-1.5744,-1.605,-1.6501,-1.6536,-1.702,-1.7803,0.0,0.0,-2.0672,-2.1219,-2.1929,-2.3141,-2.3748,-2.4245,-2.4512,-2.4781,-2.493,-2.481,-2.481,-2.4756,-2.4636,-2.4636,-2.4636,-2.4636,-2.4476,-2.4315,0.0,0.0,0.0,0.0,0.0,0.0,0.0,0.0,0.0,0.0,0.0,-2.2859,0.0,0.0,0.0,0.0,-2.3153,-2.33,-2.3487,-2.3661,0.0,0.0,0.0,0.0,0.0,0.0,0.0,-2.3928,-2.3941,-2.4048,-2.4342,-2.4476,-2.4502,-2.4396,-2.4623,-2.481,-2.481,0.0,-2.501,-2.5077,-2.5184,-2.5277,-2.5331,-2.5531,-2.5665,-2.5611,-2.5745,-2.5959,-2.6306,-2.648,-2.656,-2.6573,-2.6653,-2.6734,-2.6734,-2.6587,-2.648,-2.6547,-2.6653,-2.6734,-2.6734,-2.6734,-2.6734,-2.1065,-2.0318,-1.8939,-1.8373,-1.7956,-1.7233,-1.6508,-1.5762,-1.5476,-1.4884,-1.4448,-1.4456,-1.4456,-1.4473,-1.4473,0.0,-1.4732,-1.4732,-1.4814,-1.4814,-1.4515,-1.4368,-1.4368,-1.3898,-1.4199,-1.4968,-1.4968,-1.5429,-1.6203,-1.6501,-1.6959,-1.7416,-1.798,-1.9064,-2.0569,-2.1233,-2.1948,-2.2856,-2.36,-2.4175,-2.4612,-2.5192,-2.5358,-2.509,-2.5064,-2.4917,-2.4649,-2.4636,-2.4636,-2.4636,-2.4636,-2.4516,-2.4249,0.0,0.0,0.0,0.0,0.0,0.0,0.0,0.0,0.0,0.0,0.0,0.0,0.0,0.0,0.0,-2.3634,0.0,-2.3808,-2.3834,0.0,0.0,0.0,-2.3834,-2.3808,-2.3848,-2.3981,-2.4235,0.0,0.0,-2.4663,-2.4943,-2.501,-2.4743,-2.4943,-2.5104,-2.509,-2.5317,-2.5411,-2.517,-2.5371,-2.5464,-2.5344,-2.5678,-2.6066,-2.6266,-2.6413,-2.6413,-2.6453,-2.6667,-2.6841,-2.6867,-2.7081,-2.7255,-2.7255,-2.7228,-2.7215,-2.6947,-2.7081,-2.7255,-2.7228,-2.7215,-2.7215,-2.1607,-2.1471,-2.0827,-1.9994,-1.8842,-1.8696,-1.7819,-1.6508,-1.6361,-1.5999,-1.5535,-1.5535,-1.5462,-1.5303,-1.5303,-1.5023,-1.446,-1.446,-1.4322,-1.4045,-1.3898,-1.3898,-1.3898,-1.3737,-1.4053,-1.4515,-1.4515,-1.4976,-1.5744,-1.5888,-1.6348,-1.7426,-1.7531,-1.8401,-1.9908,-2.0414,-2.1199,-2.2408,-2.3141,-2.4026,-2.4913,-2.5144,-2.5157,-2.5077,-2.4863,-2.4703,-2.4636,-2.4636,-2.4636,-2.4636,-2.4636,-2.4596,-2.4529,-2.4262,0.0,0.0,0.0,0.0,0.0,0.0,0.0,0.0,0.0,-2.322,-2.322,0.0,-2.3661,0.0,-2.3928,-2.4102,-2.4102,-2.4302,0.0,0.0,-2.4302,-2.4342,-2.4128,-2.4502,-2.4796,-2.4863,-2.5064,-2.5224,-2.5291,-2.5371,-2.5384,-2.5317,-2.5358,-2.5331,-2.513,-2.5331,-2.5491,-2.5451,-2.5665,-2.5905,-2.6026,-2.6186,-2.6306,-2.6373,-2.6573,-2.672,-2.672,-2.6961,-2.7161,-2.7161,-2.7215,-2.7268,-2.7268,-2.7442,-2.7562,-2.7495,-2.7375,-2.7268,-2.7268,-2.7268,-2.7268,-2.1626,-2.1597,-2.1312,-2.0466,-1.9445,-1.9297,-1.8556,-1.7375,-1.6927,-1.6542,-1.6045,-1.5885,-1.5641,-1.5275,-1.5275,-1.4976,-1.4361,-1.4361,-1.4207,-1.3744,-1.3436,-1.3428,-1.3428,-1.3274,-1.3428,-1.4053,-1.4053,-1.4515,-1.5283,-1.5675,-1.6026,-1.6798,-1.6952,-1.7605,-1.8916,-1.9789,-2.0793,-2.2126,-2.3416,-2.4379,-2.5159,-2.5445,-2.5598,-2.5464,-2.5317,-2.5104,-2.4836,-2.4836,-2.4783,-2.4636,-2.4636,-2.4636,-2.4623,-2.4356,-2.4209,0.0,0.0,0.0,0.0,0.0,0.0,0.0,0.0,0.0,0.0,0.0,-2.4008,-2.4142,-2.4302,-2.4396,-2.4396,-2.4663,-2.477,-2.4609,-2.485,-2.4957,-2.4796,-2.5077,-2.5264,-2.5277,-2.5411,-2.5518,-2.5518,-2.5625,-2.5705,-2.5705,-2.5825,-2.5798,-2.5558,-2.5718,-2.5865,-2.5745,-2.5959,-2.6199,-2.6373,-2.64,-2.64,-2.64,-2.652,-2.6627,-2.664,-2.6867,-2.7068,-2.7081,-2.7281,-2.7468,-2.7468,-2.7696,-2.7896,-2.7869,-2.7776,-2.7669,-2.7655,-2.7655,-2.7655,-2.1199,-2.106,-2.106,-2.0447,-1.9693,-1.9239,-1.8633,-1.7873,-1.7111,-1.6501,-1.6203,-1.5744,-1.5429,-1.5122,-1.5122,-1.4822,-1.4361,-1.4361,-1.4053,-1.359,-1.3281,-1.312,-1.312,-1.2811,-1.312,-1.3744,-1.3759,-1.423,-1.5009,-1.5499,-1.5912,-1.5912,-1.6216,-1.6921,-1.7864,-1.906,-2.0483,-2.2248,-2.3798,-2.4854,-2.5322,-2.6042,-2.6213,-2.5972,-2.5919,-2.5665,-2.5157,-2.513,-2.5024,-2.477,-2.4743,-2.4756,-2.4743,-2.4516,-2.4369,0.0,-2.4102,0.0,0.0,0.0,0.0,0.0,0.0,0.0,0.0,-2.4128,-2.4422,-2.4676,-2.473,-2.4743,-2.4743,-2.4983,-2.513,-2.5144,-2.5358,-2.5518,-2.5504,-2.5545,-2.5571,-2.5571,-2.5598,-2.5625,-2.5651,-2.5852,-2.6012,-2.6079,-2.6226,-2.6266,-2.6132,-2.6226,-2.6239,-2.5999,-2.6199,-2.6373,-2.64,-2.6426,-2.6453,-2.6413,-2.656,-2.6533,-2.656,-2.6827,-2.7028,-2.7081,-2.7495,-2.7816,-2.7816,-2.807,-2.8257,-2.8283,-2.827,-2.8243,-2.819,-2.8177,-2.8217,-2.091,-2.0586,-2.0586,-1.9833,-1.8774,-1.8319,-1.8025,-1.7426,-1.6959,-1.6501,-1.6203,-1.605,-1.5897,-1.5429,-1.5429,-1.513,-1.4361,-1.4361,-1.3898,-1.3274,-1.3436,-1.3428,-1.312,-1.3428,-1.3744,-1.4214,-1.4338,-1.4719,-1.5187,-1.5374,-1.5781,-1.6089,-1.6081,-1.6573,-1.7399,0.0,0.0,0.0,-2.3741,-2.4528,-2.5322,-2.5843,-2.6012,-2.5945,-2.5718,0.0,-2.5438,-2.5424,-2.5411,-2.5344,-2.5344,0.0,0.0,0.0,0.0,0.0,0.0,0.0,0.0,0.0,0.0,0.0,-2.5184,-2.489,-2.4209,-2.4609,-2.4943,-2.4997,-2.5211,-2.5344,-2.5344,-2.5398,-2.5424,-2.5438,-2.5478,-2.5518,-2.5518,-2.5732,-2.5865,-2.5879,-2.6079,-2.6226,-2.6226,-2.6279,-2.64,-2.6587,-2.6507,-2.648,-2.6613,-2.648,-2.6279,-2.6039,-2.6213,-2.6386,-2.64,-2.6587,-2.664,-2.6533,-2.7028,-2.7295,-2.7175,-2.7522,-2.7869,-2.7869,-2.819,-2.8417,-2.8417,-2.8671,-2.8831,-2.8858,-2.8858,-2.8804,-2.8564,-2.8524,-2.8577,-2.0145,0.0,-1.9542,-1.9088,0.0,-1.7873,-1.7426,-1.6815,-1.6662,-1.6357,-1.5897,-1.5897,-1.5744,-1.5275,-1.5275,-1.4976,-1.4361,-1.4361,-1.4053,-1.3428,-1.3583,-1.3583,-1.3428,-1.3583,-1.3944,-1.4182,-1.4266,-1.4453,-1.4625,-1.4789,-1.4987,-1.505,-1.5208,-1.5731,-1.644,-1.7566,-1.9447,-2.2102,-2.314,-2.4153,-2.4804,-2.5268,-2.5577,-2.5732,0.0,0.0,0.0,0.0,0.0,0.0,0.0,0.0,0.0,0.0,0.0,-2.5504,-2.5371,-2.5358,-2.5491,-2.5384,-2.5358,-2.5504,-2.5518,-2.5331,-2.4877,-2.513,-2.5291,-2.5304,-2.5424,-2.5518,-2.5518,-2.5651,-2.5732,-2.5732,-2.5865,-2.5945,-2.5959,-2.6079,-2.6226,-2.636,-2.6507,-2.6653,-2.68,-2.6814,-2.68,-2.6814,-2.6707,-2.66,-2.6587,-2.648,-2.6319,-2.6186,-2.6279,-2.644,-2.6587,-2.6707,-2.6921,-2.7041,-2.7402,-2.7669,-2.7709,-2.7949,-2.815,-2.8163,-2.8404,-2.8604,-2.8631,-2.8845,-2.9045,-2.9045,-2.9045,-2.9058,-2.9018,-2.8925,-2.8858,-1.939,-1.9088,-1.8643,-1.8187,-1.7721,-1.7273,-1.6662,-1.605,0.0,0.0,0.0,-1.559,-1.5429,-1.5122,-1.4968,-1.4814,-1.4515,-1.4515,-1.4207,-1.3898,-1.3898,-1.3906,-1.3936,-1.3936,-1.4011,-1.4147,-1.4185,-1.4177,-1.4005,-1.4147,-1.4162,-1.4035,-1.4365,-1.4955,-1.5626,-1.7271,-1.9016,-2.0852,-2.2437,-2.3551,-2.4288,-2.483,-2.5334,-2.5604,-2.5985,-2.5972,-2.5692,-2.5852,-2.5838,-2.5611,-2.5545,-2.5558,-2.5665,-2.5665,-2.5718,-2.5812,-2.5772,-2.5758,-2.5812,-2.5772,-2.5745,-2.5745,-2.5745,-2.5678,-2.5531,-2.5558,-2.5598,-2.5598,-2.5638,-2.5692,-2.5745,-2.5959,-2.6132,-2.6186,-2.64,-2.6547,-2.6547,-2.6547,-2.6653,-2.6854,-2.6841,-2.6907,-2.7108,-2.7094,-2.7054,-2.6867,-2.68,-2.6814,-2.664,-2.6573,-2.6493,-2.648,-2.6613,-2.6747,-2.6921,-2.7081,-2.7241,-2.7655,-2.7802,-2.7949,-2.815,-2.827,-2.8297,-2.835,-2.8551,-2.8724,-2.8724,-2.8938,-2.9085,-2.9045,-2.9045,-2.9112,-2.9312,-2.9219,-2.9085,-1.9098,-1.8643,-1.7883,-1.7121,-1.6357,-1.6042,-1.5582,-1.5275,-1.5582,-1.5582,-1.559,-1.559,-1.559,-1.5429,-1.5122,-1.4968,-1.4968,-1.4968,-1.4661,-1.4361,-1.4661,-1.474,-1.4571,-1.4891,-1.4743,-1.4618,-1.4766,-1.4441,-1.4013,-1.4147,-1.4214,-1.4214,-1.4501,-1.5039,-1.6178,-1.768,-1.8763,-1.9563,-2.1662,-2.3117,-2.3915,-2.5486,-2.6261,-2.62,-2.6507,-2.656,-2.6279,-2.6066,-2.5932,-2.5892,-2.5651,-2.5732,-2.6226,-2.6266,-2.6493,-2.6947,-2.6774,-2.6747,-2.6987,-2.6787,-2.664,-2.664,-2.664,-2.6319,-2.5598,-2.5745,-2.5905,-2.5905,-2.6132,-2.6373,-2.66,-2.6653,-2.6774,-2.7014,-2.7108,-2.7148,-2.7094,-2.7094,-2.7094,-2.7148,-2.6974,-2.6827,-2.6907,-2.6734,-2.672,-2.68,-2.6947,-2.7001,-2.7295,-2.7081,-2.68,-2.6827,-2.7201,-2.7495,-2.7589,-2.7802,-2.7963,-2.8056,-2.8323,-2.8497,-2.8564,-2.8751,-2.8858,-2.8898,-2.9072,-2.9179,-2.9018,-2.9219,-2.9245,-2.9098,-2.9045,-2.9072,-2.9138,-2.9072,-2.9179,-1.8643,-1.8177,-1.7416,-1.6662,-1.6203,-1.5744,-1.5429,-1.5429,-1.5429,-1.5429,-1.5275,-1.5275,-1.5275,-1.5275,-1.5113,-1.4968,-1.4968,-1.4968,-1.4968,-1.483,-1.5065,-1.4951,-1.4788,-1.4875,-1.461,-1.4304,-1.4065,-1.3749,-1.3376,-1.3518,-1.3596,-1.3604,-1.4238,-1.5,-1.5878,-1.6768,-1.7702,-1.8503,-2.0642,-2.2259,-2.3103,-2.4281,-2.5148,-2.5505,-2.6109,-2.6293,-2.6159,-2.6172,-2.6186,-2.6186,-2.6213,-2.6346,-2.6613,-2.6774,-2.6987,-2.7241,-2.7148,-2.7121,-2.7255,-2.7134,-2.7068,-2.7068,-2.7054,-2.6907,-2.6507,-2.6587,-2.6667,-2.6667,-2.68,-2.6921,-2.7054,-2.7054,-2.7121,-2.7255,-2.7268,-2.7201,-2.7054,-2.7028,-2.7028,-2.7014,-2.6907,-2.6881,-2.7041,-2.7081,-2.7134,-2.7295,-2.7415,-2.7655,-2.7909,-2.7869,-2.7722,-2.7602,-2.7776,-2.7989,-2.815,-2.8283,-2.8511,-2.8804,-2.8978,-2.9072,-2.9085,-2.9205,-2.9192,-2.9072,-2.9165,-2.9179,-2.9045,-2.9138,-2.9152,-2.9112,-2.9045,-2.9045,-2.9045,-2.9045,-2.9138,-1.8339,-1.7873,-1.7111,-1.651,-1.6203,-1.5744,-1.559,-1.559,-1.5479,-1.5341,-1.5025,-1.5138,-1.5122,-1.5122,-1.5009,-1.5025,-1.5025,-1.5025,-1.5025,-1.5041,-1.513,-1.5122,-1.4895,-1.4704,-1.4296,-1.384,-1.3555,-1.3082,-1.2752,-1.2888,-1.2976,-1.3185,-1.3973,-1.4652,-1.5207,-1.5723,-1.6529,-1.7636,-1.9533,-2.1125,-2.2142,-2.3164,-2.4153,-2.4894,-2.5726,-2.6119,-2.6066,-2.6213,-2.6293,-2.6293,-2.644,-2.6587,-2.672,-2.6934,-2.7121,-2.7241,-2.7268,-2.7268,-2.7255,-2.7201,-2.7161,-2.7161,-2.7161,-2.7161,-2.7175,-2.7228,-2.7268,-2.7268,-2.7241,-2.7281,-2.7335,-2.7295,-2.7295,-2.7348,-2.7295,-2.7188,-2.6974,-2.6921,-2.6947,-2.7001,-2.7028,-2.7148,-2.7415,-2.7655,-2.7802,-2.7909,-2.811,-2.8257,-2.835,-2.8564,-2.8577,-2.8444,-2.835,-2.843,-2.8671,-2.8698,-2.8885,-2.9339,-2.9352,-2.9299,-2.9312,-2.9352,-2.9312,-2.9085,-2.9045,-2.9018,-2.8965,-2.8938,-2.8898,-2.8818,-2.8831,-2.8938,-2.9032,-2.9045,-2.9045,-1.8339,-1.7873,-1.7111,-1.651,-1.6203,-1.5744,-1.559,-1.5607,-1.5294,-1.522,-1.5179,-1.535,-1.559,-1.5454,-1.5286,-1.5195,-1.5195,-1.5212,-1.5204,-1.5179,-1.5057,-1.4911,-1.4563,-1.4602,-1.414,-1.354,-1.3497,-1.3172,-1.2752,-1.2901,-1.303,-1.3322,-1.3802,-1.4268,-1.4543,-1.5524,-1.6205,-1.6402,-1.7915,-1.9473,-2.1394,-2.3085,-2.4208,-2.4951,-2.5757,-2.6294,-2.636,-2.6119,-2.5999,-2.5972,-2.5798,-2.5905,-2.6373,-2.6466,-2.672,-2.7215,-2.7268,-2.7268,-2.7255,-2.7014,-2.6894,-2.6867,-2.6907,-2.6907,-2.6921,-2.7148,-2.7268,-2.7308,-2.7295,-2.7362,-2.7602,-2.7415,-2.7375,-2.7615,-2.7455,-2.7255,-2.7281,-2.7228,-2.7321,-2.7589,-2.7589,-2.7722,-2.7936,-2.8056,-2.8203,-2.8404,-2.8497,-2.8631,-2.8818,-2.8898,-2.8951,-2.8925,-2.8938,-2.8911,-2.8965,-2.8991,-2.9018,-2.9098,-2.9098,-2.9098,-2.9098,-2.9085,-2.9045,-2.8991,-2.9005,-2.8925,-2.8791,-2.8644,-2.8591,-2.8577,-2.8631,-2.8751,-2.8965,-2.9045,-2.9045,-1.8633,-1.8025,-1.7416,-1.6653,-1.5897,-1.5582,-1.5429,-1.5283,-1.5195,-1.5074,-1.5065,-1.5146,-1.5333,-1.5277,-1.5098,-1.5074,-1.5074,-1.5074,-1.4927,-1.478,-1.4796,-1.4493,-1.4167,-1.4042,-1.3763,-1.3383,-1.32,-1.3082,-1.2915,-1.3105,-1.3254,-1.3315,-1.3957,-1.4187,-1.4166,-1.4885,-1.5599,-1.63,-1.6801,-1.8144,-2.002,-2.1893,-2.3598,-2.4608,-2.5463,-2.5983,-2.6174,-2.6215,-2.6213,-2.6213,-2.6253,-2.64,-2.6627,-2.6814,-2.7014,-2.7241,-2.7268,-2.7268,-2.7268,-2.7148,-2.7081,-2.7081,-2.7241,-2.7335,-2.7362,-2.7776,-2.8056,-2.8003,-2.7575,-2.7321,-2.7428,-2.7335,-2.7455,-2.7843,-2.7856,-2.7843,-2.8043,-2.8043,-2.8056,-2.7989,-2.7963,-2.7989,-2.8136,-2.831,-2.8457,-2.8617,-2.8724,-2.8911,-2.9018,-2.9045,-2.9045,-2.9018,-2.8898,-2.8871,-2.8978,-2.9045,-2.9032,-2.9032,-2.9045,-2.9018,-2.8831,-2.8791,-2.8778,-2.8791,-2.8818,-2.8871,-2.8898,-2.8858,-2.8804,-2.8698,-2.8711,-2.8911,-2.9018,-2.9045,-2.9045,-1.8633,-1.7873,-1.7578,-1.6815,-1.5888,-1.5735,-1.5582,-1.513,-1.5017,-1.5041,-1.4887,-1.4887,-1.4951,-1.4891,-1.4943,-1.4887,-1.4887,-1.4732,-1.4578,-1.4291,-1.4399,-1.4079,-1.3693,-1.3612,-1.3532,-1.331,-1.3109,-1.3044,-1.3098,-1.3281,-1.3397,-1.3417,-1.3839,-1.4027,-1.3971,-1.4289,-1.4862,-1.5861,-1.6045,-1.7138,-1.9147,-2.0899,-2.2521,-2.4105,-2.5099,-2.5664,-2.6313,-2.6587,-2.6627,-2.664,-2.6907,-2.7068,-2.7081,-2.7348,-2.7509,-2.7509,-2.7509,-2.7509,-2.7509,-2.7509,-2.7509,-2.7522,-2.7709,-2.7816,-2.7896,-2.823,-2.8457,-2.8404,-2.7816,-2.7455,-2.7736,-2.7682,-2.7829,-2.8217,-2.8203,-2.8243,-2.8417,-2.843,-2.8257,-2.8163,-2.811,-2.823,-2.8377,-2.8591,-2.8738,-2.8764,-2.8911,-2.8991,-2.8938,-2.8911,-2.8885,-2.8804,-2.8591,-2.8617,-2.8845,-2.8791,-2.8818,-2.8818,-2.8804,-2.8831,-2.8657,-2.8657,-2.8738,-2.8885,-2.8764,-2.8764,-2.8925,-2.9005,-2.9112,-2.9152,-2.9165,-2.9205,-2.9339,-2.9299,-2.9299,-1.8187,-1.7426,-1.7426,-1.7121,-1.6653,-1.6203,-1.5897,-1.5445,-1.5294,-1.4899,-1.4571,-1.4579,-1.4438,-1.4125,-1.4422,-1.4587,-1.4587,-1.4266,-1.4109,-1.396,-1.399,-1.3833,-1.3362,-1.3511,-1.3429,-1.3123,-1.3098,-1.3227,-1.3356,-1.339,-1.3397,-1.3403,-1.3424,-1.3492,-1.3587,-1.3782,-1.4203,-1.5183,-1.5717,-1.6812,-1.8687,-1.9904,-2.1335,-2.3189,-2.4625,-2.5615,-2.6436,-2.7065,-2.7215,-2.7215,-2.7455,-2.7615,-2.7655,-2.7896,-2.803,-2.8043,-2.8056,-2.8056,-2.803,-2.8003,-2.8016,-2.8043,-2.8016,-2.8096,-2.8043,-2.8177,-2.8243,-2.8177,-2.7963,-2.8056,-2.8657,-2.8404,-2.8364,-2.847,-2.8297,-2.8177,-2.8203,-2.811,-2.7923,-2.8123,-2.823,-2.839,-2.8885,-2.9005,-2.8938,-2.8925,-2.8991,-2.8925,-2.8724,-2.8644,-2.8551,-2.8404,-2.831,-2.8297,-2.8551,-2.8564,-2.8364,-2.8457,-2.8724,-2.8684,-2.8738,-2.8791,-2.8925,-2.9018,-2.9018,-2.9032,-2.9045,-2.9125,-2.9259,-2.9352,-2.9446,-2.9526,-2.9633,-2.9806,-2.978,-1.7721,-1.6959,-1.6815,-1.6357,-1.6042,-1.5582,-1.5283,-1.483,-1.4423,-1.4136,-1.3981,-1.3981,-1.3981,-1.3834,-1.3781,-1.3931,-1.3996,-1.3938,-1.3833,-1.3526,-1.362,-1.3511,-1.3214,-1.3185,-1.3253,-1.3119,-1.3247,-1.3342,-1.339,-1.3397,-1.3397,-1.3424,-1.3505,-1.358,-1.3634,-1.3722,-1.4351,-1.5354,-1.5541,-1.6655,-1.8556,-1.9269,-2.0441,-2.2417,-2.3967,-2.5224,-2.639,-2.6718,-2.6941,-2.7268,-2.7362,-2.7415,-2.7428,-2.7522,-2.7589,-2.7589,-2.7575,-2.7575,-2.7575,-2.7589,-2.7575,-2.7602,-2.7762,-2.7896,-2.7936,-2.8203,-2.8444,-2.8444,-2.8537,-2.8751,-2.8751,-2.8283,-2.7909,-2.8217,-2.823,-2.831,-2.8604,-2.8617,-2.8604,-2.8684,-2.8711,-2.8764,-2.8751,-2.8764,-2.8684,-2.8511,-2.847,-2.8551,-2.8617,-2.8604,-2.8631,-2.8711,-2.8711,-2.8751,-2.8845,-2.8644,-2.8497,-2.8684,-2.8858,-2.8898,-2.8951,-2.8991,-2.9098,-2.9299,-2.9325,-2.9379,-2.9419,-2.9499,-2.9593,-2.9633,-2.9713,-2.9726,-2.9887,-2.9913,-2.9913,-1.6959,-1.6348,-1.605,-1.559,-1.5122,-1.4968,-1.4507,-1.4207,-1.3898,-1.3612,-1.3656,-1.3508,-1.3538,-1.344,-1.3232,-1.3225,-1.3447,-1.3555,-1.344,-1.3296,-1.3436,-1.3346,-1.3051,-1.318,-1.3241,-1.3261,-1.3349,-1.3397,-1.341,-1.3451,-1.3471,-1.3485,-1.3627,-1.3729,-1.3783,-1.3871,-1.4333,-1.5162,-1.5585,-1.6545,-1.8066,-1.9016,-2.01,-2.1659,-2.327,-2.4655,-2.6024,-2.6492,-2.69,-2.7231,-2.7476,-2.7569,-2.7829,-2.7843,-2.7843,-2.7843,-2.7856,-2.7829,-2.7843,-2.7829,-2.7856,-2.7856,-2.8016,-2.8123,-2.8163,-2.8511,-2.8711,-2.8791,-2.8804,-2.8898,-2.8738,-2.8083,-2.7802,-2.8297,-2.843,-2.8591,-2.8965,-2.8938,-2.8871,-2.8845,-2.8831,-2.8845,-2.8898,-2.8898,-2.8885,-2.8711,-2.8711,-2.8818,-2.8978,-2.8951,-2.8938,-2.9125,-2.9058,-2.9072,-2.9138,-2.9032,-2.8818,-2.8951,-2.9138,-2.9165,-2.9205,-2.9232,-2.9325,-2.9526,-2.9659,-2.974,-2.982,-2.9887,-2.9913,-2.9913,-2.9873,-2.9847,-2.9913,-2.9913,-2.9913,-1.5582,-1.5429,-1.5122,-1.4814,-1.4507,-1.4368,-1.4053,-1.3759,-1.3612,-1.3559,-1.3354,-1.3362,-1.3275,-1.3075,-1.3102,-1.3116,-1.3109,-1.313,-1.3137,-1.3137,-1.3112,-1.3173,-1.3186,-1.3308,-1.3376,-1.3383,-1.3403,-1.341,-1.3431,-1.3559,-1.3627,-1.3654,-1.377,-1.3905,-1.4055,-1.4061,-1.4318,-1.4985,-1.5653,-1.6449,-1.7388,-1.8775,-2.0101,-2.1184,-2.2423,-2.382,-2.5311,-2.6273,-2.6914,-2.7448,-2.7669,-2.8168,-2.8605,-2.8804,-2.8925,-2.8804,-2.8911,-2.8951,-2.8911,-2.8831,-2.8738,-2.8738,-2.8911,-2.8791,-2.8751,-2.8845,-2.8911,-2.8898,-2.8764,-2.8644,-2.8631,-2.8364,-2.8323,-2.8885,-2.8845,-2.8911,-2.8965,-2.8818,-2.8644,-2.8738,-2.8804,-2.8911,-2.9299,-2.9432,-2.9459,-2.9633,-2.97,-2.9713,-2.974,-2.9606,-2.9513,-2.9499,-2.9459,-2.9446,-2.9472,-2.9459,-2.9285,-2.9205,-2.9379,-2.9486,-2.9526,-2.9566,-2.9633,-2.978,-2.978,-2.986,-2.9847,-2.9913,-2.9913,-2.9913,-2.9913,-2.9913,-2.9913,-2.9913,-2.9913,-1.4361,-1.4207,-1.4199,-1.4045,-1.3913,-1.37,-1.3603,-1.3461,-1.3239,-1.3165,-1.3047,-1.3047,-1.3075,-1.2976,-1.3057,-1.3105,-1.3119,-1.3207,-1.3207,-1.3146,-1.3254,-1.3329,-1.3336,-1.3376,-1.3397,-1.3417,-1.3512,-1.3559,-1.3587,-1.3702,-1.3777,-1.3804,-1.3926,-1.4021,-1.4082,-1.4177,-1.4476,-1.5148,-1.5384,-1.6175,-1.7362,-1.7977,-1.8905,-2.0157,-2.1233,-2.2412,-2.3523,-2.5102,-2.6302,-2.6991,-2.7395,-2.7827,-2.8417,-2.8417,-2.843,-2.8417,-2.8417,-2.8417,-2.843,-2.8444,-2.847,-2.8444,-2.8444,-2.8417,-2.8417,-2.8457,-2.8551,-2.8711,-2.8657,-2.8671,-2.8831,-2.8831,-2.8698,-2.8457,-2.8617,-2.8871,-2.9098,-2.9312,-2.9486,-2.9513,-2.9513,-2.9606,-2.9726,-2.9793,-2.9873,-2.998,-2.9993,-3.0034,-3.0167,-3.0167,-3.0194,-3.0301,-3.0114,-2.982,-2.9806,-2.9753,-2.9606,-2.9499,-2.9606,-2.9686,-2.9753,-2.9793,-2.9873,-2.9913,-2.9913,-2.9913,-2.9913,-2.9913,-2.9913,-2.9913,-2.9913,-2.9913,-2.9913,-2.9913,-2.9913,-1.3436,-1.3436,-1.3339,-1.3368,-1.3382,-1.3225,-1.313,-1.3144,-1.3075,-1.299,-1.303,-1.3037,-1.3078,-1.3132,-1.322,-1.3254,-1.3268,-1.3363,-1.3349,-1.3275,-1.3349,-1.3397,-1.341,-1.3464,-1.3485,-1.3512,-1.3634,-1.3709,-1.3715,-1.3851,-1.3926,-1.3953,-1.4082,-1.4156,-1.417,-1.4299,-1.4606,-1.4875,-1.5167,-1.5818,-1.6834,-1.7317,-1.8116,-1.9035,-2.0125,-2.1001,-2.184,-2.3586,-2.5115,-2.6438,-2.7183,-2.7814,-2.831,-2.823,-2.815,-2.8163,-2.8257,-2.8323,-2.8323,-2.847,-2.847,-2.847,-2.847,-2.8484,-2.8484,-2.847,-2.8577,-2.8724,-2.8778,-2.8845,-2.9005,-2.9032,-2.8898,-2.8698,-2.8858,-2.9058,-2.9352,-2.9686,-2.994,-2.9993,-3.006,-3.0181,-3.0341,-3.0408,-3.0461,-3.0528,-3.0568,-3.0595,-3.0742,-3.0648,-3.0702,-3.0621,-3.0274,-3.01,-3.0114,-3.0034,-2.9913,-2.986,-2.9847,-2.9847,-2.986,-2.986,-2.9913,-2.9913,-2.9913,-2.9913,-2.9913,-2.9913,-2.9913,-2.9913,-2.9913,-2.9913,-2.9913,-2.9913,-2.994,-1.3134,-1.3,-1.2834,-1.2745,-1.2766,-1.2908,-1.313,-1.2976,-1.3003,-1.3085,-1.3166,-1.3186,-1.3254,-1.337,-1.337,-1.3376,-1.3397,-1.339,-1.3397,-1.339,-1.3417,-1.3437,-1.3458,-1.3573,-1.3641,-1.3661,-1.3804,-1.3865,-1.3865,-1.4007,-1.4089,-1.4102,-1.4211,-1.4306,-1.4326,-1.4448,-1.4516,-1.4792,-1.5195,-1.5704,-1.5932,-1.6943,-1.767,-1.7844,-1.9141,-1.9993,-2.039,-2.1837,-2.3781,-2.5854,-2.7169,-2.793,-2.8406,-2.835,-2.8087,-2.8283,-2.8484,-2.8591,-2.8684,-2.8804,-2.8951,-2.8938,-2.8938,-2.9045,-2.8951,-2.8925,-2.8965,-2.9045,-2.9058,-2.9085,-2.9125,-2.9165,-2.9259,-2.9513,-2.9593,-2.9726,-2.9953,-3.0074,-3.0301,-3.0448,-3.0474,-3.0621,-3.1102,-3.1169,-3.1276,-3.137,-3.141,-3.137,-3.1249,-3.0955,-3.0822,-3.0608,-3.0368,-3.0247,-3.0207,-3.0034,-2.9927,-2.9913,-2.9913,-2.9913,-2.9913,-2.9913,-2.9913,-2.9913,-2.9913,-2.9913,-2.9913,-2.9913,-2.9913,-2.9913,-2.9913,-2.9927,-2.998,-3.0047,-3.0154,-1.2828,-1.2841,-1.2834,-1.2901,-1.2922,-1.3057,-1.3119,-1.3132,-1.3234,-1.3288,-1.3336,-1.3342,-1.3356,-1.3397,-1.3397,-1.3397,-1.341,-1.3403,-1.3397,-1.3417,-1.3526,-1.3566,-1.36,-1.3715,-1.379,-1.3824,-1.4041,-1.4116,-1.4027,-1.4156,-1.4231,-1.4238,-1.4272,-1.4353,-1.4448,-1.4496,-1.4638,-1.4841,-1.5204,-1.5549,-1.6038,-1.64,-1.6914,-1.729,-1.8319,-1.8986,-1.9671,-2.1723,-2.3784,-2.5536,-2.6509,-2.7346,-2.7869,-2.7779,-2.7888,-2.8074,-2.8325,-2.8564,-2.8765,-2.9018,-2.9058,-2.9045,-2.9098,-2.9045,-2.9045,-2.9045,-2.9152,-2.9285,-2.9366,-2.9446,-2.9619,-2.9673,-2.99,-3.0341,-3.0354,-3.0488,-3.0795,-3.1076,-3.1249,-3.1303,-3.1289,-3.1356,-3.1423,-3.149,-3.145,-3.137,-3.133,-3.1289,-3.1129,-3.0969,-3.0715,-3.0688,-3.0515,-3.0368,-3.0221,-3.0034,-2.9927,-2.9913,-2.9913,-2.9913,-2.9913,-2.9913,-2.9913,-2.9913,-2.9913,-2.9913,-2.9913,-2.9927,-2.9913,-2.998,-3.0114,-3.0234,-3.0314,-3.0394,-3.0528,-1.2766,-1.284,-1.299,-1.3051,-1.3071,-1.3207,-1.3268,-1.3281,-1.3356,-1.3397,-1.3397,-1.3397,-1.3397,-1.3397,-1.3397,-1.3437,-1.3492,-1.3492,-1.3573,-1.3715,-1.3851,-1.3878,-1.3885,-1.4007,-1.4095,-1.4055,-1.4272,-1.4285,-1.4204,-1.4258,-1.4292,-1.4292,-1.4299,-1.4373,-1.4502,-1.459,-1.4719,-1.495,-1.5106,-1.5416,-1.5695,-1.5841,-1.6103,-1.6486,-1.7154,-1.7852,-1.9074,-2.1196,-2.3206,-2.4789,-2.5926,-2.6741,-2.7082,-2.7347,-2.7473,-2.7635,-2.7912,-2.8341,-2.8894,-2.896,-2.9229,-2.9419,-2.9406,-2.9406,-2.9419,-2.9406,-2.9513,-2.9633,-2.9673,-2.9753,-2.9887,-3.002,-3.0261,-3.0501,-3.0715,-3.0955,-3.1356,-3.153,-3.165,-3.1677,-3.1664,-3.1597,-3.1517,-3.1476,-3.133,-3.1142,-3.1049,-3.0969,-3.0862,-3.0715,-3.0595,-3.0528,-3.0421,-3.0207,-3.0127,-2.998,-2.9927,-2.9913,-2.9913,-2.9913,-2.9913,-2.9913,-2.9913,-2.9913,-2.9913,-2.9927,-2.9953,-3.002,-3.0127,-3.0234,-3.0408,-3.0528,-3.0608,-3.0715,-3.0862,-1.2861,-1.2996,-1.3132,-1.3193,-1.3214,-1.3342,-1.3383,-1.3397,-1.3397,-1.3397,-1.3397,-1.3397,-1.3417,-1.3424,-1.3458,-1.3519,-1.3682,-1.3695,-1.3871,-1.4068,-1.4238,-1.4278,-1.4245,-1.4387,-1.4407,-1.434,-1.4462,-1.4421,-1.4319,-1.4292,-1.4299,-1.4312,-1.4319,-1.4407,-1.4563,-1.4692,-1.4841,-1.5004,-1.516,-1.5235,-1.5478,-1.5404,-1.5677,-1.5677,-1.6385,-1.7412,-1.8794,-2.0399,-2.2034,-2.4258,-2.5162,-2.5768,-2.645,-2.6601,-2.6881,-2.6918,-2.7446,-2.8093,-2.8652,-2.8999,-2.9322,-2.9654,-2.9847,-2.9913,-2.9847,-2.9806,-2.9833,-2.986,-2.9913,-2.99,-2.994,-3.0167,-3.0327,-3.0448,-3.0635,-3.1036,-3.1423,-3.1583,-3.1597,-3.161,-3.1597,-3.1436,-3.1289,-3.1156,-3.1076,-3.0808,-3.0728,-3.0648,-3.0541,-3.0394,-3.0327,-3.0287,-3.014,-2.9967,-2.994,-2.9927,-2.9913,-2.9913,-2.9913,-2.9913,-2.9913,-2.9913,-2.9913,-2.9927,-3.0007,-3.0047,-3.006,-3.0154,-3.0341,-3.0488,-3.0662,-3.0768,-3.0862,-3.1009,-3.1142,-1.3098,-1.3139,-1.3288,-1.3349,-1.3356,-1.339,-1.3397,-1.3397,-1.3397,-1.3403,-1.3403,-1.3403,-1.3471,-1.358,-1.36,-1.3722,-1.3953,-1.4,-1.4136,-1.4407,-1.4577,-1.4706,-1.4713,-1.4733,-1.4604,-1.4536,-1.4618,-1.4543,-1.436,-1.4299,-1.4299,-1.4306,-1.4407,-1.4543,-1.4685,-1.4821,-1.4991,-1.5133,-1.5276,-1.5337,-1.5357,-1.5466,-1.5547,-1.5547,-1.6216,-1.7223,-1.8404,-1.9851,-2.0955,-2.2054,-2.3483,-2.4707,-2.5434,-2.575,-2.6077,-2.6437,-2.6846,-2.764,-2.8385,-2.8963,-2.9362,-2.9734,-2.9913,-2.9913,-2.9913,-2.9913,-2.9913,-2.9913,-2.9913,-2.9913,-2.994,-3.0181,-3.0301,-3.0381,-3.0568,-3.0808,-3.0955,-3.1009,-3.1116,-3.1223,-3.1142,-3.0955,-3.0902,-3.0889,-3.0755,-3.0515,-3.0408,-3.0341,-3.0234,-3.0114,-3.01,-3.01,-3.0034,-2.9913,-2.9913,-2.9913,-2.9913,-2.9913,-2.9913,-2.9993,-2.9993,-2.998,-3.002,-3.0074,-3.0154,-3.0181,-3.0234,-3.0474,-3.0702,-3.0808,-3.0915,-3.1049,-3.1169,-3.1303,-3.137,-1.3214,-1.3288,-1.337,-1.3397,-1.3397,-1.3397,-1.3397,-1.3397,-1.3397,-1.3444,-1.3498,-1.3505,-1.3587,-1.3729,-1.381,-1.3966,-1.4197,-1.4414,-1.457,-1.474,-1.4875,-1.495,-1.4943,-1.4889,-1.4767,-1.4638,-1.4611,-1.4496,-1.4353,-1.4299,-1.4299,-1.4312,-1.4448,-1.4577,-1.474,-1.4896,-1.5031,-1.5153,-1.5255,-1.5303,-1.5323,-1.5377,-1.5472,-1.5677,-1.6342,-1.7162,-1.7922,-1.8964,-2.0046,-2.0964,-2.1879,-2.2984,-2.4097,-2.4646,-2.5012,-2.5377,-2.5924,-2.6821,-2.7558,-2.8281,-2.8822,-2.9554,-2.9734,-2.9913,-2.9913,-2.9913,-2.9913,-2.9913,-2.9913,-2.9913,-2.9927,-3.002,-3.014,-3.0167,-3.0287,-3.0434,-3.0568,-3.0702,-3.0835,-3.0969,-3.0902,-3.0742,-3.0662,-3.0608,-3.0461,-3.0234,-3.0167,-3.01,-3.0087,-2.9993,-2.998,-2.9967,-2.9953,-2.9913,-2.9913,-2.9913,-2.9913,-2.9913,-2.9913,-3.0047,-3.0154,-3.0154,-3.0154,-3.0234,-3.0341,-3.0434,-3.0515,-3.0782,-3.0996,-3.1076,-3.1183,-3.1343,-3.145,-3.149,-3.153,-1.3281,-1.3397,-1.3397,-1.3397,-1.3397,-1.3397,-1.3417,-1.3444,-1.3437,-1.3532,-1.3641,-1.3661,-1.3756,-1.3919,-1.4041,-1.4204,-1.4475,-1.476,-1.4957,-1.4991,-1.5031,-1.5031,-1.497,-1.4875,-1.478,-1.4692,-1.459,-1.4441,-1.434,-1.4319,-1.436,-1.4373,-1.4523,-1.4679,-1.4801,-1.493,-1.5072,-1.5174,-1.5194,-1.5235,-1.5248,-1.5269,-1.5343,-1.5622,-1.6292,-1.7004,-1.76,-1.8469,-1.9302,-2.0037,-2.0223,-2.0964,-2.2073,-2.3179,-2.3903,-2.3903,-2.4818,-2.5924,-2.6821,-2.7365,-2.8101,-2.9002,-2.9554,-2.9734,-2.9913,-2.9913,-2.9913,-2.9913,-2.9913,-2.9913,-2.9913,-2.9953,-2.994,-2.994,-2.9927,-3.0034,-3.0261,-3.0515,-3.0608,-3.0702,-3.0581,-3.0421,-3.0341,-3.0287,-3.0127,-2.9993,-2.9953,-2.9927,-2.9927,-2.9927,-2.994,-2.9993,-3.002,-3.0207,-3.0234,-3.0234,-3.0194,-3.014,-3.01,-3.0221,-3.0381,-3.0408,-3.0434,-3.0461,-3.0541,-3.0662,-3.0849,-3.1102,-3.1263,-3.1316,-3.1396,-3.1517,-3.1597,-3.1664,-3.1677,-1.3376,-1.3397,-1.3397,-1.3397,-1.3403,-1.3403,-1.3478,-1.358,-1.3593,-1.3675,-1.3797,-1.381,-1.3973,-1.4177,-1.4245,-1.4482,-1.4814,-1.5038,-1.512,-1.5092,-1.5065,-1.4984,-1.4896,-1.4733,-1.4611,-1.4557,-1.4516,-1.4441,-1.4373,-1.4407,-1.4455,-1.4529,-1.4733,-1.4896,-1.4936,-1.5065,-1.514,-1.5181,-1.5201,-1.5255,-1.5323,-1.5371,-1.5432,-1.5547,-1.6371,-1.6897,-1.7253,-1.8282,-1.893,-1.9116,-1.948,-1.986,-2.0408,-2.151,-2.2248,-2.2984,-2.3719,-2.4818,-2.6106,-2.6821,-2.7727,-2.8822,-2.9362,-2.9554,-2.9734,-2.9913,-2.9913,-2.9913,-2.9913,-2.9913,-2.9913,-2.9913,-2.9913,-2.9913,-2.9913,-2.994,-3.002,-3.01,-3.0234,-3.0381,-3.0234,-3.0114,-3.01,-3.0087,-3.002,-2.9993,-3.002,-3.0007,-3.0007,-3.002,-3.002,-3.0087,-3.0154,-3.0408,-3.0635,-3.0635,-3.0608,-3.0568,-3.0528,-3.0568,-3.0675,-3.0702,-3.0728,-3.0822,-3.0902,-3.1022,-3.1223,-3.141,-3.1476,-3.1517,-3.1597,-3.1677,-3.1677,-3.1677,-3.1677,-1.3397,-1.3397,-1.3397,-1.3451,-1.3512,-1.3519,-1.36,-1.3722,-1.3743,-1.3871,-1.4027,-1.4089,-1.4245,-1.4489,-1.4624,-1.4821,-1.5031,-1.514,-1.514,-1.5072,-1.5004,-1.4862,-1.4767,-1.457,-1.4529,-1.4516,-1.4509,-1.4489,-1.4421,-1.4475,-1.4563,-1.4665,-1.4869,-1.497,-1.5004,-1.5106,-1.5174,-1.5194,-1.5255,-1.5337,-1.5425,-1.5479,-1.5581,-1.5767,-1.6457,-1.6942,-1.7087,-1.7898,-1.8557,-1.8549,-1.8735,-1.8922,-1.9294,-1.9851,-2.0779,-2.1879,-2.28,-2.3903,-2.5195,-2.5913,-2.7015,-2.7908,-2.8642,-2.9182,-2.9554,-2.9734,-2.9913,-2.9913,-2.9913,-2.9913,-2.9913,-2.9913,-2.9913,-2.9913,-2.9913,-2.9913,-2.9913,-2.9913,-3.002,-3.014,-3.0087,-3.002,-2.9967,-2.9953,-2.9927,-2.9967,-3.006,-3.0114,-3.014,-3.0194,-3.0247,-3.0381,-3.0488,-3.0621,-3.0862,-3.0915,-3.0942,-3.0915,-3.0915,-3.0942,-3.0982,-3.1009,-3.1142,-3.1276,-3.1356,-3.1316,-3.1436,-3.157,-3.1637,-3.1677,-3.1677,-3.1677,-3.1677,-3.1677,-3.1677,-1.3417,-1.3444,-1.3444,-1.3532,-1.3654,-1.3675,-1.3777,-1.3912,-1.3939,-1.4109,-1.4367,-1.4401,-1.4529,-1.4767,-1.493,-1.5072,-1.5181,-1.516,-1.5072,-1.4984,-1.4875,-1.4719,-1.4584,-1.4516,-1.4516,-1.4516,-1.457,-1.4557,-1.457,-1.4618,-1.4685,-1.4794,-1.4936,-1.5011,-1.5052,-1.5133,-1.5174,-1.5228,-1.533,-1.5418,-1.552,-1.5615,-1.5683,-1.5655,-1.6465,-1.6927,-1.6912,-1.771,-1.8192,-1.8176,-1.8176,-1.8176,-1.8363,-1.8549,-1.9294,-2.0594,-2.1694,-2.28,-2.4086,-2.5012,-2.6106,-2.7184,-2.8101,-2.8642,-2.9362,-2.9554,-2.9913,-2.9913,-2.9913,-2.9913,-2.9913,-2.9913,-2.9913,-2.9913,-2.9913,-2.9913,-2.9913,-2.9913,-2.9913,-2.9967,-2.9953,-3.0034,-3.0087,-3.01,-3.014,-3.0301,-3.0394,-3.0408,-3.0461,-3.0555,-3.0635,-3.0782,-3.0875,-3.0929,-3.1049,-3.1129,-3.1169,-3.1196,-3.1196,-3.1223,-3.1276,-3.1316,-3.145,-3.1517,-3.1476,-3.1463,-3.1597,-3.1677,-3.1677,-3.1677,-3.1677,-3.1677,-3.1677,-3.1677,-3.1677,-1.3478,-1.36,-1.36,-1.3682,-1.381,-1.3824,-1.3987,-1.4231,-1.4245,-1.4414,-1.4672,-1.4685,-1.4774,-1.4943,-1.5079,-1.516,-1.5147,-1.5065,-1.4991,-1.4916,-1.474,-1.4604,-1.4516,-1.4516,-1.4557,-1.4584,-1.4672,-1.4706,-1.4746,-1.4841,-1.4909,-1.4964,-1.5059,-1.5147,-1.5133,-1.516,-1.5181,-1.5208,-1.5337,-1.5527,-1.5723,-1.5784,-1.5791,-1.5911,-1.6522,-1.6919,-1.689,-1.7695,-1.8176,-1.8176,-1.8176,-1.8176,-1.8176,-1.8176,-1.8549,-1.948,-2.0594,-2.2073,-2.3536,-2.4452,-2.5183,-2.6276,-2.7184,-2.7908,-2.8822,-2.9375,-2.9734,-2.9913,-2.9913,-2.9734,-2.9734,-2.9913,-2.9913,-2.9913,-2.9913,-2.9913,-2.9913,-2.9913,-2.9913,-3.0047,-3.0114,-3.0261,-3.0368,-3.0368,-3.0394,-3.0581,-3.0715,-3.0728,-3.0782,-3.0902,-3.0996,-3.1129,-3.1183,-3.1223,-3.1263,-3.1343,-3.137,-3.1423,-3.1436,-3.1463,-3.1476,-3.1503,-3.157,-3.161,-3.157,-3.1557,-3.1637,-3.1677,-3.1677,-3.1677,-3.1677,-3.1677,-3.1677,-3.1677,-3.1677,-1.3566,-1.3634,-1.3715,-1.3885,-1.4089,-1.4102,-1.4272,-1.4502,-1.455,-1.4672,-1.4841,-1.4869,-1.495,-1.5079,-1.5167,-1.5181,-1.5153,-1.5038,-1.4916,-1.4855,-1.4699,-1.4597,-1.455,-1.4604,-1.4665,-1.476,-1.4841,-1.493,-1.4964,-1.497,-1.4997,-1.5092,-1.514,-1.5174,-1.5181,-1.5181,-1.5181,-1.5221,-1.5337,-1.5513,-1.5676,-1.5723,-1.5689,-1.5608,-1.623,-1.651,-1.6793,-1.7304,-1.7989,-1.7989,-1.8176,-1.8176,-1.8176,-1.8176,-1.8363,-1.893,-1.9488,-2.0594,-2.2248,-2.3352,-2.4452,-2.5366,-2.6095,-2.7196,-2.8101,-2.8822,-2.9015,-2.9015,-2.9195,-2.9195,-2.9195,-2.9375,-2.9554,-2.9554,-2.9734,-2.9913,-2.9913,-2.9927,-2.9967,-3.0114,-3.0301,-3.0474,-3.0635,-3.0702,-3.0715,-3.0795,-3.0955,-3.1036,-3.1129,-3.1276,-3.1356,-3.145,-3.149,-3.1503,-3.153,-3.157,-3.153,-3.157,-3.157,-3.1583,-3.1623,-3.1664,-3.1677,-3.1677,-3.1637,-3.1637,-3.1677,-3.1677,-3.1677,-3.1677,-3.1677,-3.1677,-3.1677,-3.1677,-3.1677,-1.3763,-1.381,-1.3912,-1.4109,-1.4353,-1.4394,-1.455,-1.478,-1.4794,-1.4882,-1.4991,-1.5025,-1.5086,-1.516,-1.5174,-1.516,-1.5113,-1.5018,-1.4882,-1.4787,-1.4726,-1.4672,-1.4658,-1.4726,-1.4855,-1.4977,-1.4997,-1.5065,-1.5099,-1.5099,-1.5092,-1.5181,-1.5174,-1.5181,-1.5181,-1.5187,-1.5201,-1.5269,-1.5357,-1.5493,-1.5615,-1.5601,-1.5527,-1.5636,-1.5934,-1.6241,-1.6516,-1.7055,-1.7429,-1.7616,-1.7803,-1.7803,-1.7803,-1.7989,-1.8176,-1.8557,-1.893,-1.948,-2.0779,-2.2063,-2.3352,-2.4452,-2.5377,-2.6652,-2.7196,-2.7739,-2.8101,-2.8101,-2.8113,-2.8113,-2.8294,-2.8642,-2.8822,-2.9002,-2.9362,-2.9554,-2.9734,-2.9747,-3.0034,-3.0234,-3.0461,-3.0742,-3.0902,-3.1022,-3.1062,-3.1062,-3.1169,-3.1303,-3.141,-3.153,-3.1557,-3.1597,-3.161,-3.161,-3.1637,-3.1677,-3.1677,-3.1677,-3.1677,-3.1677,-3.1677,-3.1677,-3.1677,-3.1677,-3.1677,-3.1677,-3.1677,-3.1677,-3.1677,-3.1677,-3.1677,-3.1677,-3.1677,-3.1677,-3.1677,-1.4129,-1.4258,-1.4265,-1.436,-1.4516,-1.4652,-1.4801,-1.495,-1.4957,-1.5031,-1.5133,-1.516,-1.5153,-1.5181,-1.5174,-1.512,-1.5004,-1.4977,-1.4889,-1.4794,-1.474,-1.4746,-1.4774,-1.4862,-1.497,-1.5004,-1.5079,-1.5147,-1.5174,-1.516,-1.516,-1.5181,-1.5181,-1.5181,-1.5181,-1.5187,-1.5235,-1.5303,-1.5371,-1.5445,-1.5513,-1.5499,-1.5411,-1.5377,-1.566,-1.5946,-1.5938,-1.6494,-1.6868,-1.7055,-1.7055,-1.7242,-1.7429,-1.7437,-1.7803,-1.8176,-1.8549,-1.893,-1.9666,-2.0955,-2.2248,-2.3903,-2.5195,-2.6106,-2.6288,-2.6821,-2.7003,-2.7184,-2.7196,-2.7377,-2.7558,-2.792,-2.792,-2.8281,-2.8822,-2.9182,-2.9375,-2.9734,-2.9867,-3.0327,-3.0595,-3.0875,-3.1169,-3.1289,-3.1343,-3.1356,-3.137,-3.1503,-3.153,-3.1623,-3.1637,-3.165,-3.165,-3.1664,-3.1664,-3.1677,-3.1677,-3.1677,-3.1677,-3.1677,-3.1677,-3.1677,-3.1677,-3.1677,-3.1677,-3.1677,-3.1677,-3.1677,-3.1677,-3.1677,-3.1677,-3.1677,-3.1677,-3.1677,-3.1677,-1.4299,-1.4448,-1.4631,-1.4746,-1.4801,-1.4855,-1.4964,-1.5086,-1.5099,-1.5126,-1.5181,-1.5181,-1.5181,-1.5181,-1.5181,-1.516,-1.5092,-1.5004,-1.4936,-1.4903,-1.4882,-1.4882,-1.493,-1.5004,-1.5106,-1.5106,-1.516,-1.5181,-1.5181,-1.5181,-1.5181,-1.5181,-1.5181,-1.5181,-1.5181,-1.5181,-1.5221,-1.5248,-1.5276,-1.5316,-1.5316,-1.5316,-1.5269,-1.5255,-1.5423,-1.5563,-1.5938,-1.6119,-1.6306,-1.6494,-1.6673,-1.6868,-1.6868,-1.6868,-1.7242,-1.7616,-1.7997,-1.8371,-1.9116,-2.0223,-2.1889,-2.2995,-2.428,-2.5001,-2.5012,-2.556,-2.6106,-2.6106,-2.6106,-2.6106,-2.6288,-2.6652,-2.7015,-2.7558,-2.792,-2.8462,-2.8822,-2.9182,-2.9739,-3.0212,-3.0688,-3.0969,-3.1276,-3.157,-3.161,-3.1637,-3.1664,-3.1677,-3.1677,-3.1677,-3.1677,-3.1677,-3.1677,-3.1677,-3.1677,-3.1677,-3.1677,-3.1677,-3.1677,-3.1677,-3.1677,-3.1677,-3.1677,-3.1677,-3.1677,-3.1677,-3.1677,-3.1677,-3.1677,-3.1677,-3.1677,-3.1677,-3.1677,-3.1677,-3.1677,-1.4475,-1.4665,-1.4882,-1.497,-1.4977,-1.5018,-1.5086,-1.5167,-1.5174,-1.5181,-1.5181,-1.5181,-1.5181,-1.5181,-1.5181,-1.514,-1.5106,-1.5052,-1.5011,-1.4997,-1.5004,-1.5025,-1.5072,-1.5113,-1.516,-1.5181,-1.5181,-1.5181,-1.5181,-1.5181,-1.5181,-1.5181,-1.5181,-1.5181,-1.5181,-1.5181,-1.5181,-1.5181,-1.5181,-1.5181,-1.5187,-1.5187,-1.5187,-1.5194,-1.5187,-1.5375,-1.5563,-1.5751,-1.5744,-1.6119,-1.6119,-1.6306,-1.6306,-1.6494,-1.6868,-1.7242,-1.7437,-1.7811,-1.8735,-2.0037,-2.1334,-2.2258,-2.28,-2.3352,-2.373,-2.428,-2.4463,-2.4646,-2.4646,-2.4829,-2.5012,-2.5377,-2.5924,-2.6458,-2.7015,-2.7558,-2.8101,-2.8474,-2.9287,-3.0109,-3.036,-3.077,-3.1276,-3.1557,-3.1677,-3.169,-3.1677,-3.1677,-3.1677,-3.1677,-3.1677,-3.1677,-3.1677,-3.1677,-3.1677,-3.1677,-3.1677,-3.1677,-3.1677,-3.1677,-3.1677,-3.1677,-3.1677,-3.1677,-3.1677,-3.1677,-3.1677,-3.1677,-3.1677,-3.1677,-3.1677,-3.1677,-3.1677,-3.1677,-3.1677,-1.4685,-1.495,-1.497,-1.4977,-1.5004,-1.512,-1.5174,-1.5181,-1.5181,-1.5181,-1.5181,-1.5181,-1.5181,-1.5181,-1.5181,-1.5133,-1.5079,-1.512,-1.5106,-1.5045,-1.5099,-1.5153,-1.516,-1.5174,-1.5181,-1.5181,-1.5181,-1.5181,-1.5181,-1.5181,-1.5181,-1.5181,-1.5181,-1.5181,-1.5181,-1.5181,-1.5181,-1.5181,-1.5181,-1.5181,-1.5181,-1.5181,-1.5181,-1.5181,-1.5181,-1.5181,-1.5368,-1.5368,-1.5368,-1.5556,-1.5556,-1.5556,-1.5931,-1.5938,-1.6314,-1.7063,-1.725,-1.7624,-1.8363,-1.9666,-2.0408,-2.1149,-2.1879,-2.2063,-2.2442,-2.2821,-2.2821,-2.2995,-2.2811,-2.3362,-2.373,-2.4269,-2.4635,-2.5366,-2.5924,-2.647,-2.7184,-2.7739,-2.8521,-2.9482,-2.9899,-3.0333,-3.1022,-3.1476,-3.165,-3.1704,-3.1677,-3.1677,-3.1677,-3.1677,-3.1677,-3.1677,-3.1677,-3.1677,-3.1677,-3.1677,-3.1677,-3.1677,-3.1677,-3.1677,-3.1677,-3.1677,-3.1677,-3.1677,-3.1677,-3.1677,-3.1677,-3.1677,-3.1677,-3.1677,-3.1677,-3.1677,-3.1677,-3.1677,-3.1677,-1.4875,-1.4977,-1.5072,-1.5113,-1.512,-1.516,-1.5181,-1.5181,-1.5181,-1.5181,-1.5181,-1.5181,-1.5181,-1.5181,-1.5181,-1.5153,-1.5133,-1.5133,-1.5126,-1.5126,-1.5167,-1.5174,-1.5181,-1.5181,-1.5181,-1.5181,-1.5181,-1.5181,-1.5181,-1.5181,-1.5181,-1.5181,-1.5181,-1.5181,-1.5181,-1.5181,-1.5181,-1.5181,-1.5181,-1.5181,-1.5181,-1.5181,-1.5181,-1.5181,-1.5181,-1.5181,-1.5181,-1.5181,-1.5181,-1.5181,-1.5181,-1.5368,-1.5368,-1.5563,-1.5751,-1.6501,-1.6688,-1.7429,-1.7989,-1.8922,-1.9294,-2.0037,-2.0594,-2.0964,-2.1149,-2.1519,-2.151,-2.1704,-2.1519,-2.2073,-2.2432,-2.2616,-2.3168,-2.4269,-2.5001,-2.556,-2.6276,-2.7015,-2.7669,-2.861,-2.9205,-3.0264,-3.102,-3.1244,-3.1416,-3.1567,-3.154,-3.1677,-3.1677,-3.1677,-3.1677,-3.1677,-3.1677,-3.1677,-3.1677,-3.1677,-3.1677,-3.1677,-3.1677,-3.1677,-3.1677,-3.1677,-3.1677,-3.1677,-3.1677,-3.1677,-3.1677,-3.1677,-3.1677,-3.1677,-3.1677,-3.1677,-3.1677,-3.1677,-3.1677,-1.4997,-1.5059,-1.514,-1.5181,-1.5181,-1.5181,-1.5181,-1.5181,-1.5181,-1.5181,-1.5181,-1.5181,-1.5181,-1.5181,-1.5181,-1.5181,-1.5181,-1.5181,-1.5181,-1.5181,-1.5181,-1.5181,-1.5181,-1.5181,-1.5181,-1.5181,-1.5181,-1.5181,-1.5181,-1.5181,-1.5181,-1.5181,-1.5181,-1.5181,-1.5181,-1.5181,-1.5181,-1.5181,-1.5181,-1.5181,-1.5181,-1.5181,-1.5181,-1.5181,-1.5181,-1.5181,-1.5181,-1.5181,-1.5181,-1.5181,-1.5181,-1.5181,-1.5181,-1.5181,-1.5368,-1.5938,-1.6688,-1.7242,-1.7989,-1.8176,-1.8735,-1.9108,-1.9666,-2.0037,-2.0037,-2.0408,-2.0594,-2.0594,-2.0594,-2.0964,-2.1325,-2.1325,-2.1898,-2.3005,-2.3588,-2.4323,-2.509,-2.5822,-2.6695,-2.7609,-2.8706,-2.9909,-3.1015,-3.102,-3.1216,-3.1303,-3.1389,-3.154,-3.1677,-3.1677,-3.1677,-3.1677,-3.1677,-3.1677,-3.1677,-3.1677,-3.1677,-3.1677,-3.169,-3.1717,-3.1677,-3.1677,-3.1677,-3.1677,-3.169,-3.169,-3.1677,-3.1677,-3.1704,-3.1704,-3.1677,-3.1677,-3.1677,-3.1677,-3.1677,-1.5059,-1.5174,-1.5181,-1.5181,-1.5181,-1.5181,-1.5181,-1.5181,-1.5181,-1.5181,-1.5181,-1.5181,-1.5181,-1.5181,-1.5181,-1.5181,-1.5181,-1.5181,-1.5181,-1.5181,-1.5181,-1.5181,-1.5181,-1.5181,-1.5181,-1.5181,-1.5181,-1.5181,-1.5181,-1.5181,-1.5181,-1.5181,-1.5181,-1.5181,-1.5181,-1.5181,-1.5181,-1.5181,-1.5181,-1.5181,-1.5181,-1.5181,-1.5181,-1.5181,-1.5181,-1.5181,-1.5181,-1.5181,-1.5181,-1.5181,-1.5181,-1.5181,-1.5181,-1.5181,-1.5556,-1.5938,-1.6876,-1.7429,-1.7989,-1.7989,-1.8176,-1.8549,-1.8744,-1.9116,-1.9488,-1.9666,-1.9666,-1.9666,-1.9666,-2.0037,-2.0223,-2.0612,-2.0825,-2.1596,-2.2016,-2.2963,-2.3921,-2.4758,-2.547,-2.6467,-2.7807,-2.8919,-2.9884,-3.0458,-3.0509,-3.0613,-3.0702,-3.0994,-3.1133,-3.1664,-3.1664,-3.1677,-3.1677,-3.1677,-3.1677,-3.169,-3.177,-3.1797,-3.1797,-3.1797,-3.1744,-3.1797,-3.1917,-3.1931,-3.177,-3.173,-3.1797,-3.1797,-3.177,-3.177,-3.1904,-3.1744,-3.1757,-3.169,-3.1677,-1.5147,-1.5181,-1.5181,-1.5181,-1.5181,-1.5181,-1.5181,-1.5181,-1.5181,-1.5181,-1.5181,-1.5181,-1.5181,-1.5181,-1.5181,-1.5181,-1.5181,-1.5181,-1.5181,-1.5181,-1.5181,-1.5181,-1.5181,-1.5181,-1.5181,-1.5181,-1.5181,-1.5181,-1.5181,-1.5181,-1.5181,-1.5181,-1.5181,-1.5181,-1.5181,-1.5181,-1.5181,-1.5181,-1.5181,-1.5181,-1.5181,-1.5181,-1.5181,-1.5181,-1.5181,-1.5181,-1.5181,-1.5181,-1.5181,-1.5181,-1.5181,-1.5181,-1.5181,-1.5181,-1.5368,-1.5938,-1.6494,-1.7055,-1.7624,-1.7989,-1.8184,-1.8005,-1.8379,-1.8363,-1.8549,-1.8752,-1.8752,-1.8947,-1.8964,-1.9167,-1.9432,-1.985,-2.0261,-2.0691,-2.1358,-2.2077,-2.3064,-2.4093,-2.4811,-2.5916,-2.7249,-2.8067,-2.9031,-2.9322,-2.9541,-2.9879,-2.9997,-3.028,-3.0777,-3.112,-3.1474,-3.1487,-3.1744,-3.177,-3.173,-3.173,-3.1837,-3.1917,-3.1957,-3.2038,-3.2158,-3.2225,-3.2265,-3.2211,-3.2064,-3.1998,-3.1984,-3.1984,-3.2011,-3.2211,-3.2318,-3.2051,-3.1837,-3.1824,-3.1797,-1.5181,-1.5181,-1.5181,-1.5181,-1.5181,-1.5181,-1.5181,-1.5181,-1.5181,-1.5181,-1.5181,-1.5181,-1.5181,-1.5181,-1.5181,-1.5181,-1.5181,-1.5181,-1.5181,-1.5181,-1.5181,-1.5181,-1.5181,-1.5181,-1.5181,-1.5181,-1.5181,-1.5181,-1.5181,-1.5181,-1.5181,-1.5181,-1.5181,-1.5181,-1.5181,-1.5181,-1.5181,-1.5181,-1.5181,-1.5181,-1.5181,-1.5181,-1.5181,-1.5181,-1.5181,-1.5181,-1.5181,-1.5181,-1.5181,-1.5181,-1.5181,-1.5181,-1.5181,-1.5181,-1.5368,-1.5938,-1.6126,-1.6681,-1.7055,-1.7429,-1.7655,-1.7695,-1.7718,-1.7773,-1.793,-1.811,-1.829,-1.8469,-1.8486,-1.8518,-1.8814,-1.9112,-1.9552,-2.0193,-2.0982,-2.1587,-2.243,-2.3461,-2.4525,-2.5604,-2.6449,-2.7227,-2.7879,-2.8156,-2.8351,-2.8426,-2.8741,-2.9078,-2.9796,-3.0726,-3.1093,-3.1297,-3.1606,-3.1891,-3.1864,-3.1904,-3.2091,-3.2225,-3.2265,-3.2372,-3.2532,-3.2532,-3.2465,-3.2425,-3.2372,-3.2318,-3.2278,-3.2278,-3.2332,-3.2505,-3.2532,-3.2278,-3.2104,-3.2118,-3.2091,-1.5181,-1.5181,-1.5181,-1.5181,-1.5181,-1.5181,-1.5181,-1.5181,-1.5181,-1.5181,-1.5181,-1.5181,-1.5181,-1.5181,-1.5181,-1.5181,-1.5181,-1.5181,-1.5181,-1.5181,-1.5181,-1.5181,-1.5181,-1.5181,-1.5208,-1.5201,-1.5187,-1.5181,-1.5181,-1.5181,-1.5181,-1.5181,-1.5181,-1.5181,-1.5181,-1.5181,-1.5181,-1.5181,-1.5181,-1.5181,-1.5181,-1.5181,-1.5181,-1.5181,-1.5181,-1.5181,-1.5181,-1.5181,-1.5181,-1.5181,-1.5181,-1.5181,-1.5181,-1.5181,-1.5556,-1.5772,-1.5967,-1.6365,-1.6567,-1.6966,-1.7041,-1.7094,-1.6949,-1.7192,-1.736,-1.7686,-1.786,-1.7876,-1.7899,-1.8121,-1.8399,-1.8728,-1.9195,-1.9682,-2.0428,-2.0978,-2.1648,-2.2697,-2.3572,-2.4618,-2.5177,-2.5951,-2.6449,-2.6711,-2.6872,-2.6942,-2.7295,-2.7862,-2.8705,-2.9654,-3.0447,-3.0842,-3.1395,-3.1938,-3.2171,-3.2251,-3.2438,-3.2545,-3.2572,-3.2679,-3.2839,-3.2759,-3.2625,-3.2625,-3.2625,-3.2612,-3.2572,-3.2532,-3.2505,-3.2612,-3.2585,-3.2425,-3.2358,-3.2332,-3.2171,-1.5181,-1.5181,-1.5181,-1.5181,-1.5181,-1.5181,-1.5181,-1.5181,-1.5181,-1.5181,-1.5181,-1.5181,-1.5181,-1.5181,-1.5181,-1.5181,-1.5181,-1.5181,-1.5181,-1.5181,-1.5181,-1.5181,-1.5187,-1.5208,-1.5242,-1.5282,-1.5262,-1.5181,-1.5181,-1.5181,-1.5181,-1.5181,-1.5181,-1.5181,-1.5181,-1.5181,-1.5181,-1.5181,-1.5181,-1.5181,-1.5181,-1.5181,-1.5181,-1.5181,-1.5181,-1.5181,-1.5181,-1.5181,-1.5181,-1.5181,-1.5181,-1.5181,-1.5181,-1.5187,-1.5187,-1.5389,-1.587,-1.6095,-1.632,-1.6569,-1.6847,-1.6892,-1.6928,-1.7143,-1.7136,-1.7275,-1.7459,-1.749,-1.7512,-1.7735,-1.7998,-1.8324,-1.8646,-1.9142,-1.9849,-2.0337,-2.0829,-2.1885,-2.2765,-2.3314,-2.3869,-2.439,-2.4876,-2.5019,-2.5377,-2.555,-2.5917,-2.6349,-2.7502,-2.8533,-2.9772,-3.0404,-3.1322,-3.1841,-3.2076,-3.2377,-3.2563,-3.2642,-3.2682,-3.3,-3.3133,-3.3066,-3.2973,-3.2906,-3.2879,-3.2879,-3.2799,-3.2639,-3.2639,-3.2732,-3.2625,-3.2465,-3.2412,-3.2398,-3.2158,-1.5181,-1.5181,-1.5181,-1.5181,-1.5181,-1.5181,-1.5181,-1.5181,-1.5181,-1.5181,-1.5181,-1.5181,-1.5181,-1.5181,-1.5181,-1.5181,-1.5181,-1.5181,-1.5181,-1.5181,-1.5181,-1.5181,-1.5194,-1.5242,-1.5248,-1.5289,-1.5235,-1.5181,-1.5181,-1.5181,-1.5181,-1.5181,-1.5181,-1.5181,-1.5181,-1.5181,-1.5181,-1.5181,-1.5181,-1.5181,-1.5181,-1.5181,-1.5181,-1.5181,-1.5181,-1.5181,-1.5181,-1.5181,-1.5181,-1.5215,-1.5248,-1.5289,-1.5316,-1.5371,-1.5391,-1.5418,-1.5657,-1.589,-1.611,-1.6366,-1.6652,-1.6681,-1.6508,-1.6522,-1.6643,-1.6608,-1.7127,-1.7142,-1.7486,-1.7695,-1.7848,-1.7992,-1.8465,-1.8956,-1.9267,-1.9766,-2.0342,-2.1315,-2.1867,-2.235,-2.2716,-2.2894,-2.3415,-2.361,-2.3776,-2.4207,-2.4577,-2.5278,-2.6223,-2.7035,-2.8473,-2.9541,-3.0465,-3.1342,-3.1775,-3.2103,-3.2272,-3.2537,-3.2749,-3.3014,-3.3081,-3.3334,-3.3334,-3.32,-3.3133,-3.3173,-3.3066,-3.2839,-3.2786,-3.2879,-3.2706,-3.2492,-3.2452,-3.2345,-3.2104,-1.5181,-1.5181,-1.5181,-1.5181,-1.5181,-1.5181,-1.5181,-1.5181,-1.5181,-1.5181,-1.5181,-1.5181,-1.5181,-1.5181,-1.5181,-1.5181,-1.5181,-1.5181,-1.5181,-1.5181,-1.5181,-1.5215,-1.5262,-1.5303,-1.5269,-1.5248,-1.5228,-1.5201,-1.5181,-1.5181,-1.5181,-1.5181,-1.5181,-1.5181,-1.5181,-1.5181,-1.5181,-1.5181,-1.5181,-1.5181,-1.5181,-1.5181,-1.5181,-1.5181,-1.5181,-1.5181,-1.5181,-1.5208,-1.5208,-1.5276,-1.5357,-1.5418,-1.5459,-1.552,-1.556,-1.5588,-1.5628,-1.5849,-1.5683,-1.5911,-1.5993,-1.5845,-1.5866,-1.5927,-1.6035,-1.6234,-1.656,-1.6918,-1.7071,-1.7297,-1.7444,-1.7724,-1.7999,-1.8452,-1.8761,-1.9243,-1.9757,-2.0491,-2.0966,-2.1424,-2.1621,-2.1621,-2.2004,-2.2191,-2.2406,-2.2836,-2.3523,-2.4431,-2.5179,-2.5829,-2.6791,-2.8072,-2.8978,-2.9839,-3.1051,-3.1327,-3.1667,-3.1893,-3.2093,-3.2559,-3.3013,-3.2812,-3.2812,-3.32,-3.316,-3.3134,-3.32,-3.2973,-3.2986,-3.2906,-3.2492,-3.2185,-3.2131,-3.2024,-3.1931,-1.5181,-1.5181,-1.5181,-1.5181,-1.5181,-1.5181,-1.5181,-1.5181,-1.5181,-1.5181,-1.5181,-1.5181,-1.5181,-1.5181,-1.5181,-1.5181,-1.5181,-1.5181,-1.5181,-1.5181,-1.5215,-1.5276,-1.5316,-1.5323,-1.5228,-1.5228,-1.5269,-1.5276,-1.5201,-1.5181,-1.5181,-1.5181,-1.5181,-1.5181,-1.5181,-1.5181,-1.5181,-1.5181,-1.5181,-1.5181,-1.5187,-1.5187,-1.5181,-1.5181,-1.5181,-1.5181,-1.5208,-1.5309,-1.535,-1.5411,-1.5499,-1.5574,-1.5622,-1.5655,-1.5689,-1.573,-1.5771,-1.5805,-1.5832,-1.5886,-1.5961,-1.5981,-1.6001,-1.6008,-1.6076,-1.6069,-1.6432,-1.6432,-1.6602,-1.6793,-1.6885,-1.7084,-1.7326,-1.7931,-1.839,-1.8589,-1.8948,-1.9536,-1.9891,-2.0243,-2.044,-2.0629,-2.1022,-2.1219,-2.1415,-2.1676,-2.202,-2.2936,-2.3908,-2.4568,-2.5236,-2.6317,-2.7614,-2.889,-3.0105,-3.0271,-3.0546,-3.0987,-3.1416,-3.1806,-3.2008,-3.2008,-3.2209,-3.241,-3.2611,-3.2786,-3.2841,-3.2841,-3.2799,-3.2417,-3.2118,-3.1797,-3.1784,-3.1797,-3.177]}]]